Back to main page

Alchemy table:

Filters
AIR EARTH WATER FIRE MUD SEA DUST RAIN LAVA STEAM
ENERGY PRESS STONE OCEAN FLOOD BRICK WIND EARTHQ WALL OBSIDIN
PLANT GUNPWDR SAND EXPLOSN TOBACCO SWAMP GEYSER COAL DIAMOND ATMSPHE
GLASS MOSS CLOUD FOG GRASS METAL RUST RING STEEL GRENADE
ELECTRC SKY SUN BULLET WAVE STORM SOUND FIREWRK DEW BOILER
BLADE LIFE HORIZON VULCANO HEAT GARBAGE TREE CLAY TSUNAMI DRKGLAS
CABBAGE TNPLT WHEAT ASH CARROT BEACH CACTUS DESERT RADITON FLOUR
KNIFE HURRCAN COMPASS ISLE ARCHIP GLASSES BOTTLE BULB ATMCBMB POT
MNTAIN ALCOHOL RIVER BREAD SNDCLCK TIME ALARM CANABIS GUN OXYGEN
PAPER RAINBOW PAINT SALT BARREL WHISKEY TEQUILA SNDSTRM CLOTH FLAG
VACUUM VIRUS BLCKMTR BLCKHOL PLASMA CHAIN SHIT GOLD LENS MCRSCP
PRISM SMOKE PIPE REEDPIP MUSIC MONEY BLOCK BLCKCHN BROOM FROST
ICE FRIDGE MIRROR GRPHITE PENCIL BOOK BATTERY PAINTNG FLSHLGH CALCLTR
ATOM BITCOIN CABLE HILL KITE HAMMER TILING STOOL SEAWEED GAS
BUBBLES SODA PICKAX PEAT NFT GOLEM BACTERI PETRID KETTLE SEED
GRAPE SUNFLWR WIRE OIL SALAD STRING PIANO CELL OZONE CRUDE
PLASTIC SCISSOR DRUM GASOLIN SYRINGE BACKPAK TSHIRT MARKER LIMSTON CEMENT
CONCRTE BUILDNG LIBRARY

Blue lines were last attempted before new elements were added. Yellow lines were tried after that.

# First Tried Daring Soul 1 2 3 4 Result Total Crafts Aether Cost
7772153 2021-Jul-30 00:03:17 p4lqm.wam COAL HEAT STONE STONE - 1 520000
7771925 2021-Jul-29 23:57:16 evqum.wam HILL SEED SEED WIRE - 1 6640000
7771623 2021-Jul-29 23:45:32 p4lqm.wam COAL ELECTRC SAND TREE - 1 2950000
7771560 2021-Jul-29 23:42:46 p4lqm.wam AIR COAL ELECTRC SAND - 1 2170000
7771432 2021-Jul-29 23:36:59 rplanetdevil ARCHIP ARCHIP ATMSPHE OCEAN - 1 4390000
7771035 2021-Jul-29 23:20:29 p4lqm.wam COAL ELECTRC OXYGEN SAND - 1 4930000
7771022 2021-Jul-29 23:20:02 1akay.wam BACTERI CRUDE OXYGEN WATER - 1 4360000
7770333 2021-Jul-29 22:59:08 psueg.wam HILL SEED STRING TREE - 1 8680000
7769782 2021-Jul-29 22:42:41 4jube.wam HILL SEED WATER WIRE - 1 5440000
7768631 2021-Jul-29 22:21:20 psueg.wam HILL RAIN SEED STRING - 1 7930000
7766173 2021-Jul-29 21:37:10 chfuc.wam ARCHIP ARCHIP OCEAN OCEAN - 1 4420000
7765279 2021-Jul-29 21:19:30 v4.bc.wam MUD PLANT RIVER SUN - 1 1840000
7765134 2021-Jul-29 21:13:50 v4.bc.wam FLOOD MNTAIN PLANT SUN - 1 1570000
7764990 2021-Jul-29 21:08:10 5ktqw.wam EARTH EARTH GARBAGE PRESS - 1 100000
7764908 2021-Jul-29 21:03:09 eomqw.wam EARTH PLANT RAIN RIVER - 1 1240000
7764900 2021-Jul-29 21:02:40 eomqw.wam EARTH PLANT RIVER WATER - 1 1210000
7764268 2021-Jul-29 20:40:11 jjxek.wam ENERGY LAVA PRESS PRESS - 1 160000
7763794 2021-Jul-29 20:27:43 psueg.wam EARTH SEED SEED STRING - 1 7690000
7763596 2021-Jul-29 20:22:50 5j3r4.wam CANABIS SUN WIRE WIRE - 1 7600000
7761669 2021-Jul-29 19:38:06 b2dei.wam HILL PLANT STRING SUN - 1 7450000
7761568 2021-Jul-29 19:34:46 rfvau.wam PLANT STRING TREE WATER - 1 6220000
7760864 2021-Jul-29 19:16:45 f4vb4.wam CANABIS HILL SEED STRING - 1 9280000
7760780 2021-Jul-29 19:15:05 le3ba.wam CANABIS HILL SEED WIRE - 1 6820000
7760668 2021-Jul-29 19:12:54 4y4qy.wam PLANT TREE WIRE WIRE - 1 6550000
7760114 2021-Jul-29 19:01:53 ciwai.wam ARCHIP ARCHIP OCEAN SKY - 1 4840000
7758910 2021-Jul-29 18:44:17 pykru.wam CANABIS EARTH STRING TREE - 1 7450000
7758275 2021-Jul-29 18:35:50 4y4qy.wam PLANT WIRE WIRE WIRE - 1 8560000
7757754 2021-Jul-29 18:28:43 helphycrypto CANABIS HILL SUN WIRE - 1 6220000
7757450 2021-Jul-29 18:24:24 g2cbe.wam HILL SEED STRING WATER - 1 7900000
7757021 2021-Jul-29 18:16:29 iamdigipedro HILL PLANT SEED WIRE - 1 5590000
7755351 2021-Jul-29 17:56:02 4y4qy.wam CANABIS WIRE WIRE WIRE - 1 9790000
7755269 2021-Jul-29 17:55:19 zcbr4.wam ALCOHOL ALCOHOL BUBBLES DRKGLAS - 1 1630000
7754622 2021-Jul-29 17:49:52 g2cbe.wam CANABIS HILL STRING SUN - 1 8680000
7754614 2021-Jul-29 17:49:46 jooam.waa PEAT SEED STRING SUN - 1 8350000
7753761 2021-Jul-29 17:40:17 4y4qy.wam SEED STRING TREE WATER - 1 7270000
7753662 2021-Jul-29 17:39:25 zcbr4.wam ALCOHOL ALCOHOL DRKGLAS GRAPE - 1 3940000
7750547 2021-Jul-29 16:51:48 lsfqw.wam DUST GAS STONE TIME - 1 5770000
7750343 2021-Jul-29 16:46:55 r2t.e.wam HEAT METAL METAL STONE - 1 1480000
7745892 2021-Jul-29 14:21:31 wo5qq.wam CANABIS EARTH SEED WIRE - 1 5410000
7745829 2021-Jul-29 14:18:05 pojqw.wam AIR DUST EARTH EARTH - 1 70000
7742341 2021-Jul-29 12:37:50 zzwrm.wam EARTH SEED SUN TIME - 1 6550000
7741632 2021-Jul-29 12:20:02 omnro.wam HEAT HEAT METAL MNTAIN - 1 1390000
7740686 2021-Jul-29 11:55:50 .12qw.wam RIVER SEED SUN WIRE - 1 5650000
7740523 2021-Jul-29 11:50:17 epzcm.wam GRAPE GRAPE PRESS TIME - 1 11320000
7739803 2021-Jul-29 11:27:17 psueg.wam EARTH EARTH SEED STRING - 1 6490000
7739760 2021-Jul-29 11:25:38 psueg.wam EARTH SEED STRING TREE - 1 7270000
7739599 2021-Jul-29 11:21:00 psueg.wam EARTH SEED STRING WATER - 1 6490000
7739083 2021-Jul-29 11:07:19 4nvqy.wam AIR RAIN WATER WATER - 1 70000
7738922 2021-Jul-29 11:04:07 frcqu.wam BOILER CLAY HEAT SAND - 1 1900000
7738143 2021-Jul-29 10:42:32 psueg.wam EARTH SEED SEED WIRE - 1 5230000
7733347 2021-Jul-29 08:50:50 smcbm.wam AIR PRESS SAND STONE - 1 610000
7733159 2021-Jul-29 08:44:19 3rjr.wam FIRE SEA WATER WATER - 1 70000
7731691 2021-Jul-29 08:07:15 rplanetdevil ARCHIP ARCHIP ARCHIP ARCHIP - 1 8200000
7728455 2021-Jul-29 06:35:08 l.ion BUILDNG MUSIC MUSIC MUSIC - 1 46810000
7728365 2021-Jul-29 06:28:06 ha3rc.wam ENERGY PLANT WIRE WIRE - 1 5800000
7727515 2021-Jul-29 05:47:17 z2wbg.wam EARTH FIRE LAVA LAVA - 1 100000
7727486 2021-Jul-29 05:45:46 ha3rc.wam PLANT RAIN WIRE WIRE - 1 5800000
7726628 2021-Jul-29 04:59:28 xf3ay.wam FIRE SEED WATER WHEAT - 1 2050000
7724889 2021-Jul-29 03:31:45 fh5b2.wam POT SEED SUN WIRE - 1 6280000
7724575 2021-Jul-29 03:22:36 amauw.wam BULB CALCLTR PAPER PENCIL - 1 15130000
7723228 2021-Jul-29 02:28:23 1puqy.wam HAMMER METAL MUSIC SOUND - 1 17170000
7713694 2021-Jul-28 22:10:10 ip43m.wam FIRE SAND SAND STONE - 1 1030000
7713067 2021-Jul-28 21:55:20 evqum.wam EARTH EARTH ELECTRC ELECTRC - 1 2860000
7712629 2021-Jul-28 21:44:31 evqum.wam EARTH PLANT POT WATER - 1 1840000
7710818 2021-Jul-28 21:15:37 evqum.wam MUD PLANT SUN WIRE - 1 3610000
7710788 2021-Jul-28 21:15:13 l2ueo.wam BOTTLE GRAPE GRAPE TIME - 1 11830000
7709304 2021-Jul-28 20:45:29 q4zbq.wam PLANT SEED WIRE WIRE - 1 6970000
7709249 2021-Jul-28 20:44:08 4umrg.wam FROST SEED TIME WIRE - 1 9130000
7708055 2021-Jul-28 20:16:00 rrcb4.wam AIR AIR DUST EARTH - 1 70000
7706692 2021-Jul-28 19:42:28 chfuc.wam EARTH FIRE FIRE SAND - 1 490000
7706590 2021-Jul-28 19:40:07 psueg.wam SEED SEED TREE WIRE - 1 6010000
7706096 2021-Jul-28 19:32:37 chfuc.wam EARTH EARTH EARTH SAND - 1 490000
7706094 2021-Jul-28 19:32:36 psueg.wam SEED TREE WIRE WIRE - 1 7600000
7706042 2021-Jul-28 19:31:57 psueg.wam SEED TREE TREE WIRE - 1 5590000
7706017 2021-Jul-28 19:31:44 chfuc.wam FIRE SAND STONE STONE - 1 670000
7705965 2021-Jul-28 19:31:09 chfuc.wam COAL COAL PRESS SAND - 1 1060000
7705931 2021-Jul-28 19:30:37 chfuc.wam COAL EARTH HEAT SAND - 1 790000
7705817 2021-Jul-28 19:29:01 chfuc.wam EARTH HEAT SAND STONE - 1 610000
7705656 2021-Jul-28 19:26:59 chfuc.wam FIRE PRESS SAND STONE - 1 610000
7704679 2021-Jul-28 19:13:28 helphycrypto CANABIS SUN SUN WIRE - 1 5410000
7704609 2021-Jul-28 19:12:44 eomqw.wam FLOOD PLANT SEED WATER - 1 1540000
7703993 2021-Jul-28 19:04:50 eomqw.wam FLOOD PLANT SUN SUN - 1 1540000
7703770 2021-Jul-28 19:00:52 eomqw.wam PLANT RIVER SUN WATER - 1 1810000
7703377 2021-Jul-28 18:55:46 eomqw.wam PLANT RIVER SUN SUN - 1 2410000
7702829 2021-Jul-28 18:41:20 yhgb4.wam CANABIS PEAT SUN WIRE - 1 6070000
7702510 2021-Jul-28 18:33:31 o2abo.wam EARTH ELECTRC ELECTRC GRPHITE - 1 3190000
7702437 2021-Jul-28 18:30:27 ijar.wam DRUM STEEL STEEL STOOL - 1 11500000
7702392 2021-Jul-28 18:29:45 mbwr.wam AIR EARTH STORM WATER - 1 760000
7701565 2021-Jul-28 18:15:30 y2jbc.wam AIR DUST ENERGY SEA - 1 130000
7694547 2021-Jul-28 16:21:30 tomtomtomtom SEED STRING SUN WALL - 1 7420000
7694501 2021-Jul-28 16:19:56 smcbm.wam BACTERI EARTH VULCANO WATER - 1 1090000
7694187 2021-Jul-28 16:09:55 ciwai.wam EARTH FIRE PRESS SAND - 2 520000
7693897 2021-Jul-28 15:58:55 uw2be.wam ATMSPHE DUST PRESS PRESS - 1 250000
7693889 2021-Jul-28 15:58:31 uw2be.wam ATMSPHE DUST DUST PRESS - 1 250000
7693880 2021-Jul-28 15:58:05 uw2be.wam ATMSPHE DUST PRESS STONE - 1 310000
7693867 2021-Jul-28 15:57:02 bhwqy.wam HILL RAIN SEED WIRE - 1 5470000
7693726 2021-Jul-28 15:48:05 uw2be.wam ATMSPHE PRESS PRESS STONE - 1 310000
7693294 2021-Jul-28 15:27:42 doranimosez1 CLAY HEAT MUD SODA - 1 2500000
7687157 2021-Jul-28 11:06:58 1puqy.wam CLAY ELECTRC LIMSTON SODA - 1 8620000
7686323 2021-Jul-28 10:48:12 cvctk.wam EARTH EARTH ENERGY FIRE - 1 70000
7685968 2021-Jul-28 10:36:51 4vibe.wam RIVER SEED STRING SUN - 1 8110000
7685526 2021-Jul-28 10:24:20 itchylampost SUN TREE WIRE WIRE - 1 7000000
7683645 2021-Jul-28 09:21:04 1puqy.wam BOOK CALCLTR PAPER PENCIL - 1 18280000
7683507 2021-Jul-28 09:17:01 wevbe.wam EARTH RAIN SUN WHEAT - 1 1480000
7683196 2021-Jul-28 09:08:18 psueg.wam SEED STRING SUN WIRE - 1 9880000
7682533 2021-Jul-28 08:51:55 psueg.wam ENERGY PLANT STRING SUN - 1 6070000
7682453 2021-Jul-28 08:48:38 psueg.wam PLANT STRING SUN SUN - 1 6640000
7681967 2021-Jul-28 08:40:00 psueg.wam MUD PLANT STRING SUN - 1 6070000
7681661 2021-Jul-28 08:32:51 osiqw.wam CANABIS SEED STRING SUN - 1 8470000
7681653 2021-Jul-28 08:32:37 osiqw.wam CANABIS SEED SUN WIRE - 1 6010000
7680164 2021-Jul-28 08:03:34 psueg.wam SEED STRING SUN SUN - 1 7690000
7677083 2021-Jul-28 06:30:35 psueg.wam SEED SEED SUN WIRE - 1 5830000
7675919 2021-Jul-28 05:53:35 psueg.wam SEED SEED STRING SUN - 1 8290000
7675440 2021-Jul-28 05:42:15 psueg.wam MUD SEED STRING SUN - 1 7120000
7674704 2021-Jul-28 05:22:20 psueg.wam BUILDNG BUILDNG MUSIC TEQUILA - 1 31420000
7672679 2021-Jul-28 04:47:45 otydy.wam ALCOHOL GRAPE GRAPE TIME - 1 11470000
7672474 2021-Jul-28 04:45:13 otydy.wam ALCOHOL ALCOHOL GRAPE TIME - 1 8380000
7672113 2021-Jul-28 04:37:52 otydy.wam MUSIC SOUND SOUND STEEL - 1 15370000
7670940 2021-Jul-28 04:07:03 psueg.wam ALCOHOL BUILDNG MUSIC MUSIC - 1 34240000
7670621 2021-Jul-28 03:56:43 g2cbe.wam CANABIS RAIN SEED WIRE - 1 5440000
7669913 2021-Jul-28 03:40:07 g2cbe.wam CANABIS SEED WATER WIRE - 1 5410000
7669807 2021-Jul-28 03:37:30 3mirk.wam ELECTRC ELECTRC METAL METAL - 1 4180000
7669800 2021-Jul-28 03:37:23 u2dbc.wam LAVA LAVA METAL METAL - 1 1420000
7668399 2021-Jul-28 02:55:44 noqaw.wam ENERGY SEED STRING SUN - 1 7120000
7668104 2021-Jul-28 02:45:12 eomqw.wam EARTH HEAT PLANT RIVER - 1 1240000
7667198 2021-Jul-28 02:20:18 eomqw.wam AIR MUD SEED SUN - 1 1870000
7667177 2021-Jul-28 02:19:37 eomqw.wam AIR SEED SUN SWAMP - 1 2080000
7667025 2021-Jul-28 02:15:40 eomqw.wam AIR FLOOD SEED SUN - 1 1990000
7666935 2021-Jul-28 02:14:26 eomqw.wam AIR RIVER SEED SUN - 1 2860000
7665253 2021-Jul-28 01:15:32 22mr2.wam AIR LAVA LAVA VULCANO - 1 580000
7665100 2021-Jul-28 01:12:08 22mr2.wam AIR GEYSER LAVA VULCANO - 1 730000
7660461 2021-Jul-27 23:54:41 psueg.wam ALCOHOL ATMSPHE BUILDNG MUSIC - 1 21610000
7659759 2021-Jul-27 23:44:26 psueg.wam ALCOHOL BUILDNG MUSIC SODA - 1 23260000
7657960 2021-Jul-27 23:19:01 sanbw.wam AIR EARTH RAIN STEAM - 1 100000
7653411 2021-Jul-27 21:54:32 .2frc.wam HILL SEED SEED SEED - 1 5050000
7652323 2021-Jul-27 21:37:53 ip43m.wam EARTH PLANT STRING WATER - 1 5440000
7649040 2021-Jul-27 20:44:54 hpirm.wam CANABIS SEED SEED SEED - 1 5020000
7646745 2021-Jul-27 19:26:30 ip43m.wam EARTH EARTH SEED WATER - 1 1240000
7646078 2021-Jul-27 18:51:19 o25bk.wam DESERT EARTH PRESS SAND - 1 3070000
7645023 2021-Jul-27 18:22:25 t5qb2.wam LIBRARY LIFE TIME TIME - 1 39580000
7638361 2021-Jul-27 16:01:03 amauw.wam EARTH RAIN SEED TIME - 1 5980000
7633591 2021-Jul-27 14:20:30 q.uqy.wam BOILER HEAT SODA WATER - 1 2590000
7632009 2021-Jul-27 13:43:02 s4leo.wam LAVA MNTAIN WIND WIND - 1 940000
7631534 2021-Jul-27 13:33:30 xv.bg.wam LAVA LAVA MNTAIN WIND - 1 850000
7631357 2021-Jul-27 13:30:03 n.2rg.wam AIR LAVA LAVA MNTAIN - 1 730000
7626533 2021-Jul-27 11:27:56 s.xr4.wam HEAT MNTAIN MUD PRESS - 1 760000
7625795 2021-Jul-27 11:06:40 pdss2.wam PRESS PRESS SODA SODA - 1 3640000
7624236 2021-Jul-27 10:37:06 daveeeeeelee LIBRARY LIFE LIFE LIFE - 1 30700000
7623650 2021-Jul-27 10:25:38 e.lbi.wam ALARM PAINTNG PAPER PENCIL - 1 24100000
7623640 2021-Jul-27 10:25:19 qgiuq.wam CLAY ELECTRC ELECTRC GRPHITE - 1 3820000
7623320 2021-Jul-27 10:17:38 t5qb2.wam LIBRARY LIFE LIFE TIME - 1 35140000
7621410 2021-Jul-27 09:43:51 hgfqq.wam ALCOHOL BUILDNG ELECTRC MUSIC - 1 22900000
7620265 2021-Jul-27 09:25:18 o2abo.wam EARTH ELECTRC GRPHITE HEAT - 1 1810000
7619986 2021-Jul-27 09:21:09 psueg.wam ALCOHOL BUILDNG BUILDNG MUSIC - 1 30010000
7612363 2021-Jul-27 08:27:22 5nab.wam EARTH EARTH GARBAGE STEAM - 1 100000
7600740 2021-Jul-27 07:52:48 p4lqm.wam BUILDNG BUILDNG MUSIC MUSIC - 1 42580000
7593673 2021-Jul-27 07:37:37 o2abo.wam EARTH ELECTRC HEAT HEAT - 1 1510000
7593062 2021-Jul-27 07:36:23 rkhb4.wam AIR AIR PRESS STEAM - 1 100000
7564090 2021-Jul-27 06:29:53 zbgb2.wam PLANT STRING SUN WIRE - 1 8830000
7560604 2021-Jul-27 06:08:47 ivguk.wam PEAT PEAT PEAT SEED - 1 5020000
7543747 2021-Jul-27 05:01:44 budr.wam DUST DUST DUST ENERGY - 1 160000
7541855 2021-Jul-27 04:56:45 1puqy.wam CALCLTR LIBRARY PAPER PENCIL - 1 41740000
7452847 2021-Jul-27 03:22:09 e.lbi.wam BOOK LIBRARY LIFE TIME - 1 41260000
7433444 2021-Jul-27 03:05:02 kdoqy.wam BOOK BOOK BUILDNG BUILDNG LIBRARY 605 29860000
7432753 2021-Jul-27 02:31:21 t5qb2.wam BOOK BUILDNG ELECTRC STOOL - 1 21520000
7432555 2021-Jul-27 02:25:09 t5qb2.wam BOOK BUILDNG ELECTRC TREE - 1 17140000
7430972 2021-Jul-27 01:19:49 znrrw.wam BATTERY METAL PLASTIC SMOKE - 1 6520000
7430197 2021-Jul-27 01:06:36 fikd.wam PLANT RAIN SEED STRING - 1 6670000
7428843 2021-Jul-27 00:36:48 p4lqm.wam BOOK BOOK BUILDNG ELECTRC - 1 22750000
7428583 2021-Jul-27 00:31:02 fikd.wam EARTH PLANT SEED STRING - 1 6640000
7428541 2021-Jul-27 00:29:50 psueg.wam BOOK BOOK BUILDNG GLASSES - 1 23230000
7428491 2021-Jul-27 00:28:51 p4lqm.wam BOOK BOOK BUILDNG CABLE - 1 24460000
7427750 2021-Jul-27 00:11:11 cv4am.wam BOOK BOOK BUILDNG TIME - 1 26050000
7426786 2021-Jul-26 23:53:06 22mr2.wam EARTH HILL SEED WIRE - 1 5440000
7425963 2021-Jul-26 23:26:49 pkuuc.wam BATTERY PLASTIC SMOKE TNPLT - 1 6640000
7421843 2021-Jul-26 21:12:34 g2cbe.wam BOOK BOOK BUILDNG DUST - 1 21370000
7420653 2021-Jul-26 20:41:51 ip43m.wam BATTERY GLASS METAL PLASTIC - 1 6670000
7419389 2021-Jul-26 20:19:32 234rg.wam AIR GARBAGE GARBAGE RAIN - 1 130000
7415520 2021-Jul-26 19:18:37 rplanetdevil BOOK BUILDNG DUST PAPER - 1 15340000
7414363 2021-Jul-26 18:49:54 smcbm.wam EARTH LAVA VULCANO WATER - 1 550000
7413859 2021-Jul-26 18:38:27 3jfrm.wam BOOK BUILDNG GLASS TREE - 1 16210000
7413569 2021-Jul-26 18:30:44 amauw.wam CRUDE CRUDE CRUDE HEAT - 1 3040000
7413250 2021-Jul-26 18:23:29 t5qb2.wam BOOK BUILDNG STOOL TREE - 1 20890000
7412969 2021-Jul-26 18:18:31 eodr4.wam EARTH EARTH OCEAN SKY - 1 760000
7412290 2021-Jul-26 18:07:13 jtue2.wam BATTERY METAL OIL PLASTIC - 1 10960000
7411517 2021-Jul-26 17:53:11 smcbm.wam EARTH PICKAX VULCANO WATER - 1 2800000
7407767 2021-Jul-26 16:34:17 juzfc.wam DUST EARTH GARBAGE WATER - 1 100000
7407588 2021-Jul-26 16:31:56 s4leo.wam EARTH MOSS SEED WATER - 1 1510000
7407256 2021-Jul-26 16:28:10 4jube.wam BUILDNG MUSIC TEQUILA WHISKEY - 1 27070000
7405650 2021-Jul-26 16:08:16 bwob2.wam EARTH PLANT RAIN STRING - 1 5470000
7405593 2021-Jul-26 16:07:42 bwob2.wam EARTH RAIN SEED STRING - 1 6520000
7402868 2021-Jul-26 15:32:22 gnsba.wam BOOK BUILDNG CALCLTR PENCIL - 1 26440000
7397422 2021-Jul-26 14:38:31 rpiay.wam COAL EARTH METAL WATER - 1 970000
7395383 2021-Jul-26 14:23:19 mzgc4.wam BOOK BOOK BUILDNG STOOL - 1 26500000
7395021 2021-Jul-26 14:19:04 otydy.wam BOOK BUILDNG PAPER TREE - 1 16090000
7394177 2021-Jul-26 14:12:38 bhwqy.wam HILL SEED TREE WIRE - 1 6220000
7393912 2021-Jul-26 14:10:40 lkeb2.wam DESERT HORIZON MNTAIN OCEAN - 1 4900000
7392371 2021-Jul-26 13:59:48 lkeb2.wam ATMSPHE DESERT MNTAIN OCEAN - 1 3490000
7391772 2021-Jul-26 13:55:00 otydy.wam BOOK BUILDNG TREE TREE - 1 16510000
7383218 2021-Jul-26 13:05:00 e1nu.wam BOOK BUILDNG PAPER PAPER - 1 15670000
7379521 2021-Jul-26 12:47:23 t5qb2.wam BOOK BUILDNG CALCLTR TREE - 1 21940000
7375879 2021-Jul-26 12:35:21 jooam.waa CABLE PEAT SEED SUN - 1 6220000
7375165 2021-Jul-26 12:33:14 psueg.wam BOOK BOOK BUILDNG PENCIL - 1 26620000
7372909 2021-Jul-26 12:26:27 1puqy.wam BOOK BOOK BUILDNG PAPER - 1 21700000
7372807 2021-Jul-26 12:26:10 t5qb2.wam BOOK BOOK BUILDNG CALCLTR - 1 27550000
7353614 2021-Jul-26 11:51:43 xqjam.wam BOOK BOOK BUILDNG TREE - 1 22120000
7350364 2021-Jul-26 11:46:39 nx5di.wam BOOK BUILDNG PAPER PENCIL - 1 20590000
7335404 2021-Jul-26 11:31:06 t5qb2.wam BOOK BOOK BUILDNG FLAG - 1 30850000
7334978 2021-Jul-26 11:30:56 3vdc4.wam BRICK CEMENT TILING WALL - 2 7960000
7332484 2021-Jul-26 11:29:52 5w.be.wam BRICK BUILDNG TILING WALL - 1 10330000
7330569 2021-Jul-26 11:29:01 otydy.wam BOOK BOOK BOOK BUILDNG - 5 27730000
7330366 2021-Jul-26 11:28:55 tbqqw.wam BRICK CONCRTE WALL WALL - 2 7510000
7327031 2021-Jul-26 11:26:22 yhgb4.wam BRICK CONCRTE TILING WALL BUILDNG 1579 8530000
7326483 2021-Jul-26 11:25:20 yhera.wam BLOCK CONCRTE STEEL TILING - 1 9820000
7326423 2021-Jul-26 11:25:14 vaaaaaaaaaan CONCRTE GLASS TILING TREE - 1 9370000
7325386 2021-Jul-26 11:23:25 2tmay.wam CONCRTE TREE WALL WALL - 1 8200000
7324158 2021-Jul-26 11:21:27 4umrg.wam CONCRTE TILING TILING WALL - 1 9790000
7324005 2021-Jul-26 11:21:14 yhgb4.wam CONCRTE METAL TILING WALL - 1 9100000
7323307 2021-Jul-26 11:20:17 vaaaaaaaaaan CONCRTE PAINT TILING WALL - 1 11230000
7322984 2021-Jul-26 11:19:50 zl.rg.wam BRICK CONCRTE STEEL TILING - 1 9160000
7315505 2021-Jul-26 11:09:50 t5qb2.wam CONCRTE METAL TILING TREE - 1 9550000
7314691 2021-Jul-26 11:08:49 yhera.wam BLOCK CONCRTE GLASS TILING - 1 9340000
7309029 2021-Jul-26 11:02:22 ccpay.wam BLOCK CONCRTE TILING WALL - 1 9190000
7306699 2021-Jul-26 10:59:47 xqjam.wam CONCRTE TILING TREE WALL - 2 9220000
7304875 2021-Jul-26 10:57:28 n.jui.wam CONCRTE STEEL TILING WALL - 1 9400000
7303649 2021-Jul-26 10:55:59 5m1qw.wam CONCRTE ELECTRC TILING WALL - 1 9850000
7302669 2021-Jul-26 10:54:51 t5qb2.wam CONCRTE TILING TREE TREE - 1 9670000
7298610 2021-Jul-26 10:50:17 otydy.wam CEMENT CONCRTE TILING WALL - 1 14590000
7298522 2021-Jul-26 10:50:11 he4ra.wam CONCRTE TILING WALL WALL - 3 8770000
7289105 2021-Jul-26 10:46:06 s5osq.wam CONCRTE GLASS TILING WALL - 5 8920000
7287050 2021-Jul-26 10:45:15 nf5cs.wam CEMENT STONE STONE WATER - 1 6370000
7286175 2021-Jul-26 10:44:55 vm5ay.wam CLAY CLAY EARTHQ STONE - 1 1480000
7278978 2021-Jul-26 10:41:31 aljqy.wam CEMENT METAL SAND WATER - 1 7300000
7278576 2021-Jul-26 10:41:15 5o1b2.wam CEMENT SAND STONE WATER CONCRTE 1660 6730000
7276775 2021-Jul-26 10:38:50 psueg.wam CLAY CLAY LIMSTON STONE CEMENT 1692 6160000
7276594 2021-Jul-26 10:37:39 t5qb2.wam DUST FIRE LIMSTON LIMSTON - 1 9610000
7276484 2021-Jul-26 10:36:50 t5qb2.wam COAL EARTH LIMSTON LIMSTON - 1 9850000
7276286 2021-Jul-26 10:35:05 t5qb2.wam COAL HEAT LIMSTON LIMSTON - 1 9880000
7275908 2021-Jul-26 10:32:29 t5qb2.wam EARTH LIMSTON LIMSTON PRESS - 1 9610000
7275242 2021-Jul-26 10:27:14 t5qb2.wam COAL FIRE LIMSTON LIMSTON - 1 9850000
7274329 2021-Jul-26 10:19:20 lanse.wam CLAY CLAY LIMSTON PAPER - 1 6430000
7272331 2021-Jul-26 10:06:10 xtyb4.wam LIMSTON MUD MUD PRESS - 1 4900000
7271601 2021-Jul-26 10:01:42 ry4qy.wam LIMSTON SAND STONE STONE - 1 5440000
7271367 2021-Jul-26 10:00:21 ivguk.wam CLAY HEAT LIMSTON RUST - 1 6160000
7271094 2021-Jul-26 09:58:34 tokb2.wam CANABIS KNIFE PLANT SUN - 1 5980000
7270724 2021-Jul-26 09:55:47 ohlqy.wam CLAY LAVA LAVA LIMSTON - 1 5500000
7270657 2021-Jul-26 09:55:12 5j3r4.wam ASH ASH HEAT LIMSTON - 1 6040000
7270113 2021-Jul-26 09:50:17 vaaaaaaaaaan ASH LIMSTON PRESS PRESS - 1 5470000
7269814 2021-Jul-26 09:45:25 xf5ra.wam EARTH EARTH LIMSTON METAL - 1 5470000
7269577 2021-Jul-26 09:26:45 5j3r4.wam ASH FIRE FIRE LIMSTON - 1 5410000
7269400 2021-Jul-26 09:04:55 5j3r4.wam ASH HEAT LIMSTON MUD - 1 5470000
7269371 2021-Jul-26 08:55:07 ivguk.wam ASH CLAY METAL SAND - 1 2380000
7269187 2021-Jul-26 08:34:37 ivguk.wam ASH CLAY ENERGY SAND - 1 1750000
7269018 2021-Jul-26 08:16:38 ivguk.wam ASH CLAY FIRE SAND - 1 1720000
7268991 2021-Jul-26 08:13:07 soxqw.wam FIRE GARBAGE GARBAGE SEA - 1 130000
7268943 2021-Jul-26 08:05:38 4ppri.wam FIRE GARBAGE SEA WATER - 1 100000
7267618 2021-Jul-26 05:43:49 4umrg.wam PLANT SHIT SUN WIRE - 1 8980000
7267615 2021-Jul-26 05:42:23 4umrg.wam EARTH FIRE LIMSTON WATER - 1 4810000
7267573 2021-Jul-26 05:35:15 pvir.wam HILL SEED STRING SUN - 1 8500000
7265775 2021-Jul-26 02:13:25 1puqy.wam DUST EARTH LIMSTON LIMSTON - 1 9610000
7265636 2021-Jul-26 01:32:11 1vvuc.wam LIMSTON METAL SAND STONE - 1 6010000
7265567 2021-Jul-26 01:27:00 1puqy.wam ENERGY PLANT SUN SUN - 1 1420000
7265528 2021-Jul-26 01:21:16 1puqy.wam EARTH SEED WIRE WIRE - 1 6820000
7265514 2021-Jul-26 01:18:37 1puqy.wam RAIN SEED WIRE WIRE - 1 6850000
7265501 2021-Jul-26 01:16:10 1puqy.wam PLANT SEED STRING SUN - 1 7240000
7265390 2021-Jul-26 01:03:11 1vvuc.wam CLAY LIMSTON METAL STONE - 1 6190000
7265358 2021-Jul-26 00:59:58 ojub2.wam ASH EARTH HEAT LIMSTON - 1 5440000
7265348 2021-Jul-26 00:57:13 drk2liteacct DUST LIMSTON PAPER PRESS - 1 5230000
7265079 2021-Jul-26 00:43:46 ojub2.wam EARTH LIMSTON MUD PRESS - 1 4870000
7264550 2021-Jul-26 00:19:35 t2itm.wam FIRE FIRE FIRE STEAM - 1 70000
7263646 2021-Jul-25 23:54:25 ojub2.wam CLAY ENERGY LIMSTON METAL - 1 6130000
7263291 2021-Jul-25 23:45:07 4umrg.wam BOILER CLAY LIMSTON MUD - 1 6220000
7263209 2021-Jul-25 23:42:01 t5qb2.wam COAL EARTH FIRE LIMSTON - 1 5080000
7263203 2021-Jul-25 23:41:49 ydnuk.wam ELECTRC ENERGY WAVE WAVE - 1 2260000
7262635 2021-Jul-25 23:22:09 wmgb4.wam AIR BRICK EARTH SEA - 1 160000
7262459 2021-Jul-25 23:16:40 yvfra.wam LIMSTON MUD MUD STONE - 1 4960000
7262444 2021-Jul-25 23:16:08 yvfra.wam HEAT LIMSTON MUD STONE - 1 4960000
7262380 2021-Jul-25 23:14:26 mxgu4.wam CLAY ENERGY FIRE LIMSTON - 1 5470000
7262358 2021-Jul-25 23:13:36 4umrg.wam AIR PICKAX STEAM VULCANO - 1 2830000
7262217 2021-Jul-25 23:08:11 jppr2.wam FIRE FIRE LIMSTON STONE - 1 4900000
7262149 2021-Jul-25 23:04:29 chfuc.wam FIRE LIMSTON MUD MUD - 1 4870000
7262132 2021-Jul-25 23:03:27 rekowaxbrave HEAT HEAT LIMSTON STONE - 1 4960000
7261902 2021-Jul-25 22:27:32 ggnb4.wam HEAT LIMSTON OBSIDIN PRESS - 1 4990000
7261418 2021-Jul-25 21:42:21 4umrg.wam AIR HEAT PRESS STEAM - 1 130000
7261227 2021-Jul-25 21:21:05 t5qb2.wam MUD PLANT WIRE WIRE - 1 5800000
7260678 2021-Jul-25 20:36:55 iybcc.wam LIMSTON MUD PRESS PRESS - 1 4900000
7260336 2021-Jul-25 20:21:20 jlybc.wam BOILER FIRE FIRE LIMSTON - 1 5560000
7260136 2021-Jul-25 20:10:03 epzcm.wam HEAT LIMSTON PAPER SAND - 1 5650000
7259815 2021-Jul-25 19:53:20 hgfqq.wam HEAT LIMSTON PAPER PRESS - 1 5230000
7259187 2021-Jul-25 19:08:53 drk2liteacct GRASS KNIFE MUD PRESS - 1 4150000
7258795 2021-Jul-25 18:26:28 q4zbq.wam CLAY ELECTRC HEAT LIMSTON - 1 6880000
7258709 2021-Jul-25 18:16:54 gilhodlwaxxy EARTH ELECTRC HEAT MUD - 1 1510000
7258695 2021-Jul-25 18:16:29 gilhodlwaxxy EARTH ELECTRC FIRE MUD - 1 1480000
7258549 2021-Jul-25 18:09:24 cjeqw.wam CANABIS CANABIS CANABIS CANABIS - 1 5560000
7258339 2021-Jul-25 17:47:55 1lwqw.wam EARTH EARTH METAL METAL - 1 1360000
7257890 2021-Jul-25 17:07:04 gino.gm HAMMER HAMMER HEAT STEEL - 1 6850000
7257192 2021-Jul-25 16:48:47 qz2qw.wam CLAY HEAT LIMSTON STEAM - 1 5500000
7257097 2021-Jul-25 16:47:20 v51ro.wam GARBAGE HEAT PRESS SODA - 1 1900000
7256459 2021-Jul-25 16:35:51 4nkr.wam FIRE HEAT HEAT LIMSTON - 1 4870000
7256311 2021-Jul-25 16:32:24 owfqy.wam CLAY EARTH LIMSTON STONE - 1 5530000
7256286 2021-Jul-25 16:31:26 5w.be.wam HEAT LIMSTON MUD MUD - 1 4900000
7256267 2021-Jul-25 16:30:51 doranimosez1 FIRE LIMSTON MUD STONE - 1 4930000
7256236 2021-Jul-25 16:29:15 czzbc.wam FIRE LIMSTON SAND STONE - 1 5350000
7256178 2021-Jul-25 16:27:08 kashnakduath FIRE LIMSTON SAND SAND - 1 5710000
7255083 2021-Jul-25 15:41:29 c4.r4.wam DUST DUST HEAT LIMSTON - 1 4900000
7255013 2021-Jul-25 15:29:58 1uobi.wam GAS GAS PRESS VULCANO - 1 2350000
7255011 2021-Jul-25 15:29:00 1uobi.wam GAS PRESS PRESS VULCANO - 1 1480000
7255010 2021-Jul-25 15:28:04 1uobi.wam GAS HEAT PRESS VULCANO - 1 1480000
7254588 2021-Jul-25 14:40:44 uvrtc.wam ATOM ENERGY HEAT VACUUM - 1 4300000
7254337 2021-Jul-25 14:13:34 1puqy.wam CLAY DUST ENERGY LIMSTON - 1 5500000
7254064 2021-Jul-25 13:10:27 vowre.wam CLAY LIMSTON SAND VULCANO - 1 6370000
7254051 2021-Jul-25 13:08:20 iyuca.wam ASH LIMSTON METAL MUD - 1 6100000
7253592 2021-Jul-25 11:25:27 3c2b4.wam COAL HEAT LIMSTON STONE - 1 5200000
7253257 2021-Jul-25 10:39:47 helphycrypto FIRE METAL PRESS STONE - 1 820000
7253220 2021-Jul-25 10:37:20 v4.bc.wam CLAY FIRE TREE WATER - 1 1450000
7253106 2021-Jul-25 10:26:14 bhwqy.wam COAL ELECTRC GRPHITE HEAT - 1 2080000
7253080 2021-Jul-25 10:15:03 bhwqy.wam FIRE METAL METAL STONE - 1 1450000
7252936 2021-Jul-25 10:03:11 mzgc4.wam PEAT SEED SUN WIRE - 1 5890000
7251814 2021-Jul-25 09:00:54 x4pra.wam ASH FIRE LIMSTON WATER - 1 5410000
7250937 2021-Jul-25 08:03:25 gnsba.wam AIR FIRE LIMSTON PRESS - 1 4840000
7250764 2021-Jul-25 07:43:04 t5qb2.wam PLANT WATER WIRE WIRE - 1 5770000
7249255 2021-Jul-25 04:50:31 wtnr.wam AIR DUST GARBAGE HEAT - 1 130000
7248759 2021-Jul-25 04:05:37 tflb.wam ASH CLAY COAL LIMSTON - 1 6310000
7248238 2021-Jul-25 02:47:43 gqzr.wam AIR EARTH EARTH STEAM - 1 70000
7248159 2021-Jul-25 02:32:01 dpzbs.wam CANABIS HILL PLANT WIRE - 1 5770000
7247077 2021-Jul-25 00:27:06 g2cbe.wam FIRE FIRE LIMSTON MUD - 1 4840000
7247073 2021-Jul-25 00:26:50 g2cbe.wam FIRE LIMSTON MUD PRESS - 1 4870000
7246938 2021-Jul-25 00:15:38 dn3rg.wam PEAT PLANT STRING SUN - 1 7300000
7246909 2021-Jul-25 00:14:15 dzdba.wam AIR AIR HEAT PRESS - 1 100000
7246206 2021-Jul-24 23:32:08 t5qb2.wam EARTH PLANT WIRE WIRE - 1 5770000
7246106 2021-Jul-24 23:28:49 ei3bg.wam AIR AIR STEAM WATER - 1 70000
7245286 2021-Jul-24 22:45:00 psueg.wam EARTH EARTH LIMSTON SAND - 1 5260000
7245023 2021-Jul-24 22:35:48 p4lqm.wam ALCOHOL PLANT STRING SUN - 1 6220000
7244941 2021-Jul-24 22:32:39 psueg.wam HEAT LIMSTON STONE WATER - 1 4930000
7244899 2021-Jul-24 22:29:44 cloay.wam HILL SEED SUN WIRE - 1 6040000
7244168 2021-Jul-24 21:51:19 1puqy.wam SEED STRING SUN WATER - 1 7090000
7243505 2021-Jul-24 21:14:58 fh5b2.wam CANABIS POT SEED SEED - 1 5470000
7243404 2021-Jul-24 21:06:39 cabba.wam LIMSTON STONE STONE STONE - 1 5080000
7243378 2021-Jul-24 21:04:53 1puqy.wam EARTH SEED STRING SUN - 1 7090000
7242076 2021-Jul-24 19:49:02 ywdvm.wam AIR MUD MUD WATER - 1 100000
7239658 2021-Jul-24 18:06:53 oegr2.wam FIRE LIMSTON STONE STONE - 1 4990000
7239359 2021-Jul-24 17:51:47 addbi.wam CANABIS CANABIS SEED SEED - 1 5200000
7239328 2021-Jul-24 17:47:18 4umrg.wam CLAY HEAT KETTLE LIMSTON - 1 7600000
7239029 2021-Jul-24 17:33:23 5j3r4.wam CANABIS EARTH STRING SUN - 1 7270000
7238932 2021-Jul-24 17:30:56 3jpqw.wam SEED SUN WIRE WIRE - 1 7420000
7238896 2021-Jul-24 17:30:02 dpzbs.wam CANABIS PLANT SEED WIRE - 1 5560000
7236776 2021-Jul-24 16:47:47 uw2be.wam EARTH EARTH EARTH STEEL - 1 1000000
7233341 2021-Jul-24 15:11:37 guwr2.wam ATMCBMB GRENADE GRENADE OCEAN - 1 6010000
7233333 2021-Jul-24 15:11:19 guwr2.wam HEAT PLASMA SEAWEED TREE - 1 2950000
7233266 2021-Jul-24 15:08:46 h4lra.wam FIRE LIMSTON MUD SAND - 1 5290000
7233264 2021-Jul-24 15:08:44 tqit.wam HEAT HEAT LIMSTON MUD - 1 4900000
7233233 2021-Jul-24 15:07:46 guwr2.wam HURRCAN HURRCAN HURRCAN HURRCAN - 1 2080000
7233201 2021-Jul-24 15:06:52 guwr2.wam CRUDE GRPHITE SAND TREE - 1 2590000
7232503 2021-Jul-24 14:30:19 eurss.wam ASH CLAY FIRE WATER - 1 1270000
7232483 2021-Jul-24 14:28:22 ve.sq.wam ASH CLAY FIRE PRESS - 1 1300000
7231464 2021-Jul-24 12:49:48 me1r.wam DUST LAVA RAIN SEA - 1 160000
7231104 2021-Jul-24 12:29:29 jlaqw.wam AIR AIR LAVA RAIN - 1 100000
7230113 2021-Jul-24 11:24:53 5akba.wam LIMSTON PRESS PRESS WATER - 1 4870000
7230096 2021-Jul-24 11:23:43 5akba.wam FIRE LIMSTON PRESS WATER - 1 4840000
7229804 2021-Jul-24 10:42:34 x2rba.wam CLAY LIMSTON METAL WATER - 1 6100000
7229418 2021-Jul-24 09:30:42 3jfrm.wam ASH BRICK CLAY LIMSTON - 1 6130000
7229175 2021-Jul-24 08:58:07 iybcc.wam HEAT LIMSTON MUD PRESS - 1 4900000
7227438 2021-Jul-24 06:22:30 r4sra.wam DEW EARTH SEED SUN - 1 2470000
7226762 2021-Jul-24 05:41:05 trqra.wam CARROT GARBAGE WATER WATER - 1 280000
7226294 2021-Jul-24 05:13:04 rplanetdevil DRUM SOUND SOUND STOOL - 1 11200000
7226105 2021-Jul-24 05:04:25 1puqy.wam ENERGY ENERGY LIMSTON PRESS - 1 4900000
7225978 2021-Jul-24 04:59:37 1puqy.wam FIRE LIMSTON LIMSTON PRESS - 1 9610000
7224800 2021-Jul-24 04:23:44 4umrg.wam CLAY COAL COAL LIMSTON - 1 5980000
7224774 2021-Jul-24 04:22:38 4umrg.wam CLAY COAL LIMSTON MUD - 1 5740000
7224347 2021-Jul-24 03:48:13 g3frg.wam CLAY CLAY EARTH LIMSTON - 1 6070000
7224210 2021-Jul-24 03:14:32 unobe.wam ASH CLAY LIMSTON OBSIDIN - 1 6160000
7224193 2021-Jul-24 03:10:31 unobe.wam ASH CLAY EARTH LIMSTON - 1 6040000
7224128 2021-Jul-24 03:03:13 unobe.wam CLAY LAVA LIMSTON SAND - 1 5920000
7223992 2021-Jul-24 02:52:56 unobe.wam CLAY LIMSTON PEAT SAND - 1 7150000
7223437 2021-Jul-24 02:34:30 addbi.wam GAS OCEAN OXYGEN VULCANO - 1 4330000
7223309 2021-Jul-24 02:17:33 addbi.wam EARTH OXYGEN VULCANO WATER - 1 3280000
7223284 2021-Jul-24 02:05:11 rqhr4.wam HEAT HEAT LIMSTON WATER - 1 4870000
7222863 2021-Jul-24 01:20:09 pt.ay.wam EXPLOSN LIMSTON PAPER PRESS - 1 5500000
7222730 2021-Jul-24 01:09:59 jh3rc.wam EARTH GARBAGE HEAT WATER - 1 100000
7222658 2021-Jul-24 01:06:38 chfuc.wam COAL FIRE LIMSTON STONE - 1 5170000
7222418 2021-Jul-24 00:47:48 ydnuk.wam LIMSTON PAPER SAND STONE - 1 5710000
7222356 2021-Jul-24 00:42:15 eu.rc.wam DUST GARBAGE MUD MUD - 1 160000
7221779 2021-Jul-24 00:05:51 px4b4.wam SAND STONE TIME WATER - 1 5290000
7221516 2021-Jul-23 23:54:20 a5nbs.wam ALCOHOL BUBBLES BUBBLES GRAPE - 1 5410000
7220176 2021-Jul-23 23:09:28 cnbba.wam EARTH METAL PLANT WIRE - 1 3640000
7220003 2021-Jul-23 22:59:17 2wnru.wam DUST EARTH ENERGY GARBAGE - 1 130000
7219220 2021-Jul-23 22:34:28 jmmbc.wam BOILER BRICK HEAT LIMSTON - 1 5680000
7218863 2021-Jul-23 22:16:48 p4lqm.wam ALCOHOL PLANT SUN WIRE - 1 3760000
7218777 2021-Jul-23 22:14:53 blpsg.wam GARBAGE RAIN SEA WATER - 1 130000
7218426 2021-Jul-23 22:05:04 4nkr.wam CLAY COAL LIMSTON PAPER - 1 6070000
7218297 2021-Jul-23 22:00:23 p4lqm.wam ELECTRC METAL PRESS STONE - 1 2230000
7218249 2021-Jul-23 21:58:50 p4lqm.wam ELECTRC HEAT METAL STONE - 1 2230000
7218238 2021-Jul-23 21:58:22 1puqy.wam ASH ASH ASH LIMSTON - 1 6610000
7218220 2021-Jul-23 21:57:07 jtue2.wam EARTH HEAT LIMSTON METAL - 1 5500000
7216300 2021-Jul-23 20:33:04 22mr2.wam AIR HEAT LIMSTON PRESS - 1 4870000
7216133 2021-Jul-23 20:25:48 qa1u2.wam LAVA LAVA LAVA PICKAX - 1 2410000
7216058 2021-Jul-23 20:22:46 5uzr.wam ALCOHOL CANABIS HEAT POT - 1 3280000
7215756 2021-Jul-23 20:12:43 5f1b.wam FIRE FIRE LIMSTON PICKAX - 1 7090000
7215138 2021-Jul-23 19:53:48 cnbba.wam CANABIS EARTH PLANT SEED - 1 2770000
7214974 2021-Jul-23 19:36:40 t5qb2.wam COAL FIRE LIMSTON METAL - 1 5740000
7214853 2021-Jul-23 19:29:52 pi1bq.wam ASH HEAT LIMSTON METAL - 1 6100000
7214751 2021-Jul-23 19:24:56 rgrca.wam ASH COAL LIMSTON SAND - 1 6130000
7214731 2021-Jul-23 19:24:17 4y4qy.wam CLAY LIMSTON STONE STONE - 1 5620000
7214420 2021-Jul-23 19:14:53 4y4qy.wam EARTH LIMSTON STONE STONE - 1 4990000
7214241 2021-Jul-23 19:07:56 u55aw.wam BOILER CLAY LIMSTON STONE - 1 6280000
7213522 2021-Jul-23 18:42:37 4y4qy.wam EARTH EARTH LIMSTON STONE - 1 4900000
7213398 2021-Jul-23 18:39:42 n4jre.wam BOILER COAL PRESS STEAM - 1 1120000
7213069 2021-Jul-23 18:31:55 4y4qy.wam EARTH HEAT LIMSTON STONE - 1 4930000
7212790 2021-Jul-23 18:26:09 4y4qy.wam EARTH LIMSTON SAND STONE - 1 5350000
7212502 2021-Jul-23 18:22:14 dn3rg.wam FIRE LIMSTON TREE TREE - 1 6370000
7212091 2021-Jul-23 18:14:27 4y4qy.wam ASH CLAY LIMSTON WATER - 1 6040000
7211628 2021-Jul-23 18:02:28 4y4qy.wam BOILER HEAT LIMSTON PRESS - 1 5620000
7211178 2021-Jul-23 17:54:11 4y4qy.wam HEAT LIMSTON PRESS SODA - 1 6640000
7210876 2021-Jul-23 17:49:35 4y4qy.wam ASH ASH LIMSTON PRESS - 1 6040000
7210635 2021-Jul-23 17:47:21 z2xr2.wam ASH BOILER LIMSTON SAND - 1 6610000
7210431 2021-Jul-23 17:44:35 4y4qy.wam CLAY LIMSTON STONE WATER - 1 5530000
7210271 2021-Jul-23 17:42:11 e1nu.wam ASH COAL FIRE LIMSTON - 1 5680000
7209094 2021-Jul-23 17:00:44 b1sqw.wam BRICK BRICK HEAT STONE - 1 340000
7208872 2021-Jul-23 16:41:59 b1sqw.wam BRICK HEAT STONE STONE - 1 340000
7207203 2021-Jul-23 15:02:54 euuec.wam CLAY LIMSTON MUD WATER - 1 5470000
7206566 2021-Jul-23 14:25:13 xf5ra.wam LIMSTON METAL MUD STONE - 1 5590000
7206036 2021-Jul-23 13:54:39 3jpqw.wam CLAY HEAT LIMSTON PLASMA - 1 6190000
7205772 2021-Jul-23 13:40:24 pfrqy.wam LIMSTON PAPER PRESS STONE - 1 5290000
7205134 2021-Jul-23 12:49:25 pfrqy.wam COAL COAL FIRE LIMSTON - 2 5350000
7204687 2021-Jul-23 12:29:44 nx5di.wam LIMSTON MUD WATER WATER - 1 4840000
7204584 2021-Jul-23 12:26:35 nx5di.wam LIMSTON PRESS SAND SAND - 1 5740000
7203893 2021-Jul-23 11:38:22 pdss2.wam ELECTRC STONE STONE WATER - 1 1630000
7203887 2021-Jul-23 11:37:31 lordpopbands LIMSTON MUD MUD MUD - 1 4900000
7203885 2021-Jul-23 11:36:40 lordpopbands EARTH EARTH FIRE LIMSTON - 1 4810000
7203420 2021-Jul-23 11:02:36 1puqy.wam ASH FIRE LIMSTON METAL - 1 6070000
7203106 2021-Jul-23 10:50:35 nx5di.wam LIMSTON WATER WATER WATER - 1 4810000
7202755 2021-Jul-23 10:35:17 l.5b2.wam DUST EARTH LIMSTON PRESS - 1 4870000
7201200 2021-Jul-23 09:29:28 5czbk.wam LIMSTON MUD SAND STONE - 1 5380000
7200867 2021-Jul-23 09:18:00 o2abo.wam EARTH EARTH HEAT LIMSTON - 1 4840000
7200407 2021-Jul-23 08:54:39 1puqy.wam FIRE LIMSTON METAL SAND - 1 5920000
7199729 2021-Jul-23 08:22:14 q.uqy.wam SODA SODA SODA SODA - 1 7120000
7199649 2021-Jul-23 08:12:55 tywrk.wam CANABIS PLANT SEED SUN - 1 3370000
7199041 2021-Jul-23 07:46:47 t5qb2.wam COAL FIRE FIRE LIMSTON - 1 5080000
7199000 2021-Jul-23 07:43:33 t5qb2.wam COAL FIRE LIMSTON PRESS - 1 5110000
7198743 2021-Jul-23 07:27:58 franklin.gm LIMSTON MUD SAND WATER - 1 5290000
7198563 2021-Jul-23 07:17:04 4umrg.wam ASH CLAY LIMSTON MUD - 1 6070000
7198494 2021-Jul-23 07:14:05 tvvbg.wam CLAY FIRE LIMSTON STEEL - 1 6400000
7198180 2021-Jul-23 06:56:13 4umrg.wam CLAY ELECTRC ELECTRC METAL - 1 4150000
7198135 2021-Jul-23 06:55:20 bnwb.wam AIR LIMSTON SAND WATER - 1 5260000
7197673 2021-Jul-23 06:40:39 frcqu.wam ELECTRC ELECTRC METAL WATER - 1 3520000
7197321 2021-Jul-23 06:30:13 elldq.wam ENERGY VACUUM VACUUM VACUUM - 1 3760000
7196473 2021-Jul-23 05:58:34 4umrg.wam LAVA PICKAX STEAM VULCANO - 1 2860000
7196255 2021-Jul-23 05:42:27 dpzbs.wam CLAY FIRE FROST LIMSTON - 1 5830000
7195707 2021-Jul-23 04:55:07 dpzbs.wam CLAY HEAT ICE LIMSTON - 1 5890000
7195104 2021-Jul-23 03:33:09 1puqy.wam ASH LIMSTON METAL SAND - 1 6520000
7195011 2021-Jul-23 03:13:39 4umrg.wam COAL COAL HEAT LIMSTON - 1 5380000
7194949 2021-Jul-23 03:03:51 4umrg.wam COAL HEAT HEAT LIMSTON - 1 5140000
7194621 2021-Jul-23 02:39:18 v4.bc.wam ALCOHOL BATTERY PLASTIC WIRE - 1 8500000
7194319 2021-Jul-23 02:14:11 q4zbq.wam ASH ASH COAL COAL - 1 1780000
7194165 2021-Jul-23 01:59:40 evqum.wam ELECTRC ELECTRC GRPHITE METAL - 1 3850000
7193886 2021-Jul-23 01:45:57 1puqy.wam BEACH LIMSTON SOUND WAVE - 1 7390000
7193839 2021-Jul-23 01:42:08 g2cbe.wam ASH ASH LIMSTON WATER - 1 6010000
7193775 2021-Jul-23 01:30:09 e1nu.wam CLAY EXPLOSN HEAT LIMSTON - 1 5770000
7193405 2021-Jul-23 01:09:59 rekowaxbrave EARTH HEAT HEAT LIMSTON - 1 4870000
7193328 2021-Jul-23 01:07:18 t5qb2.wam ASH ASH LIMSTON SAND - 1 6460000
7193301 2021-Jul-23 01:05:50 chfuc.wam EARTH EARTH EARTH LIMSTON - 1 4810000
7193194 2021-Jul-23 01:01:51 pdss2.wam ELECTRC METAL WATER WATER - 1 2110000
7193146 2021-Jul-23 00:59:50 t5qb2.wam BLOCK LIMSTON PRESS SAND - 1 6040000
7193125 2021-Jul-23 00:59:18 zknby.wam EARTH EARTH LIMSTON PRESS - 1 4840000
7193081 2021-Jul-23 00:57:56 t5qb2.wam DUST LIMSTON PRESS SAND - 1 5320000
7192730 2021-Jul-23 00:45:07 dfiau.wam CLAY LIMSTON MUD PRESS - 1 5500000
7192663 2021-Jul-23 00:41:24 t5qb2.wam BLOCK BLOCK PRESS PRESS - 1 1600000
7191859 2021-Jul-23 00:07:42 fh5b2.wam BOILER CLAY FROST LIMSTON - 1 6580000
7191010 2021-Jul-22 23:27:22 g3frg.wam LIMSTON PRESS PRESS STONE - 1 4960000
7190266 2021-Jul-22 22:41:19 1puqy.wam EARTH ENERGY LIMSTON PRESS - 1 4870000
7190256 2021-Jul-22 22:40:54 1puqy.wam EARTH LIMSTON PRESS PRESS - 1 4870000
7190085 2021-Jul-22 22:23:17 p4.qw.wam AIR EARTH EARTH MUD - 1 70000
7190069 2021-Jul-22 22:18:54 cnbba.wam CLAY DUST LIMSTON PAPER - 1 5830000
7190068 2021-Jul-22 22:18:49 p4.qw.wam FIRE PRESS PRESS PRESS - 1 130000
7189439 2021-Jul-22 21:26:23 jooam.waa ASH CLAY ENERGY LIMSTON - 1 6070000
7188776 2021-Jul-22 20:50:02 b1sqw.wam BRICK CLAY LIMSTON SAND - 1 5980000
7187463 2021-Jul-22 19:58:25 4y4qy.wam ASH LIMSTON PRESS SAND - 1 5890000
7186625 2021-Jul-22 19:12:06 4y4qy.wam COAL HEAT LIMSTON PRESS - 1 5140000
7186367 2021-Jul-22 19:03:32 4y4qy.wam CLAY COAL LIMSTON SAND - 1 6160000
7186150 2021-Jul-22 18:58:12 4y4qy.wam LIMSTON SAND SAND SAND - 1 6160000
7185251 2021-Jul-22 18:26:33 evqum.wam FIRE FIRE LIMSTON SAND - 1 5260000
7185235 2021-Jul-22 18:26:03 4y4qy.wam LIMSTON PRESS SAND WATER - 1 5290000
7184441 2021-Jul-22 17:44:43 4y4qy.wam CLAY EARTH EARTH LIMSTON - 1 5440000
7184299 2021-Jul-22 17:32:50 wbibu.wam HEAT MUD SEED WATER - 1 1300000
7183792 2021-Jul-22 17:04:46 xqjam.wam GOLD PRESS PRESS PRESS - 1 21760000
7183772 2021-Jul-22 17:04:04 otydy.wam SOUND STEEL STEEL STOOL - 1 7930000
7182428 2021-Jul-22 16:02:22 cv4am.wam BARREL DRKGLAS GRAPE GRAPE - 1 10000000
7182370 2021-Jul-22 15:59:18 e1nu.wam BOILER BOILER CLAY LIMSTON - 1 6940000
7181318 2021-Jul-22 15:18:03 e1nu.wam CLAY COAL LIMSTON WATER - 1 5710000
7181227 2021-Jul-22 15:14:11 nplqy.wam BOILER GRAPE GRAPE PRESS - 1 7360000
7180966 2021-Jul-22 15:02:07 3.lb4.wam FIRE GEYSER HEAT PRESS - 1 280000
7179929 2021-Jul-22 14:19:55 2doay.wam BOILER HEAT LIMSTON SAND - 1 6040000
7179278 2021-Jul-22 13:44:26 elldq.wam CLAY FIRE LIMSTON PAPER - 1 5800000
7179251 2021-Jul-22 13:39:28 1puqy.wam FIRE LIMSTON METAL PRESS - 1 5500000
7179244 2021-Jul-22 13:38:52 1puqy.wam HEAT LIMSTON METAL PRESS - 1 5530000
7179087 2021-Jul-22 11:40:44 yxnay.wam CLAY LIMSTON PAPER PRESS - 1 5830000
7179077 2021-Jul-22 10:18:09 v4.bc.wam GEYSER PRESS STEAM VULCANO - 1 760000
7179076 2021-Jul-22 10:09:09 1zpay.wam OXYGEN VULCANO WATER WATER - 1 3280000
7179073 2021-Jul-22 09:51:45 lanse.wam CLAY HEAT LIMSTON SALT - 1 5530000
7179072 2021-Jul-22 09:46:11 1zpay.wam AIR EARTH OXYGEN VULCANO - 1 3280000
7179071 2021-Jul-22 09:38:04 1puqy.wam CLAY ENERGY LIMSTON PRESS - 1 5500000
7179070 2021-Jul-22 09:14:57 ivguk.wam MUD SAND STEEL STONE - 1 1570000
7179067 2021-Jul-22 08:20:09 xf3ay.wam EARTH EARTH LIFE SEED - 2 1510000
7179063 2021-Jul-22 06:45:44 yqmb2.wam ASH CLAY LIMSTON PAPER - 1 6400000
7179061 2021-Jul-22 06:20:05 wbibu.wam EARTH SEED SEED WATER - 1 2440000
7179060 2021-Jul-22 05:39:56 4umrg.wam PICKAX STEAM VULCANO WATER - 1 2830000
7179058 2021-Jul-22 04:34:32 trqra.wam DUST GARBAGE GARBAGE RAIN - 1 160000
7179056 2021-Jul-22 03:07:02 5vsdm.wam GARBAGE MUD RAIN WATER - 1 130000
7179050 2021-Jul-22 02:22:34 1isb2.wam EARTH EARTH LAVA SALT - 1 130000
7179049 2021-Jul-22 02:21:16 drk2liteacct EXPLOSN HEAT LIMSTON PRESS - 1 5170000
7179048 2021-Jul-22 02:13:07 11dra.wam AIR EARTH LAVA SALT - 1 130000
7179047 2021-Jul-22 01:53:08 g3frg.wam CLAY LIMSTON PLASMA SAND - 1 6610000
7179045 2021-Jul-22 01:33:58 dpzbs.wam BOILER CLAY COAL LIMSTON - 1 6460000
7179044 2021-Jul-22 01:00:31 rplanetdevil BLCKMTR DUST ENERGY VACUUM - 1 2320000
7179040 2021-Jul-22 00:48:17 q4zbq.wam AIR EARTH FIRE WIND - 1 160000
7179039 2021-Jul-22 00:34:28 5ktqw.wam AIR EARTH FIRE RAIN - 1 70000
7179038 2021-Jul-21 23:42:31 mxgu4.wam DUST FLAG SKY VACUUM - 1 11380000
7179036 2021-Jul-21 22:51:34 vowre.wam CLAY LIMSTON PAINT PAPER - 1 8590000
7179035 2021-Jul-21 22:33:48 1puqy.wam DUST LIMSTON METAL SAND - 1 5950000
7179034 2021-Jul-21 22:33:40 5j3r4.wam ASH ASH CLAY LIMSTON - 2 6640000
7179027 2021-Jul-21 19:51:01 oslek.wam EARTH EARTH EARTH SWAMP - 1 280000
7179025 2021-Jul-21 19:38:54 blacklist.gm CLAY GRPHITE HEAT LIMSTON - 1 5800000
7179024 2021-Jul-21 19:33:56 oslek.wam CRUDE DRUM MARKER SWAMP - 1 14920000
7179017 2021-Jul-21 18:59:50 tokb2.wam CANABIS SEED SUN WATER - 1 3220000
7179016 2021-Jul-21 18:52:35 tokb2.wam CANABIS PLANT RAIN WATER - 1 1600000
7179015 2021-Jul-21 18:49:41 cnbba.wam ALCOHOL BUBBLES WATER WHEAT - 1 1990000
7179014 2021-Jul-21 18:38:13 vqfba.wam EARTH GARBAGE GUN WATER - 1 4540000
7179009 2021-Jul-21 18:25:47 tokb2.wam CANABIS EARTH PEAT SUN - 1 3280000
7179005 2021-Jul-21 18:08:57 tokb2.wam CANABIS EARTH RAIN WATER - 1 1450000
7179003 2021-Jul-21 17:59:11 tokb2.wam CANABIS ENERGY MUD RAIN - 1 1510000
7179002 2021-Jul-21 17:33:20 drk2liteacct ENERGY ENERGY ENERGY LIMSTON - 1 4900000
7178999 2021-Jul-21 16:23:58 tceua.wam DUST LIMSTON PAPER SAND - 1 5650000
7178995 2021-Jul-21 15:00:23 drk2liteacct EARTH ENERGY ENERGY LIMSTON - 1 4870000
7178993 2021-Jul-21 14:07:14 sbvb.wam EARTH FIRE LIMSTON LIMSTON - 1 9580000
7178991 2021-Jul-21 13:56:15 jlybc.wam AIR ATMSPHE EARTH EARTH - 1 160000
7178988 2021-Jul-21 13:23:39 jooam.waa CLAY ENERGY HEAT LIMSTON - 1 5500000
7178987 2021-Jul-21 13:21:48 lbaba.wam EARTH LIMSTON PRESS SAND - 1 5290000
7178986 2021-Jul-21 11:59:35 1puqy.wam LIMSTON METAL PRESS SAND - 1 5950000
7178983 2021-Jul-21 11:19:00 1puqy.wam ENERGY LIMSTON PRESS SAND - 1 5320000
7178982 2021-Jul-21 10:07:22 xblau.wam HAMMER HEAT HEAT LIMSTON - 1 7780000
7178981 2021-Jul-21 10:00:33 xblau.wam CLAY HAMMER HEAT LIMSTON - 1 8380000
7178979 2021-Jul-21 09:09:19 otydy.wam MUSIC STEEL STEEL STOOL - 1 19870000
7178977 2021-Jul-21 08:44:06 vtyuk.wam AIR CLOUD PLANT PRESS - 1 520000
7178976 2021-Jul-21 08:23:25 xf3ay.wam ELECTRC METAL STONE WATER - 1 2200000
7178975 2021-Jul-21 08:15:07 vtyuk.wam LIFE SUN TREE WATER - 1 1690000
7178974 2021-Jul-21 08:04:10 .bxbi.wam ASH CLAY LIMSTON VULCANO - 1 6520000
7178973 2021-Jul-21 07:49:53 jruty.wam LIMSTON PRESS SAND STONE - 1 5380000
7178970 2021-Jul-21 07:30:21 5w4vi.wam ATMSPHE GRPHITE PAPER PRESS - 1 880000
7178969 2021-Jul-21 07:20:45 gnsba.wam HEAT HEAT LIMSTON PICKAX - 1 7150000
7178968 2021-Jul-21 06:59:10 gnsba.wam CLAY HEAT LIMSTON PICKAX - 1 7750000
7178965 2021-Jul-21 05:23:32 osiqw.wam HEAT LIMSTON SAND SAND - 2 5740000
7178964 2021-Jul-21 05:18:27 t5qb2.wam EARTH LIMSTON PRESS STONE - 1 4930000
7178954 2021-Jul-21 04:48:29 l.ion BOILER PRESS SALT WATER - 1 880000
7178953 2021-Jul-21 03:46:31 2zcqy.wam DUST EARTH STONE WATER - 1 160000
7178952 2021-Jul-21 03:41:37 otydy.wam HAMMER SOUND STEEL STOOL - 1 9880000
7178950 2021-Jul-21 03:25:46 t5qb2.wam DUST LIMSTON LIMSTON STONE - 1 9700000
7178949 2021-Jul-21 03:24:41 t5qb2.wam HEAT LIMSTON LIMSTON STONE - 1 9700000
7178948 2021-Jul-21 03:24:14 t5qb2.wam LIMSTON LIMSTON STONE STONE - 1 9760000
7178947 2021-Jul-21 03:23:26 t5qb2.wam DUST HEAT LIMSTON SAND - 1 5320000
7178946 2021-Jul-21 03:17:40 t5qb2.wam HEAT HEAT LIMSTON LIMSTON - 1 9640000
7178945 2021-Jul-21 03:06:43 t5qb2.wam DUST HEAT LIMSTON LIMSTON - 1 9640000
7178944 2021-Jul-21 03:00:25 t5qb2.wam DUST LIMSTON LIMSTON PRESS - 1 9640000
7178943 2021-Jul-21 02:58:20 t5qb2.wam DUST DUST LIMSTON LIMSTON - 1 9640000
7178941 2021-Jul-21 02:20:48 1puqy.wam ENERGY FIRE LIMSTON PRESS - 1 4870000
7178940 2021-Jul-21 02:18:15 1puqy.wam DUST DUST LIMSTON SAND - 1 5320000
7178938 2021-Jul-21 01:44:44 5cuay.wam AIR GARBAGE LAVA MUD - 1 130000
7178937 2021-Jul-21 01:44:19 5cuay.wam ENERGY RAIN SEA WATER - 1 130000
7178936 2021-Jul-21 01:27:13 xpqb.wam FIRE LIMSTON PRESS STONE - 1 4930000
7178935 2021-Jul-21 01:21:50 1puqy.wam ENERGY HEAT LIMSTON PRESS - 1 4900000
7178934 2021-Jul-21 01:04:32 v4.bc.wam EARTH FIRE LIMSTON PRESS - 1 4840000
7178933 2021-Jul-21 00:27:56 iybcc.wam GRASS RAIN SEED WIND - 1 1630000
7178932 2021-Jul-20 23:45:19 budr.wam AIR PRESS SALT STEAM - 1 160000
7178931 2021-Jul-20 23:42:16 budr.wam AIR HEAT SALT STEAM - 1 160000
7178928 2021-Jul-20 23:08:24 4umrg.wam BOILER CLAY LIMSTON PEAT - 1 7450000
7178927 2021-Jul-20 22:33:51 3jpqw.wam CLAY GAS HEAT LIMSTON - 1 6370000
7178925 2021-Jul-20 22:16:34 lordpopbands COAL ELECTRC FIRE METAL - 1 2380000
7178924 2021-Jul-20 22:09:43 lbaba.wam EARTH FIRE LIMSTON SAND - 1 5260000
7178923 2021-Jul-20 21:50:33 helphycrypto CLAY LIMSTON MUD STONE - 1 5560000
7178922 2021-Jul-20 21:40:39 ni1qy.wam CLAY LIMSTON PAPER PAPER - 1 6160000
7178920 2021-Jul-20 20:39:35 helphycrypto EARTH FIRE FIRE LIMSTON - 1 4810000
7178918 2021-Jul-20 20:21:22 hgfqq.wam FIRE LIMSTON PAPER PRESS - 1 5200000
7178916 2021-Jul-20 19:45:51 yfpau.wam CLAY DUST HAMMER LIMSTON - 1 8380000
7178914 2021-Jul-20 19:31:05 vazbg.wam CLAY LIMSTON PRESS WATER - 1 5470000
7178913 2021-Jul-20 19:24:07 4y4qy.wam CLAY CLAY LIMSTON WATER - 1 6070000
7178912 2021-Jul-20 19:21:47 4y4qy.wam CLAY EARTH LIMSTON WATER - 1 5440000
7178911 2021-Jul-20 19:18:04 4y4qy.wam CLAY LIMSTON WATER WATER - 1 5440000
7178907 2021-Jul-20 19:09:07 t5qb2.wam DUST DUST LIMSTON PRESS - 1 4900000
7178906 2021-Jul-20 18:57:47 lsfqw.wam CLAY LIMSTON OXYGEN SAND - 1 8650000
7178899 2021-Jul-20 16:52:09 twdqq.wam ASH CLAY CLAY LIMSTON - 2 6670000
7178897 2021-Jul-20 16:09:03 3luqy.wam PLANT STRING SUN TREE - 1 6820000
7178896 2021-Jul-20 15:39:03 3luqy.wam SEED STRING SUN TREE - 1 7870000
7178892 2021-Jul-20 15:08:58 otydy.wam HAMMER MUSIC STEEL STOOL - 1 21820000
7178891 2021-Jul-20 14:33:03 otydy.wam HAMMER MUSIC MUSIC STEEL - 1 29410000
7178889 2021-Jul-20 14:09:45 ccpay.wam CLAY LIMSTON METAL PRESS - 1 6130000
7178887 2021-Jul-20 13:58:38 xqlb4.wam ENERGY FIRE PRESS STEAM - 1 130000
7178883 2021-Jul-20 13:28:55 nx5di.wam CLAY COAL ELECTRC LIMSTON - 1 7120000
7178882 2021-Jul-20 13:13:35 oegr2.wam FIRE LIMSTON PRESS PRESS - 1 4870000
7178878 2021-Jul-20 12:44:32 c4.r4.wam DUST HEAT HEAT LIMSTON - 1 4900000
7178877 2021-Jul-20 11:33:31 rplanetdevil FIRE FIRE HEAT LIMSTON - 1 4840000
7178875 2021-Jul-20 11:02:01 tgrqy.wam FIRE HEAT LIMSTON SAND - 1 5290000
7178874 2021-Jul-20 10:10:23 rmcbc.wam HEAT LIMSTON METAL SAND - 1 5950000
7178873 2021-Jul-20 09:23:49 1puqy.wam FIRE FIRE LIMSTON PRESS - 1 4840000
7178872 2021-Jul-20 09:09:44 3jpqw.wam CLAY HEAT LIMSTON OBSIDIN - 1 5590000
7178870 2021-Jul-20 08:31:08 tgrqy.wam CLAY COAL HEAT LIMSTON - 1 5740000
7178869 2021-Jul-20 07:53:20 katharsiseos CLAY FIRE LIMSTON STONE - 1 5530000
7178867 2021-Jul-20 07:21:18 harambe.gm BOILER CLAY EARTH LIMSTON - 1 6190000
7178866 2021-Jul-20 07:18:21 h4lra.wam ASH FIRE LIMSTON SAND - 1 5860000
7178865 2021-Jul-20 07:04:24 xv.bg.wam BOILER CLAY FIRE LIMSTON - 1 6190000
7178864 2021-Jul-20 06:46:39 1puqy.wam FIRE LIMSTON PRESS SAND - 1 5290000
7178863 2021-Jul-20 06:45:23 e1nu.wam ASH BOILER CLAY LIMSTON - 1 6790000
7178860 2021-Jul-20 06:23:32 vaaaaaaaaaan ASH CLAY DUST LIMSTON - 1 6070000
7178858 2021-Jul-20 05:58:45 l.ion DIAMOND HEAT METAL PRESS - 1 1150000
7178857 2021-Jul-20 05:06:01 yxnay.wam SUNFLWR SUNFLWR SUNFLWR SUNFLWR - 1 7960000
7178855 2021-Jul-20 04:56:59 yxnay.wam ASH LIMSTON PRESS STONE - 1 5530000
7178854 2021-Jul-20 04:51:23 iiju.wam COAL FIRE FIRE OBSIDIN - 1 430000
7178853 2021-Jul-20 04:48:58 l.ion DIAMOND FIRE METAL PRESS - 1 1120000
7178852 2021-Jul-20 04:20:23 4umrg.wam HEAT LIMSTON MUD SAND - 1 5320000
7178851 2021-Jul-20 03:02:26 lbaba.wam EARTH HEAT LIMSTON SAND - 1 5290000
7178850 2021-Jul-20 02:21:34 u4kek.wam ASH LIMSTON LIMSTON SAND - 1 10630000
7178848 2021-Jul-20 01:26:16 trqra.wam CABBAGE CARROT CARROT GARBAGE - 1 670000
7178845 2021-Jul-19 23:29:23 1puqy.wam DUST DUST DUST LIMSTON - 1 4900000
7178844 2021-Jul-19 23:26:28 yfpau.wam HEAT SAND TIME WATER - 1 5230000
7178843 2021-Jul-19 22:53:52 1puqy.wam FIRE HEAT LIMSTON PRESS - 1 4870000
7178842 2021-Jul-19 22:41:30 ip43m.wam CLAY CRUDE ELECTRC WATER - 1 3070000
7178841 2021-Jul-19 22:25:04 2doay.wam FIRE LIMSTON SAND WATER - 1 5260000
7178840 2021-Jul-19 21:59:50 a5nbs.wam ALCOHOL ALCOHOL PLANT PLANT - 1 700000
7178838 2021-Jul-19 21:42:49 4nkr.wam CLAY LIMSTON MUD SAND - 1 5920000
7178837 2021-Jul-19 21:30:40 bovbc.wam CLAY EARTH FIRE LIMSTON - 1 5440000
7178836 2021-Jul-19 21:28:24 bovbc.wam CLAY EARTH LIMSTON PRESS - 1 5470000
7178835 2021-Jul-19 20:54:17 sxyqy.wam ASH CLAY LIMSTON STONE - 1 6130000
7178828 2021-Jul-19 19:26:07 4umrg.wam OCEAN PRESS STEAM VULCANO - 1 730000
7178825 2021-Jul-19 18:51:22 t5qb2.wam BLOCK CLAY DUST LIMSTON - 1 6220000
7178824 2021-Jul-19 18:31:43 3dgv.wam GARBAGE LAVA PRESS PRESS - 1 160000
7178823 2021-Jul-19 18:22:52 mzgc4.wam CLAY FIRE LIMSTON POT - 1 7090000
7178822 2021-Jul-19 18:01:11 etur2.wam EARTH EARTH PRESS WIND - 1 190000
7178821 2021-Jul-19 17:53:48 jooam.waa AIR GASOLIN PRESS STEEL - 1 2140000
7178820 2021-Jul-19 17:42:55 ijqqw.wam MNTAIN SEED SUN WATER - 1 2470000
7178819 2021-Jul-19 17:30:42 2tmay.wam AIR GASOLIN METAL PRESS - 1 1840000
7178818 2021-Jul-19 17:25:51 e4fem.wam AIR DUST GARBAGE RAIN - 1 130000
7178817 2021-Jul-19 17:10:37 5klbu.wam CLAY FIRE LIMSTON MUD - 1 5470000
7178816 2021-Jul-19 16:59:09 mzgc4.wam CLAY FIRE GAS LIMSTON - 1 6340000
7178815 2021-Jul-19 16:46:36 lhhqu.wam CLAY LIMSTON PLASTIC SAND - 1 7870000
7178814 2021-Jul-19 16:30:39 t4uqy.wam CLAY COAL FIRE LIMSTON - 1 5710000
7178813 2021-Jul-19 16:24:12 iq4rg.wam ENERGY ENERGY ENERGY RAIN - 1 160000
7178812 2021-Jul-19 16:23:00 lhhqu.wam CLAY LIMSTON POT SAND - 1 7540000
7178811 2021-Jul-19 16:22:17 lhhqu.wam CLAY LIMSTON SAND STEEL - 1 6850000
7178810 2021-Jul-19 16:22:09 5akba.wam BOILER LIMSTON PRESS PRESS - 1 5620000
7178805 2021-Jul-19 14:21:52 3c2b4.wam CANABIS RAIN TREE WIRE - 1 5020000
7178803 2021-Jul-19 12:47:08 uvrtc.wam PLANT SEED SUN WALL - 1 2320000
7178802 2021-Jul-19 12:37:38 uvrtc.wam PLANT SUN WALL WATER - 1 1120000
7178797 2021-Jul-19 09:05:32 xqjam.wam ASH FIRE LIMSTON PRESS - 1 5440000
7178796 2021-Jul-19 09:00:14 uonaw.wam BLOCK HEAT LIMSTON SAND - 1 6040000
7178791 2021-Jul-19 07:41:16 tokb2.wam LIMSTON PAPER SAND SAND - 1 6070000
7178790 2021-Jul-19 07:35:53 tokb2.wam LIMSTON SAND WATER WATER - 1 5260000
7178788 2021-Jul-19 07:34:15 tokb2.wam LIMSTON SAND SAND WATER - 1 5710000
7178786 2021-Jul-19 07:12:05 ufnb4.wam CLAY GRASS MUD WATER - 1 940000
7178785 2021-Jul-19 06:50:58 3luqy.wam EXPLOSN GASOLIN OXYGEN STEEL - 1 5170000
7178782 2021-Jul-19 06:10:58 p2hb.wam BRICK LIMSTON SAND WATER - 1 5350000
7178781 2021-Jul-19 06:05:44 ip43m.wam CRUDE EARTH ELECTRC WATER - 1 2440000
7178779 2021-Jul-19 05:36:25 5uzr.wam ASH HEAT SAND SAND - 1 1570000
7178778 2021-Jul-19 05:07:28 g4gem.wam EARTH GARBAGE GARBAGE GARBAGE - 1 130000
7178777 2021-Jul-19 04:56:42 alicizat.ion METAL PLASTIC PLASTIC PLASTIC - 1 6640000
7178774 2021-Jul-19 04:22:48 mzgc4.wam ASH HEAT LIMSTON PRESS - 1 5470000
7178773 2021-Jul-19 03:50:10 blacklist.gm PRESS TIME TREE TREE - 1 6340000
7178772 2021-Jul-19 03:06:16 1puqy.wam DUST HEAT LIMSTON PRESS - 1 4900000
7178771 2021-Jul-19 03:04:55 1puqy.wam DUST FIRE LIMSTON PRESS - 1 4870000
7178770 2021-Jul-19 03:00:06 xqgbi.wam CLAY CLAY CLAY LIMSTON - 1 6700000
7178769 2021-Jul-19 02:57:50 t5qb2.wam DUST LIMSTON PRESS PRESS - 1 4900000
7178768 2021-Jul-19 02:43:59 5qupe.wam HEAT LIMSTON PRESS PRESS - 1 4900000
7178766 2021-Jul-19 02:42:47 gpfay.wam HEAT HEAT LIMSTON PRESS - 1 4900000
7178765 2021-Jul-19 02:40:16 osiqw.wam CLAY DUST LIMSTON PRESS - 2 5500000
7178764 2021-Jul-19 02:37:46 osiqw.wam LIMSTON PRESS PRESS SAND - 1 5320000
7178763 2021-Jul-19 02:33:30 4umrg.wam BOILER LIMSTON PRESS SAND - 1 6040000
7178762 2021-Jul-19 02:26:22 gnsba.wam AIR CLAY FIRE LIMSTON - 1 5440000
7178761 2021-Jul-19 02:06:35 djkr.wam FIRE FIRE FIRE LIMSTON - 1 4810000
7178760 2021-Jul-19 01:56:29 sbvb.wam FIRE LIMSTON LIMSTON STONE - 1 9670000
7178758 2021-Jul-19 01:42:44 yxnay.wam ASH LIMSTON SAND STONE - 1 5950000
7178757 2021-Jul-19 01:36:15 gnsba.wam HEAT HEAT HEAT LIMSTON - 1 4900000
7178750 2021-Jul-19 01:10:07 bzqsu.wam EARTH EARTH GARBAGE STONE - 1 160000
7178749 2021-Jul-19 01:09:18 t5qb2.wam CLAY DUST LIMSTON STONE - 1 5560000
7178748 2021-Jul-19 01:01:57 t5qb2.wam CLAY DUST DUST LIMSTON - 1 5500000
7178747 2021-Jul-19 00:59:54 t5qb2.wam CLAY CLAY LIMSTON SAND - 2 6520000
7178746 2021-Jul-19 00:56:33 t5qb2.wam HEAT LIMSTON PRESS WATER - 1 4870000
7178745 2021-Jul-19 00:55:13 t5qb2.wam LIMSTON PRESS STONE WATER - 1 4930000
7178744 2021-Jul-19 00:51:20 t5qb2.wam LIMSTON LIMSTON PRESS STONE - 1 9700000
7178743 2021-Jul-19 00:50:27 mzgc4.wam ASH CLAY LIMSTON PRESS - 1 6070000
7178742 2021-Jul-19 00:48:21 addbi.wam CLAY LIMSTON PAPER SAND - 1 6250000
7178741 2021-Jul-19 00:47:21 xpqb.wam EARTH HEAT LIMSTON PRESS - 1 4870000
7178739 2021-Jul-19 00:46:54 xpqb.wam HEAT LIMSTON PRESS STONE - 1 4960000
7178738 2021-Jul-19 00:43:51 4umrg.wam CLAY GRPHITE LIMSTON SAND - 1 6220000
7178737 2021-Jul-19 00:41:55 t5qb2.wam LIMSTON LIMSTON PRESS PRESS - 1 9640000
7178736 2021-Jul-19 00:41:28 t5qb2.wam HEAT LIMSTON LIMSTON PRESS - 1 9640000
7178735 2021-Jul-19 00:29:52 tvvbg.wam CLAY LIMSTON SAND SAND - 1 6340000
7178734 2021-Jul-19 00:23:21 rinb2.wam CLAY HEAT LIMSTON MUD - 1 5500000
7178733 2021-Jul-19 00:20:36 iusu4.wam ELECTRC GASOLIN METAL PRESS - 1 3250000
7178732 2021-Jul-19 00:04:46 jfyr2.wam CLAY EXPLOSN LIMSTON SAND - 1 6190000
7178731 2021-Jul-19 00:03:55 mzgc4.wam CLAY LIMSTON PRESS STONE - 1 5560000
7178730 2021-Jul-18 23:57:52 osiqw.wam CLAY EARTH LIMSTON SAND - 1 5890000
7178729 2021-Jul-18 23:56:54 ggnb4.wam CLAY EARTH HEAT LIMSTON - 1 5470000
7178726 2021-Jul-18 23:48:27 ngdqw.wam CLAY LIMSTON METAL SAND - 1 6550000
7178725 2021-Jul-18 23:46:08 osiqw.wam AIR CLAY LIMSTON SAND - 1 5890000
7178724 2021-Jul-18 23:45:18 t5qb2.wam LIMSTON PRESS STONE STONE - 1 5020000
7178723 2021-Jul-18 23:44:15 t5qb2.wam HEAT LIMSTON STONE STONE - 1 5020000
7178722 2021-Jul-18 23:42:19 mzgc4.wam CLAY HEAT LIMSTON PAPER - 1 5830000
7178721 2021-Jul-18 23:40:23 ggnb4.wam CLAY FIRE LIMSTON METAL - 1 6100000
7178719 2021-Jul-18 23:16:26 mzgc4.wam HEAT LIMSTON PRESS SAND - 1 5320000
7178717 2021-Jul-18 22:55:24 p4lqm.wam ASH HEAT LIMSTON WATER - 1 5440000
7178715 2021-Jul-18 22:49:56 mzgc4.wam CLAY HEAT LIMSTON POT - 1 7120000
7178714 2021-Jul-18 22:46:20 mzgc4.wam BOILER CLAY LIMSTON PRESS - 1 6220000
7178712 2021-Jul-18 22:42:11 jfyr2.wam CLAY HEAT LIMSTON METAL - 3 6130000
7178711 2021-Jul-18 22:41:32 jooam.waa BOILER CLAY CLAY LIMSTON - 1 6820000
7178710 2021-Jul-18 22:39:51 .t5rc.wam LIMSTON SAND SAND STONE - 1 5800000
7178709 2021-Jul-18 22:34:12 cmcr.wam CLAY DUST FIRE LIMSTON - 1 5470000
7178706 2021-Jul-18 22:30:00 2tmay.wam CLAY HEAT LIMSTON STONE - 2 5560000
7178705 2021-Jul-18 22:28:43 xqjam.wam CLAY FIRE LIMSTON WATER - 1 5440000
7178704 2021-Jul-18 22:27:55 rplanetdevil CLAY CLAY FIRE LIMSTON - 1 6070000
7178703 2021-Jul-18 22:25:07 ojub2.wam CLAY ENERGY LIMSTON SAND - 1 5920000
7178702 2021-Jul-18 22:22:14 lsfqw.wam CLAY LIMSTON SAND STONE - 1 5980000
7178701 2021-Jul-18 22:19:19 fh5b2.wam CLAY FROST HEAT LIMSTON - 1 5860000
7178700 2021-Jul-18 22:17:51 osiqw.wam CLAY CLAY DUST LIMSTON - 1 6100000
7178699 2021-Jul-18 22:16:05 osiqw.wam CLAY DUST LIMSTON SAND - 1 5920000
7178698 2021-Jul-18 22:14:51 osiqw.wam CLAY DUST HEAT LIMSTON - 2 5500000
7178697 2021-Jul-18 22:14:46 p4lqm.wam CLAY FIRE HEAT LIMSTON - 1 5470000
7178694 2021-Jul-18 22:05:13 44tb2.wam ASH LIMSTON SAND WATER - 1 5860000
7178693 2021-Jul-18 22:03:17 t5qb2.wam CLAY HEAT LIMSTON LIMSTON - 1 10240000
7178692 2021-Jul-18 22:02:53 xqjam.wam CLAY LIMSTON PRESS PRESS - 1 5500000
7178690 2021-Jul-18 21:55:58 4umrg.wam BOILER CLAY HEAT LIMSTON - 2 6220000
7178687 2021-Jul-18 21:53:28 n.oqw.wam ASH CLAY LIMSTON SAND - 1 6490000
7178684 2021-Jul-18 21:51:06 apway.wam ASH HEAT LIMSTON SAND - 1 5890000
7178683 2021-Jul-18 21:50:42 t5qb2.wam ASH CLAY LIMSTON METAL - 1 6700000
7178682 2021-Jul-18 21:50:34 5j3r4.wam CLAY CLAY LIMSTON PRESS - 1 6100000
7178681 2021-Jul-18 21:47:13 5iv2e.wam CLAY HEAT LIMSTON PRESS - 1 5500000
7178680 2021-Jul-18 21:45:34 3.lqy.wam LIMSTON SAND STONE WATER - 2 5350000
7178679 2021-Jul-18 21:44:11 pt.ay.wam LIMSTON PRESS PRESS PRESS - 2 4900000
7178678 2021-Jul-18 21:44:08 w3hrg.wam CLAY LIMSTON RUST SAND - 1 6580000
7178676 2021-Jul-18 21:42:49 xqjam.wam CLAY FIRE FIRE LIMSTON - 1 5440000
7178675 2021-Jul-18 21:41:13 m3fb.wam DUST VULCANO VULCANO WATER - 1 1030000
7178674 2021-Jul-18 21:37:41 lwwao.wam AIR CLAY HEAT LIMSTON - 1 5470000
7178672 2021-Jul-18 21:36:51 xqjam.wam ASH CLAY FIRE LIMSTON - 1 6040000
7178668 2021-Jul-18 21:33:57 pt.ay.wam EXPLOSN EXPLOSN EXPLOSN LIMSTON - 1 5710000
7178667 2021-Jul-18 21:33:54 xqjam.wam CLAY FIRE LIMSTON SAND - 3 5890000
7178666 2021-Jul-18 21:33:25 vowre.wam CLAY FIRE LIMSTON PRESS - 1 5470000
7178664 2021-Jul-18 21:32:47 rxgaq.wam CLAY HEAT LIMSTON WIND - 1 5590000
7178663 2021-Jul-18 21:32:37 4nkr.wam BOILER CLAY LIMSTON SAND - 1 6640000
7178662 2021-Jul-18 21:31:50 t5qb2.wam CLAY HEAT HEAT LIMSTON - 1 5500000
7178661 2021-Jul-18 21:31:24 5j3r4.wam CLAY CLAY HEAT LIMSTON - 1 6100000
7178660 2021-Jul-18 21:30:19 bzraw.wam ASH HEAT HEAT LIMSTON - 1 5470000
7178659 2021-Jul-18 21:30:08 rr2rk.wam CLAY LIMSTON PRESS SAND - 1 5920000
7178658 2021-Jul-18 21:29:31 bzraw.wam HEAT HEAT LIMSTON SAND - 2 5320000
7178654 2021-Jul-18 21:27:32 fh5b2.wam CLAY HEAT LIMSTON WATER - 2 5470000
7178653 2021-Jul-18 21:25:32 e2cr.wam HEAT LIMSTON SAND STONE - 1 5380000
7178652 2021-Jul-18 21:25:26 a2nco.wam EARTH EARTH PRESS SNDCLCK - 1 2140000
7178651 2021-Jul-18 21:22:46 3luqy.wam ASH CLAY HEAT LIMSTON - 2 6070000
7178650 2021-Jul-18 21:20:21 morphling132 COAL COAL COAL FIRE - 1 850000
7178649 2021-Jul-18 21:19:48 n.jui.wam GLASS SAND SAND STEEL - 1 2380000
7178648 2021-Jul-18 21:18:46 ymqbg.wam CLAY LIMSTON SAND WATER - 2 5890000
7178643 2021-Jul-18 21:15:31 pykru.wam HEAT LIMSTON SAND WATER - 1 5290000
7178641 2021-Jul-18 21:14:27 p1qbo.wam EARTH PRESS PRESS TIME - 1 4810000
7178640 2021-Jul-18 21:14:10 plbb.wam EARTH EARTH ENERGY TIME - 1 4780000
7178638 2021-Jul-18 21:12:33 4umrg.wam CLAY HEAT LIMSTON SAND - 7 5920000
7178637 2021-Jul-18 21:11:31 4umrg.wam EARTH EARTH PRESS TIME LIMSTON 808 4780000
7178636 2021-Jul-18 20:23:06 u2dbc.wam EARTH EXPLOSN FIRE STEAM - 1 370000
7178635 2021-Jul-18 19:57:49 c4.r4.wam DESERT EXPLOSN EXPLOSN STONE - 1 3280000
7178634 2021-Jul-18 19:56:04 4y4qy.wam ARCHIP ARCHIP PRESS SAND - 1 4600000
7178633 2021-Jul-18 19:54:08 c4.r4.wam DESERT EXPLOSN STONE STONE - 1 3070000
7178632 2021-Jul-18 19:48:43 4y4qy.wam HILL HILL RAIN STONE - 1 2980000
7178631 2021-Jul-18 19:44:38 4y4qy.wam EARTH EARTH OCEAN TIME - 1 4900000
7178630 2021-Jul-18 19:36:48 4y4qy.wam RAIN STONE STONE TIME - 1 4960000
7178629 2021-Jul-18 19:31:42 lsfqw.wam ARCHIP PRESS PRESS SAND - 1 2590000
7178628 2021-Jul-18 19:31:32 4y4qy.wam RAIN RAIN STONE TIME - 1 4900000
7178627 2021-Jul-18 19:26:41 4y4qy.wam PRESS PRESS STONE TIME - 1 4900000
7178626 2021-Jul-18 19:23:04 dfiau.wam PRESS STONE STONE TIME - 1 4960000
7178625 2021-Jul-18 19:21:54 4y4qy.wam CRUDE CRUDE PRESS STONE - 1 2140000
7178624 2021-Jul-18 19:20:53 4y4qy.wam CRUDE CRUDE PRESS PRESS - 1 2080000
7178623 2021-Jul-18 19:16:37 4y4qy.wam ARCHIP SEA STONE STONE - 1 2290000
7178621 2021-Jul-18 19:13:47 epzcm.wam HILL LIFE LIFE SEA - 1 2020000
7178620 2021-Jul-18 19:08:38 4y4qy.wam STONE STONE TIME WATER - 1 4930000
7178619 2021-Jul-18 19:04:23 4y4qy.wam ARCHIP SAND SAND STONE - 1 3070000
7178617 2021-Jul-18 18:17:24 t5qb2.wam BEACH BEACH ISLE OCEAN - 1 3610000
7178616 2021-Jul-18 18:09:09 zfmqw.wam ARCHIP ASH ASH OCEAN - 1 3430000
7178615 2021-Jul-18 17:44:36 zbqrc.wam STONE TIME WATER WATER - 1 4840000
7178614 2021-Jul-18 17:39:54 ip43m.wam CLAY ELECTRC GRPHITE PRESS - 1 2440000
7178611 2021-Jul-18 17:08:53 lsfqw.wam ARCHIP PLANT PRESS PRESS - 1 2290000
7178610 2021-Jul-18 16:54:06 t5qb2.wam BEACH BEACH LIFE OCEAN - 1 3220000
7178609 2021-Jul-18 16:17:30 br5r4.wam HEAT METAL PRESS STEAM - 1 790000
7178607 2021-Jul-18 15:47:16 m4rb.wam BEACH BEACH PRESS STONE - 1 2920000
7178605 2021-Jul-18 15:42:54 dpzbs.wam SEA STONE STONE TIME - 1 4960000
7178604 2021-Jul-18 15:40:39 c4.r4.wam BEACH SAND STONE STONE - 1 2050000
7178603 2021-Jul-18 15:38:20 g53ra.wam ARCHIP RAIN RAIN VULCANO - 1 2620000
7178602 2021-Jul-18 15:37:02 c4.r4.wam ARCHIP LIFE LIFE PRESS - 1 2650000
7178601 2021-Jul-18 15:28:01 pt.ay.wam EARTH EXPLOSN HILL HILL - 1 3160000
7178600 2021-Jul-18 15:18:57 pt.ay.wam EXPLOSN HILL MNTAIN MNTAIN - 1 3010000
7178599 2021-Jul-18 15:18:34 pt.ay.wam EXPLOSN HILL HILL MNTAIN - 1 3790000
7178598 2021-Jul-18 15:15:28 i1hbi.wam AIR EARTH STEAM WATER - 1 70000
7178597 2021-Jul-18 15:10:22 v4.bc.wam EXPLOSN EXPLOSN HILL MNTAIN - 1 2680000
7178596 2021-Jul-18 14:59:02 na5b4.wam MNTAIN OCEAN SUN SUN - 1 2020000
7178595 2021-Jul-18 14:51:46 pt.ay.wam EXPLOSN HILL HILL MUD - 1 3190000
7178593 2021-Jul-18 14:39:57 jooam.waa PRESS SEA SEA TIME - 1 4840000
7178591 2021-Jul-18 14:32:35 jooam.waa PRESS PRESS SEA TIME - 1 4840000
7178589 2021-Jul-18 14:04:21 cv4am.wam HILL HILL PRESS STONE - 1 2980000
7178588 2021-Jul-18 14:00:29 dfiau.wam OCEAN PRESS PRESS TIME - 1 4960000
7178587 2021-Jul-18 13:32:44 ilkeria.gm ARCHIP PRESS PRESS WAVE - 1 2530000
7178586 2021-Jul-18 13:20:04 ilkeria.gm ARCHIP LIFE PRESS PRESS - 1 2410000
7178585 2021-Jul-18 13:13:26 xf5ra.wam MNTAIN MNTAIN OCEAN SUN - 1 2050000
7178584 2021-Jul-18 12:44:06 jbjqw.wam BEACH OCEAN OCEAN SEAWEED - 1 3100000
7178583 2021-Jul-18 12:41:24 1puqy.wam ARCHIP MNTAIN STONE STONE - 1 2890000
7178582 2021-Jul-18 12:40:41 1puqy.wam ARCHIP MNTAIN MNTAIN STONE - 1 3430000
7178580 2021-Jul-18 12:18:37 xpqb.wam MUD MUD PRESS TIME - 1 4840000
7178579 2021-Jul-18 12:15:54 4jube.wam HILL RIVER STONE STONE - 1 2650000
7178578 2021-Jul-18 12:12:12 pddra.wam EARTH EARTH OXYGEN PRESS - 1 2830000
7178577 2021-Jul-18 12:06:21 2tmay.wam HEAT SEA SEA TIME - 1 4840000
7178576 2021-Jul-18 12:01:43 wpsca.wam ARCHIP MUD STONE STONE - 1 2290000
7178575 2021-Jul-18 11:59:47 u2.bo.wam BEACH STONE WAVE WAVE - 1 2290000
7178574 2021-Jul-18 11:53:37 jtue2.wam CLAY ISLE ISLE SAND - 1 2440000
7178573 2021-Jul-18 11:53:13 1puqy.wam ARCHIP ASH ASH STONE - 1 3370000
7178572 2021-Jul-18 11:50:32 wpsca.wam ARCHIP MUD MUD STONE - 1 2230000
7178571 2021-Jul-18 11:34:17 4gtrc.wam BEACH HEAT HEAT SUN - 1 2080000
7178570 2021-Jul-18 11:31:56 guwr2.wam HILL MNTAIN STONE STONE - 1 2260000
7178569 2021-Jul-18 11:15:57 22u1.wam PRESS RIVER RIVER STONE - 1 2200000
7178568 2021-Jul-18 11:14:58 l.2bg.wam BEACH PRESS SAND SAND - 1 2350000
7178567 2021-Jul-18 11:14:09 l.2bg.wam BEACH MUD SAND SAND - 1 2350000
7178566 2021-Jul-18 11:11:53 b1ara.wam BACTERI BEACH SALT STONE - 1 2140000
7178565 2021-Jul-18 11:08:42 e5ydi.wam EXPLOSN HILL HILL STONE - 1 3250000
7178564 2021-Jul-18 11:04:59 e1nu.wam OXYGEN SAND SAND WATER - 1 3700000
7178563 2021-Jul-18 11:03:44 vlweo.wam ARCHIP PLANT PLANT STONE - 1 2470000
7178562 2021-Jul-18 10:56:15 5j3r4.wam ARCHIP PLANT SAND SAND - 1 3130000
7178561 2021-Jul-18 10:55:36 5j3r4.wam ARCHIP PLANT PLANT PRESS - 1 2410000
7178560 2021-Jul-18 10:54:51 l.2bg.wam BEACH CLAY STONE STONE - 1 2230000
7178559 2021-Jul-18 10:47:02 rprqy.wam PRESS SEAWEED SEAWEED STONE - 1 2920000
7178558 2021-Jul-18 10:43:05 c4.r4.wam ARCHIP HEAT HEAT WATER - 1 2140000
7178557 2021-Jul-18 10:41:50 dpzbs.wam OCEAN SEAWEED SEAWEED STONE - 1 3040000
7178556 2021-Jul-18 10:32:36 tqfuq.wam HILL PLANT SUN WIND - 1 2320000
7178555 2021-Jul-18 10:28:08 whdsa.wam EARTH PRESS SWAMP SWAMP - 1 550000
7178553 2021-Jul-18 09:57:16 4vibe.wam MOSS SUN WATER WATER - 1 910000
7178552 2021-Jul-18 09:56:08 p4lqm.wam LIFE LIFE SEA TIME - 1 5320000
7178551 2021-Jul-18 09:56:03 ip43m.wam EARTH EARTH SEA SUN - 1 670000
7178550 2021-Jul-18 09:55:52 p4lqm.wam LIFE SEA SEA TIME - 1 5080000
7178547 2021-Jul-18 09:52:18 szgeo.wam AIR SEA WATER WATER - 1 70000
7178546 2021-Jul-18 09:51:56 szgeo.wam ATMSPHE FIRE PRESS WATER - 1 190000
7178545 2021-Jul-18 09:40:21 ip43m.wam CLAY LIFE LIFE SAND - 1 1660000
7178544 2021-Jul-18 09:34:54 pi1bq.wam GEYSER MUD STONE STONE - 1 430000
7178543 2021-Jul-18 09:26:43 oywb2.wam EARTHQ LIFE LIFE WATER - 1 670000
7178542 2021-Jul-18 09:12:45 1puqy.wam ARCHIP ASH PRESS PRESS - 1 2740000
7178540 2021-Jul-18 09:12:19 1puqy.wam ARCHIP ASH ASH PRESS - 1 3310000
7178539 2021-Jul-18 09:12:07 oywb2.wam EARTHQ LIFE LIFE SEA - 1 700000
7178538 2021-Jul-18 09:07:01 tqfuq.wam ARCHIP SAND STONE STONE - 1 2710000
7178537 2021-Jul-18 08:29:11 4vibe.wam HEAT HILL PRESS PRESS - 1 1540000
7178535 2021-Jul-18 08:17:00 ulyra.wam EARTH EARTH EARTH TNPLT - 1 820000
7178534 2021-Jul-18 08:15:33 4vibe.wam HEAT HEAT MNTAIN PRESS - 1 760000
7178532 2021-Jul-18 07:42:05 smcbm.wam BACTERI MUD STONE STONE - 1 820000
7178531 2021-Jul-18 06:16:35 1puqy.wam ASH ASH CLAY PRESS - 1 1900000
7178527 2021-Jul-18 05:54:51 a3gug.wam FIRE SUN WATER WATER - 1 640000
7178526 2021-Jul-18 05:43:32 4nkr.wam EARTH EARTH EXPLOSN HILL - 1 1750000
7178525 2021-Jul-18 05:37:39 4nkr.wam BEACH EARTH EARTH EXPLOSN - 1 1720000
7178524 2021-Jul-18 04:34:15 ge3r2.wam SAND SAND SEA SUN - 1 1570000
7178523 2021-Jul-18 04:20:10 .taay.wam DRKGLAS GASOLIN RUST RUST - 1 2800000
7178522 2021-Jul-18 04:07:02 1puqy.wam ASH ASH CLAY STONE - 1 1960000
7178520 2021-Jul-18 03:48:10 4umrg.wam SAND SAND STONE VULCANO - 1 1510000
7178519 2021-Jul-18 03:46:00 evqum.wam OCEAN OCEAN PRESS TIME - 1 5080000
7178518 2021-Jul-18 03:35:39 llyfe.wam GARBAGE HEAT SEA STEAM - 1 160000
7178517 2021-Jul-18 03:32:57 rekowaxbrave BLADE SAND STONE STONE - 1 1780000
7178516 2021-Jul-18 03:29:13 rekowaxbrave AIR SAND SAND STONE - 1 1030000
7178515 2021-Jul-18 03:27:12 rekowaxbrave AIR AIR SAND STONE - 1 580000
7178513 2021-Jul-18 03:19:33 rekowaxbrave LAVA SAND SAND STONE - 1 1060000
7178512 2021-Jul-18 03:19:22 rekowaxbrave LAVA SAND STONE STONE - 1 700000
7178511 2021-Jul-18 03:14:28 rekowaxbrave BACTERI SAND SAND STONE - 1 1600000
7178510 2021-Jul-18 03:11:45 rekowaxbrave DUST SAND SAND STONE - 1 1060000
7178509 2021-Jul-18 03:06:11 rekowaxbrave HEAT SAND SAND STONE - 1 1060000
7178508 2021-Jul-18 02:43:36 1akay.wam CLAY CLAY PRESS SAND - 1 1780000
7178507 2021-Jul-18 02:41:59 c.wuo.wam CLAY SAND SAND SEA - 1 1600000
7178506 2021-Jul-18 02:12:40 rekowaxbrave BUBBLES MUD STONE STONE - 1 1210000
7178505 2021-Jul-18 02:07:32 k4rec.wam LAVA PRESS PRESS TREE - 1 910000
7178502 2021-Jul-18 01:53:57 blacklist.gm PRESS PRESS TIME TREE - 1 5590000
7178501 2021-Jul-18 01:47:16 uleaw.wam PLANT SAND WATER WATER - 1 640000
7178500 2021-Jul-18 01:47:14 m4rb.wam GEYSER LAVA STONE STONE - 1 430000
7178499 2021-Jul-18 01:37:45 gnsba.wam ENERGY ENERGY SAND STONE - 1 640000
7178498 2021-Jul-18 01:36:21 ijqqw.wam MNTAIN SUN WATER WHEAT - 1 2080000
7178497 2021-Jul-18 01:34:01 g3frg.wam LAVA MUD STONE STONE - 1 280000
7178496 2021-Jul-18 01:27:19 g3frg.wam LAVA MUD MUD STONE - 1 220000
7178494 2021-Jul-18 01:22:09 ijqqw.wam MNTAIN RAIN SUN WHEAT - 1 2110000
7178492 2021-Jul-18 00:48:22 3mhr.wam OCEAN PLANT PLANT SALT - 1 550000
7178491 2021-Jul-18 00:44:10 brvbq.wam EARTH ISLE STONE STONE - 1 880000
7178490 2021-Jul-18 00:41:00 exfbk.wam MUD OCEAN PRESS WATER - 1 250000
7178489 2021-Jul-18 00:35:25 1puqy.wam ASH ASH OCEAN STONE - 1 1480000
7178488 2021-Jul-18 00:34:31 1puqy.wam ARCHIP GEYSER STONE STONE - 1 2440000
7178487 2021-Jul-18 00:30:32 pddra.wam PRESS PRESS SEA VULCANO - 1 610000
7178486 2021-Jul-18 00:24:58 pddra.wam PRESS VULCANO WATER WATER - 1 550000
7178485 2021-Jul-18 00:10:46 4umrg.wam ARCHIP ISLE ISLE OCEAN - 1 3550000
7178483 2021-Jul-17 23:41:49 tvvbg.wam EXPLOSN EXPLOSN HILL STONE - 1 2140000
7178482 2021-Jul-17 23:37:37 wszbo.wam MNTAIN PRESS PRESS RIVER - 1 1750000
7178481 2021-Jul-17 23:34:31 3jpqw.wam EARTHQ LIFE LIFE PRESS - 1 700000
7178480 2021-Jul-17 23:34:05 3jpqw.wam EARTHQ HEAT LIFE LIFE - 1 700000
7178479 2021-Jul-17 23:33:41 3jpqw.wam EARTHQ EXPLOSN LIFE LIFE - 1 970000
7178478 2021-Jul-17 23:30:01 3jpqw.wam EARTH EARTHQ LIFE LIFE - 1 670000
7178477 2021-Jul-17 23:29:26 ni1qy.wam PICKAX SEA SUN SUN - 1 3550000
7178476 2021-Jul-17 23:28:59 tgrqy.wam EXPLOSN LIFE LIFE OCEAN - 1 1030000
7178475 2021-Jul-17 23:28:34 tgrqy.wam EARTHQ LIFE LIFE OCEAN - 1 820000
7178474 2021-Jul-17 22:46:21 w.st.wam AIR AIR GEYSER LAVA - 1 250000
7178473 2021-Jul-17 22:44:48 1vvuc.wam CLAY MUD SAND SAND - 1 1600000
7178472 2021-Jul-17 22:43:29 wgtay.wam EARTH FLOOD PRESS PRESS - 1 250000
7178471 2021-Jul-17 22:39:50 wgtay.wam EARTH FLOOD FLOOD PRESS - 1 370000
7178470 2021-Jul-17 22:23:23 p4lqm.wam LIFE LIFE PRESS TIME - 1 5320000
7178469 2021-Jul-17 22:17:48 5klbu.wam LAVA PLANT PLANT SEA - 1 400000
7178467 2021-Jul-17 22:08:35 j3ur.wam BEACH LIFE MUD MUD - 1 1750000
7178466 2021-Jul-17 22:06:15 n5mca.wam ALCOHOL PLANT PLANT WIND - 1 640000
7178465 2021-Jul-17 22:03:55 j3ur.wam ISLE LIFE MUD MUD - 1 1030000
7178464 2021-Jul-17 22:03:03 3xsba.wam BACTERI MNTAIN SEA SEA - 1 1300000
7178463 2021-Jul-17 22:01:11 jtue2.wam MUD SAND SAND WATER - 1 970000
7178462 2021-Jul-17 21:58:14 lsfqw.wam ATOM ATOM HEAT PRESS - 1 6040000
7178461 2021-Jul-17 21:56:31 t5qb2.wam ARCHIP OCEAN PRESS PRESS - 1 2290000
7178460 2021-Jul-17 21:56:03 p4lqm.wam OCEAN OCEAN SHIT STONE - 1 5830000
7178459 2021-Jul-17 21:55:04 p4lqm.wam OCEAN SHIT STONE STONE - 1 5770000
7178458 2021-Jul-17 21:47:32 5klbu.wam SAND SEA SEA WAVE - 1 940000
7178455 2021-Jul-17 21:42:08 1puqy.wam ASH SODA STONE STONE - 1 2590000
7178454 2021-Jul-17 21:40:30 p4lqm.wam SEA SHIT STONE STONE - 1 5650000
7178453 2021-Jul-17 21:40:10 p4lqm.wam SEA SEA SHIT STONE - 1 5590000
7178451 2021-Jul-17 21:34:15 osiqw.wam EARTH LIFE SAND SAND - 1 1210000
7178449 2021-Jul-17 21:28:53 4lsrs.wam ATMSPHE EARTH EARTH WATER - 1 160000
7178448 2021-Jul-17 21:20:34 1puqy.wam ASH ASH SAND STONE - 1 1780000
7178447 2021-Jul-17 21:17:24 4umrg.wam ISLE ISLE STONE WAVE - 1 1840000
7178445 2021-Jul-17 21:00:47 4umrg.wam SAND SAND STONE WAVE - 1 1420000
7178444 2021-Jul-17 20:57:14 .ldbo.wam EXPLOSN HILL STONE STONE - 1 1930000
7178443 2021-Jul-17 20:56:30 2gbaq.wam MNTAIN RIVER STONE STONE - 1 1870000
7178442 2021-Jul-17 20:49:35 t4uqy.wam HILL HILL STONE WATER - 1 2950000
7178441 2021-Jul-17 20:48:46 twdqq.wam OXYGEN PRESS STONE STONE - 1 3010000
7178440 2021-Jul-17 20:45:57 ni1qy.wam BACTERI BUBBLES STONE STONE - 1 1750000
7178439 2021-Jul-17 20:44:21 t4uqy.wam PLANT SEA WAVE WAVE - 1 1000000
7178438 2021-Jul-17 20:42:23 ttrqw.wam ASH SAND STONE WATER - 1 1180000
7178437 2021-Jul-17 20:42:22 twdqq.wam OXYGEN PRESS PRESS STONE - 1 2950000
7178436 2021-Jul-17 20:42:06 .12qw.wam LIFE LIFE PLANT SEA - 1 760000
7178435 2021-Jul-17 20:40:38 t4uqy.wam ATMSPHE ATMSPHE PRESS SEA - 1 340000
7178433 2021-Jul-17 20:37:47 l3zra.wam CLAY MUD MUD SAND - 1 1180000
7178431 2021-Jul-17 20:27:19 gk3bk.wam CLAY CLAY EARTH STONE - 1 1390000
7178430 2021-Jul-17 20:18:46 zj.rc.wam EARTH WATER WAVE WAVE - 1 820000
7178429 2021-Jul-17 20:16:55 aljqy.wam EXPLOSN PLANT PLANT SEA - 1 670000
7178428 2021-Jul-17 20:00:43 zbqrc.wam BEACH EARTH STONE STONE - 1 1600000
7178427 2021-Jul-17 19:57:56 ekvbi.wam ENERGY ENERGY OCEAN SALT - 1 310000
7178426 2021-Jul-17 19:53:08 iybcc.wam CLAY PRESS PRESS RIVER - 1 1750000
7178425 2021-Jul-17 19:49:58 3diau.wam DUST HEAT SAND SAND - 1 1000000
7178424 2021-Jul-17 19:47:39 l2ueo.wam DUST DUST LIFE SALT - 1 430000
7178423 2021-Jul-17 19:46:47 ekvbi.wam DUST LIFE MUD SEA - 1 400000
7178422 2021-Jul-17 19:36:12 l2ueo.wam ASH LIFE SEA SEA - 1 970000
7178421 2021-Jul-17 19:23:21 l2ueo.wam DUST EARTH EARTH OCEAN - 1 220000
7178420 2021-Jul-17 19:19:19 5..rg.wam EARTH RAIN RAIN SALT - 1 160000
7178419 2021-Jul-17 19:12:33 zbsau.wam ENERGY PRESS SALT SALT - 1 220000
7178418 2021-Jul-17 19:07:35 iybcc.wam MUD OCEAN OCEAN SAND - 1 820000
7178417 2021-Jul-17 19:03:36 wpsca.wam ELECTRC EXPLOSN GASOLIN METAL - 1 3520000
7178416 2021-Jul-17 19:03:21 rm1qy.wam GRASS MUD MUD PRESS - 1 370000
7178415 2021-Jul-17 18:59:01 rm1qy.wam EARTH EARTH GRASS PRESS - 1 310000
7178414 2021-Jul-17 18:57:24 rm1qy.wam EARTH GRASS PRESS PRESS - 1 340000
7178413 2021-Jul-17 18:55:39 wpsca.wam ELECTRC GASOLIN METAL METAL - 1 3880000
7178412 2021-Jul-17 18:47:31 r4sra.wam ATMSPHE SEA STONE STONE - 1 370000
7178410 2021-Jul-17 18:40:52 2omrq.wam LAVA LAVA SALT SEA - 1 190000
7178409 2021-Jul-17 18:29:44 jtue2.wam ENERGY PRESS PRESS SAND - 1 580000
7178407 2021-Jul-17 18:27:23 ibotyourgame METAL SALT STONE STONE - 1 940000
7178406 2021-Jul-17 18:26:39 5h2ru.wam ENERGY HEAT OCEAN OCEAN - 1 400000
7178405 2021-Jul-17 18:26:24 5h2ru.wam ENERGY HEAT STONE STONE - 1 280000
7178404 2021-Jul-17 18:26:06 5h2ru.wam ENERGY PLANT STONE STONE - 1 400000
7178403 2021-Jul-17 18:25:39 5h2ru.wam EARTH ENERGY OCEAN OCEAN - 1 370000
7178402 2021-Jul-17 18:24:12 q.uqy.wam HEAT PRESS PRESS SALT - 1 190000
7178401 2021-Jul-17 18:23:17 5h2ru.wam ENERGY PLANT PLANT STONE - 1 460000
7178400 2021-Jul-17 18:22:50 5h2ru.wam EARTH ENERGY SEA SEA - 1 130000
7178399 2021-Jul-17 18:16:32 sxyqy.wam EARTH EARTH MUD SALT - 1 130000
7178397 2021-Jul-17 18:12:33 3aqr2.wam ENERGY ENERGY HEAT OCEAN - 1 280000
7178396 2021-Jul-17 18:10:33 sxyqy.wam EARTH EARTH FLOOD WATER - 1 190000
7178395 2021-Jul-17 18:10:18 sxyqy.wam EARTH EARTH SWAMP WATER - 1 280000
7178394 2021-Jul-17 18:06:07 iybcc.wam DUST DUST EXPLOSN STONE - 1 490000
7178393 2021-Jul-17 17:59:28 r3ab2.wam AIR AIR PLANT STONE - 1 280000
7178392 2021-Jul-17 17:58:44 sxyqy.wam EARTH EARTH ENERGY SEA - 1 100000
7178390 2021-Jul-17 17:56:42 a5nbs.wam EXPLOSN EXPLOSN PRESS STONE - 1 760000
7178389 2021-Jul-17 17:55:52 sxyqy.wam PLANT RAIN STONE STONE - 1 400000
7178388 2021-Jul-17 17:53:46 zbsau.wam COAL LAVA PRESS PRESS - 1 400000
7178387 2021-Jul-17 17:51:21 sxyqy.wam EARTH STEAM STONE STONE - 1 250000
7178386 2021-Jul-17 17:43:45 zbsau.wam LAVA LAVA MUD PRESS - 1 160000
7178385 2021-Jul-17 17:41:52 c.wuo.wam LIFE LIFE OCEAN TIME - 1 5440000
7178384 2021-Jul-17 17:38:20 rxtqu.wam EARTH EARTH HEAT MUD - 1 100000
7178383 2021-Jul-17 17:37:04 drk2liteacct GEYSER MUD MUD OCEAN - 1 430000
7178381 2021-Jul-17 17:35:16 4nkr.wam ENERGY MUD STONE STONE - 2 280000
7178380 2021-Jul-17 17:35:05 zbsau.wam COAL PRESS PRESS RAIN - 1 400000
7178379 2021-Jul-17 17:31:27 txyaw.wam BACTERI HEAT WATER WATER - 1 640000
7178378 2021-Jul-17 17:30:34 drk2liteacct EARTH EARTH GEYSER OCEAN - 1 370000
7178377 2021-Jul-17 17:29:44 4nkr.wam ENERGY LAVA LAVA OCEAN - 1 280000
7178376 2021-Jul-17 17:19:13 iybcc.wam ENERGY ENERGY EXPLOSN STONE - 1 490000
7178374 2021-Jul-17 17:10:03 epzcm.wam LIFE LIFE PRESS RIVER - 1 1630000
7178373 2021-Jul-17 17:02:18 4umrg.wam MNTAIN MNTAIN PRESS STONE - 1 1420000
7178372 2021-Jul-17 16:58:06 irosfearwax1 EARTH GEYSER GEYSER HEAT - 1 430000
7178371 2021-Jul-17 16:46:57 jlybc.wam LAVA LAVA PRESS WAVE - 1 520000
7178368 2021-Jul-17 16:40:46 5qupe.wam LIFE PRESS PRESS RAIN - 1 400000
7178367 2021-Jul-17 16:29:44 4umrg.wam GEYSER ISLE STONE STONE - 1 1060000
7178365 2021-Jul-17 16:12:50 pi1bq.wam GEYSER SALT SALT STONE - 1 430000
7178363 2021-Jul-17 16:03:35 hxudy.wam GEYSER STEAM STEAM STONE - 1 370000
7178362 2021-Jul-17 15:59:27 qdvra.wam CABBAGE PRESS SALT SALT - 1 370000
7178361 2021-Jul-17 15:55:22 domra.wam BACTERI BEACH PRESS PRESS - 1 2050000
7178360 2021-Jul-17 15:40:43 1habi.wam BACTERI EARTHQ EARTHQ OCEAN - 1 940000
7178359 2021-Jul-17 15:29:24 4umrg.wam MNTAIN STEAM WATER WATER - 1 700000
7178358 2021-Jul-17 15:28:22 4umrg.wam HILL STONE WATER WATER - 1 1540000
7178357 2021-Jul-17 15:23:59 4umrg.wam HILL STEAM WATER WATER - 1 1480000
7178356 2021-Jul-17 15:21:52 ut5aw.wam LAVA LAVA LIFE OCEAN - 1 520000
7178354 2021-Jul-17 15:17:23 1puqy.wam ASH MUD PRESS PRESS - 1 730000
7178353 2021-Jul-17 15:16:12 1puqy.wam ASH PRESS PRESS SAND - 1 1150000
7178352 2021-Jul-17 15:10:24 1puqy.wam ASH ASH STONE WATER - 1 1330000
7178350 2021-Jul-17 15:00:29 ohlqy.wam BUBBLES LAVA LAVA OCEAN - 1 1210000
7178349 2021-Jul-17 14:58:16 qo4r2.wam MUD MUD OCEAN SALT - 1 310000
7178348 2021-Jul-17 14:57:58 qo4r2.wam GEYSER MUD MUD SALT - 1 340000
7178347 2021-Jul-17 14:57:52 q5eay.wam ATMSPHE OCEAN OCEAN STONE - 1 550000
7178346 2021-Jul-17 14:54:09 rgqee.wam DUST SAND SEA SEA - 1 580000
7178345 2021-Jul-17 14:50:25 rgqee.wam DUST SAND WATER WATER - 1 520000
7178344 2021-Jul-17 14:45:42 5..rg.wam AIR AIR RAIN STONE - 1 160000
7178343 2021-Jul-17 14:45:30 rgqee.wam OCEAN OCEAN SALT SAND - 1 850000
7178342 2021-Jul-17 14:44:04 1habi.wam EARTHQ EARTHQ OCEAN PRESS - 1 400000
7178341 2021-Jul-17 14:39:25 rgqee.wam DUST OCEAN OCEAN SAND - 1 820000
7178340 2021-Jul-17 14:33:50 lbaba.wam EARTHQ LIFE OCEAN OCEAN - 1 700000
7178339 2021-Jul-17 14:31:30 4nkr.wam EARTHQ RAIN RAIN STONE - 1 280000
7178338 2021-Jul-17 14:30:33 14vb2.wam DUST HEAT SEA SEA - 1 160000
7178337 2021-Jul-17 14:30:27 lbaba.wam EARTHQ LIFE SEA SEA - 1 460000
7178336 2021-Jul-17 14:27:22 rinb2.wam AIR EARTH PRESS PRESS - 1 100000
7178335 2021-Jul-17 14:26:51 lbaba.wam EARTHQ LIFE WATER WATER - 1 400000
7178334 2021-Jul-17 14:24:35 rinb2.wam AIR EARTH STONE STONE - 1 220000
7178333 2021-Jul-17 14:16:05 kziem.wam FIRE FIRE HEAT WATER - 1 70000
7178332 2021-Jul-17 14:15:02 5uzr.wam CLAY SAND SEAWEED SEAWEED - 1 3880000
7178331 2021-Jul-17 14:05:05 c4.r4.wam OCEAN SAND SAND SEA - 1 1120000
7178330 2021-Jul-17 14:03:47 4nkr.wam SALT STEAM STONE STONE - 1 310000
7178329 2021-Jul-17 13:56:06 4nkr.wam ATMSPHE SALT STONE STONE - 1 400000
7178328 2021-Jul-17 13:40:33 4nkr.wam EARTH EARTH RAIN STEAM - 1 100000
7178326 2021-Jul-17 13:39:11 4nkr.wam EARTH EARTH HEAT RAIN - 1 100000
7178325 2021-Jul-17 13:38:38 4nkr.wam EARTH EARTH RAIN WATER - 1 70000
7178324 2021-Jul-17 13:32:42 gnsba.wam OBSIDIN OBSIDIN SEA STONE - 1 400000
7178323 2021-Jul-17 13:30:25 txyaw.wam EXPLOSN SAND SAND STONE - 1 1330000
7178322 2021-Jul-17 13:28:53 gnsba.wam OBSIDIN OBSIDIN OCEAN STONE - 1 520000
7178321 2021-Jul-17 13:28:15 4nkr.wam MNTAIN RAIN RAIN WIND - 1 850000
7178320 2021-Jul-17 13:25:22 a5nbs.wam FIRE MUD MUD SALT - 1 160000
7178318 2021-Jul-17 13:05:43 4nkr.wam FIRE OCEAN STONE STONE - 1 370000
7178317 2021-Jul-17 13:03:17 4nkr.wam ATMSPHE OCEAN STONE STONE - 1 490000
7178316 2021-Jul-17 13:02:16 gcxr2.wam DUST DUST MUD RAIN - 1 160000
7178315 2021-Jul-17 13:02:02 a5nbs.wam DUST DUST HEAT WATER - 1 130000
7178314 2021-Jul-17 12:58:15 gcxr2.wam DUST MUD MUD RAIN - 1 160000
7178313 2021-Jul-17 12:55:27 4nkr.wam ATMSPHE STONE STONE WATER - 1 340000
7178312 2021-Jul-17 12:50:22 niftyguitars EARTH GEYSER GEYSER STONE - 1 490000
7178310 2021-Jul-17 12:46:43 l3zra.wam HEAT MUD MUD SAND - 1 580000
7178309 2021-Jul-17 12:45:26 gnsba.wam GRPHITE SALT SEA SEA - 1 490000
7178308 2021-Jul-17 12:43:10 jooam.waa BACTERI BACTERI SAND SEA - 1 1660000
7178307 2021-Jul-17 12:40:20 gnsba.wam BACTERI CLAY SEA SEA - 1 1300000
7178306 2021-Jul-17 12:21:14 a5nbs.wam COAL MUD MUD WATER - 1 370000
7178305 2021-Jul-17 12:04:17 juanjonck123 EARTH OCEAN SAND SAND - 1 1090000
7178303 2021-Jul-17 11:32:57 jahhwehonwax LIFE RIVER SALT SEA - 1 1420000
7178301 2021-Jul-17 11:23:24 jahhwehonwax BRICK LIFE SALT SEA - 1 490000
7178300 2021-Jul-17 11:20:04 jahhwehonwax EARTHQ LIFE SALT SEA - 1 490000
7178299 2021-Jul-17 11:17:42 xu3b.wam ENERGY LAVA SEA SEA - 1 160000
7178298 2021-Jul-17 11:03:13 v4.bc.wam ATMSPHE LIFE SALT SEA - 1 520000
7178297 2021-Jul-17 10:55:49 pddra.wam AIR LIFE STONE STONE - 1 490000
7178296 2021-Jul-17 10:52:31 pddra.wam AIR EARTH EARTH LIFE - 1 310000
7178295 2021-Jul-17 10:50:01 1acba.wam CLAY EARTH OCEAN OCEAN - 1 970000
7178294 2021-Jul-17 10:38:26 pddra.wam LIFE STONE STONE STORM - 1 1210000
7178293 2021-Jul-17 10:38:24 jvnre.wam STONE STONE VULCANO WATER - 1 700000
7178292 2021-Jul-17 10:33:39 axzba.wam COAL LIFE SEA SEA - 1 640000
7178291 2021-Jul-17 10:26:11 g53ra.wam GEYSER HEAT HEAT OCEAN - 1 430000
7178290 2021-Jul-17 10:23:10 g53ra.wam GEYSER OCEAN SALT SALT - 1 490000
7178287 2021-Jul-17 10:14:24 g53ra.wam ENERGY ENERGY OCEAN VULCANO - 1 730000
7178285 2021-Jul-17 09:52:32 tpar4.wam EARTH EARTH EXPLOSN SEA - 1 370000
7178284 2021-Jul-17 09:47:13 l3zra.wam PLANT PLANT SALT WATER - 1 400000
7178283 2021-Jul-17 09:19:57 5h2ru.wam EARTHQ STONE WATER WATER - 1 220000
7178282 2021-Jul-17 09:17:25 1puqy.wam ASH PRESS PRESS TREE - 1 1480000
7178281 2021-Jul-17 09:13:40 5h2ru.wam EARTHQ STONE STONE WATER - 1 310000
7178279 2021-Jul-17 09:06:26 u1bro.wam BACTERI ENERGY SEA SEA - 1 700000
7178278 2021-Jul-17 08:58:50 u1bro.wam BACTERI SAND SAND SEA - 1 1540000
7178277 2021-Jul-17 08:53:19 jppr2.wam BUBBLES HEAT STONE STONE - 1 1210000
7178276 2021-Jul-17 08:52:32 1puqy.wam ASH ASH EARTH STONE - 1 1330000
7178275 2021-Jul-17 08:51:18 1puqy.wam ASH ASH MUD PRESS - 1 1300000
7178273 2021-Jul-17 07:59:42 5h2ru.wam EARTHQ OCEAN OCEAN PLANT - 1 580000
7178272 2021-Jul-17 07:57:44 5h2ru.wam BACTERI EARTHQ OCEAN OCEAN - 1 1000000
7178271 2021-Jul-17 07:52:00 za5ne.wam CLAY PRESS PRESS SALT - 1 790000
7178270 2021-Jul-17 07:23:45 drk2liteacct ENERGY ENERGY METAL STONE - 1 850000
7178269 2021-Jul-17 06:49:30 cv4am.wam ALCOHOL DRKGLAS GRAPE GRAPE - 1 7030000
7178267 2021-Jul-17 06:39:04 lxrr4.wam ENERGY PRESS SAND SAND - 1 1000000
7178265 2021-Jul-17 06:33:23 qqudw.wam GEYSER PRESS PRESS SALT - 1 340000
7178264 2021-Jul-17 06:32:33 db1rc.wam EARTH EARTH OCEAN RAIN - 1 220000
7178262 2021-Jul-17 06:30:01 db1rc.wam PRESS RAIN RAIN SEA - 1 160000
7178261 2021-Jul-17 06:28:50 1zpay.wam RIVER STONE STONE SUN - 1 1840000
7178260 2021-Jul-17 06:28:19 db1rc.wam EARTH EARTH RAIN SEA - 1 100000
7178259 2021-Jul-17 06:27:41 db1rc.wam EARTH RAIN RAIN SEA - 1 130000
7178258 2021-Jul-17 06:24:32 c4.r4.wam HEAT HEAT ISLE WATER - 1 760000
7178257 2021-Jul-17 06:23:52 qqudw.wam GEYSER PRESS SALT SALT - 1 370000
7178256 2021-Jul-17 06:22:31 tceua.wam HEAT HEAT SUN WAVE - 1 1090000
7178255 2021-Jul-17 06:14:16 1zpay.wam LIFE LIFE SAND WATER - 1 1030000
7178254 2021-Jul-17 06:11:18 22mr2.wam BEACH OCEAN STONE STONE - 1 1750000
7178252 2021-Jul-17 05:56:21 g3frg.wam LAVA LAVA MUD SAND - 1 580000
7178251 2021-Jul-17 05:51:49 ox.b4.wam DUST MUD WATER WATER - 1 100000
7178250 2021-Jul-17 05:45:55 25xbo.wam FIRE FIRE MUD STONE - 1 160000
7178249 2021-Jul-17 05:42:01 22mr2.wam EXPLOSN MUD MUD STONE - 1 490000
7178248 2021-Jul-17 05:29:59 4h2b.wam HEAT MOSS SEA SEA - 1 400000
7178247 2021-Jul-17 05:28:50 g3frg.wam EARTH SAND SAND SEA - 1 970000
7178246 2021-Jul-17 05:16:09 ge3r2.wam AIR HEAT STONE STONE - 1 250000
7178245 2021-Jul-17 05:14:20 4h2b.wam HEAT OBSIDIN OBSIDIN SEA - 1 340000
7178244 2021-Jul-17 05:12:27 4h2b.wam HEAT MOSS OBSIDIN OBSIDIN - 1 580000
7178243 2021-Jul-17 05:10:48 asnbk.wam ATMSPHE SAND STONE STONE - 1 790000
7178242 2021-Jul-17 05:03:43 asnbk.wam PICKAX SAND STONE STONE - 1 2950000
7178241 2021-Jul-17 04:56:42 ge3r2.wam HEAT SAND SAND WATER - 1 970000
7178240 2021-Jul-17 04:55:58 5..rg.wam AIR RAIN RAIN STONE - 1 190000
7178239 2021-Jul-17 04:55:17 oegr2.wam DUST EXPLOSN STONE STONE - 1 550000
7178238 2021-Jul-17 04:45:34 4cnr4.wam DUST DUST DUST EARTHQ - 1 220000
7178235 2021-Jul-17 04:35:45 1l5ra.wam DUST MUD MUD SEA - 1 160000
7178233 2021-Jul-17 04:18:49 1l5ra.wam MUD RAIN SEA SEA - 1 160000
7178232 2021-Jul-17 04:16:51 qo4r2.wam GEYSER MUD MUD STEAM - 1 310000
7178231 2021-Jul-17 04:16:30 qo4r2.wam GEYSER MUD MUD STONE - 1 370000
7178230 2021-Jul-17 04:09:13 4umrg.wam RUST SAND SAND STONE - 1 1720000
7178229 2021-Jul-17 04:04:26 4umrg.wam EXPLOSN RUST STONE STONE - 1 1210000
7178227 2021-Jul-17 04:02:58 4umrg.wam EARTHQ EARTHQ RUST STONE - 1 1000000
7178226 2021-Jul-17 03:48:48 4umrg.wam CLAY RUST STONE STONE - 1 1540000
7178224 2021-Jul-17 03:45:38 ijar.wam DUST EARTH EXPLOSN EXPLOSN - 1 670000
7178223 2021-Jul-17 03:45:21 ijar.wam DUST DUST EARTH EXPLOSN - 1 400000
7178222 2021-Jul-17 03:45:00 ijar.wam DUST EARTH EARTH EXPLOSN - 1 370000
7178221 2021-Jul-17 03:43:25 gk3bk.wam CLAY EARTH EARTH HEAT - 1 700000
7178220 2021-Jul-17 03:36:39 4umrg.wam MNTAIN OCEAN OCEAN PRESS - 1 1000000
7178218 2021-Jul-17 03:18:16 1puqy.wam ASH PRESS WATER WATER - 1 670000
7178216 2021-Jul-17 03:12:49 gk3bk.wam EARTH HEAT HEAT SALT - 1 160000
7178215 2021-Jul-17 03:12:36 euuec.wam GARBAGE OCEAN OCEAN PRESS - 1 400000
7178214 2021-Jul-17 03:12:33 4umrg.wam EARTH EARTH EXPLOSN RAIN - 2 370000
7178213 2021-Jul-17 03:10:29 euuec.wam GARBAGE PRESS SEA SEA - 1 160000
7178212 2021-Jul-17 03:08:17 euuec.wam GARBAGE PRESS WATER WATER - 1 100000
7178211 2021-Jul-17 02:58:44 4umrg.wam EARTH EARTH LAVA SEA - 1 100000
7178210 2021-Jul-17 02:54:24 4umrg.wam EARTH EARTH LAVA WAVE - 1 460000
7178209 2021-Jul-17 02:50:04 qk1bm.wam EARTH MUD MUD SEA - 1 130000
7178208 2021-Jul-17 02:44:09 rngbi.wam OCEAN PRESS PRESS SWAMP - 1 490000
7178207 2021-Jul-17 02:31:24 budr.wam EARTH EARTH EXPLOSN MNTAIN - 1 970000
7178206 2021-Jul-17 02:30:05 gpbd.wam DUST GEYSER PRESS PRESS - 1 310000
7178203 2021-Jul-17 02:13:08 rgqee.wam SEA SUN SWAMP SWAMP - 1 1150000
7178202 2021-Jul-17 01:55:56 rgqee.wam LAVA LAVA OCEAN SUN - 1 850000
7178201 2021-Jul-17 01:34:53 so.r2.wam HEAT SAND STEAM STEAM - 1 580000
7178200 2021-Jul-17 01:29:05 so.r2.wam HEAT HEAT STEAM STONE - 1 220000
7178198 2021-Jul-17 01:27:39 ni1qy.wam ATMSPHE HEAT HEAT OCEAN - 1 370000
7178197 2021-Jul-17 01:24:38 ni1qy.wam ATMSPHE HEAT HEAT SEA - 1 250000
7178195 2021-Jul-17 01:22:12 tvvbg.wam EXPLOSN EXPLOSN MNTAIN STONE - 1 1360000
7178193 2021-Jul-17 01:07:36 1puqy.wam ASH ASH PRESS WATER - 2 1270000
7178192 2021-Jul-17 01:06:18 g..sg.wam OCEAN PLANT SUN SUN - 1 1540000
7178191 2021-Jul-17 01:01:30 5czbk.wam EARTH STONE STONE WIND - 1 340000
7178190 2021-Jul-17 01:01:04 1puqy.wam ASH PLANT PRESS PRESS - 1 850000
7178189 2021-Jul-17 01:00:14 1puqy.wam ASH PRESS PRESS WATER - 1 700000
7178188 2021-Jul-17 00:50:43 w.st.wam CLAY SALT WATER WATER - 1 730000
7178187 2021-Jul-17 00:50:16 w.st.wam CLAY SALT SALT WATER - 1 790000
7178186 2021-Jul-17 00:46:51 a.ou2.wam ISLE STONE STONE VULCANO - 1 1360000
7178185 2021-Jul-17 00:31:12 4umrg.wam ISLE PRESS WAVE WAVE - 1 1510000
7178184 2021-Jul-17 00:30:14 1puqy.wam ASH PLANT PLANT STONE - 1 1030000
7178183 2021-Jul-17 00:26:40 ni1qy.wam FIRE FIRE POT WATER - 1 1690000
7178182 2021-Jul-17 00:26:38 1siv.wam STONE STONE WATER WAVE - 1 610000
7178180 2021-Jul-17 00:10:11 mexicanikoss AIR FIRE FIRE STONE - 1 130000
7178179 2021-Jul-17 00:06:59 qo4r2.wam MUD PRESS PRESS STEAM - 1 160000
7178178 2021-Jul-17 00:06:10 lkeb2.wam ENERGY ENERGY SEA STONE - 1 220000
7178177 2021-Jul-17 00:06:08 mexicanikoss FIRE FIRE SALT STONE - 1 190000
7178176 2021-Jul-17 00:06:04 k4may.wam EARTH MNTAIN SUN WATER - 1 1270000
7178175 2021-Jul-17 00:04:49 ekvbi.wam ASH PRESS SEA SEA - 1 730000
7178173 2021-Jul-17 00:00:57 r3ab2.wam PLANT STONE WIND WIND - 1 520000
7178172 2021-Jul-16 23:57:36 5klbu.wam LAVA LAVA SEA STONE - 1 220000
7178171 2021-Jul-16 23:56:01 4arr2.wam BEACH STONE STONE WAVE - 1 1990000
7178170 2021-Jul-16 23:54:43 ekvbi.wam DUST DUST SALT SEA - 1 190000
7178168 2021-Jul-16 23:53:22 5..rg.wam SAND WATER WATER WIND - 1 610000
7178167 2021-Jul-16 23:52:59 ekvbi.wam DUST SALT SEA SEA - 1 190000
7178166 2021-Jul-16 23:51:14 ekvbi.wam SALT SAND SEA SEA - 1 610000
7178165 2021-Jul-16 23:50:55 t5qb2.wam DRUM METAL MUSIC STEEL - 1 18790000
7178164 2021-Jul-16 23:50:31 t5qb2.wam DRUM METAL SOUND STEEL - 1 6850000
7178163 2021-Jul-16 23:49:43 4vibe.wam MNTAIN SALT WATER WATER - 1 730000
7178162 2021-Jul-16 23:49:06 jwlr4.wam BACTERI EARTH EARTH SAND - 1 1060000
7178161 2021-Jul-16 23:46:31 e5ydi.wam AIR SALT SALT STONE - 1 250000
7178160 2021-Jul-16 23:45:08 ekvbi.wam DUST OCEAN OCEAN RAIN - 1 400000
7178159 2021-Jul-16 23:41:47 ekvbi.wam DUST DUST OCEAN RAIN - 1 280000
7178158 2021-Jul-16 23:41:05 k4may.wam ALCOHOL EARTH PLANT WATER - 1 370000
7178157 2021-Jul-16 23:40:26 4vibe.wam MNTAIN MNTAIN SALT WATER - 1 1360000
7178156 2021-Jul-16 23:37:48 ekvbi.wam ASH ASH PRESS RAIN - 1 1300000
7178155 2021-Jul-16 23:36:17 jtue2.wam ISLE SEA STONE STONE - 1 910000
7178154 2021-Jul-16 23:31:05 avlr.wam CACTUS PRESS STONE STONE - 1 1600000
7178152 2021-Jul-16 23:29:04 1puqy.wam ASH EARTH EARTH STONE - 1 730000
7178151 2021-Jul-16 23:28:02 zj.rc.wam LIFE SUN SUN WATER - 1 1510000
7178150 2021-Jul-16 23:26:00 1puqy.wam ASH EARTH EARTH SEA - 1 670000
7178149 2021-Jul-16 23:24:23 1puqy.wam ASH ASH EARTH PRESS - 1 1270000
7178148 2021-Jul-16 23:23:36 1puqy.wam ASH ASH OCEAN PRESS - 1 1420000
7178147 2021-Jul-16 23:23:20 zj.rc.wam HEAT LIFE LIFE SEA - 1 640000
7178146 2021-Jul-16 23:23:09 1puqy.wam ASH ASH PRESS SEA - 1 1300000
7178145 2021-Jul-16 23:21:18 1puqy.wam ASH EARTH EARTH PRESS - 1 670000
7178144 2021-Jul-16 23:20:42 rtieg.wam SMOKE SMOKE TOBACCO TOBACCO - 1 1360000
7178143 2021-Jul-16 23:20:41 1puqy.wam ASH EARTH PRESS PRESS - 1 700000
7178142 2021-Jul-16 23:20:40 ekvbi.wam RAIN SAND SAND WIND - 1 1090000
7178141 2021-Jul-16 23:19:19 1puqy.wam ASH OCEAN PRESS PRESS - 1 850000
7178140 2021-Jul-16 23:19:00 1puqy.wam ASH PRESS PRESS SEA - 1 730000
7178139 2021-Jul-16 23:18:56 axzba.wam GEYSER STONE STONE SUN - 1 1000000
7178138 2021-Jul-16 23:16:36 ekvbi.wam DUST RAIN WIND WIND - 1 340000
7178137 2021-Jul-16 23:14:28 ekvbi.wam DUST RAIN RAIN WIND - 1 250000
7178136 2021-Jul-16 23:14:15 axzba.wam EARTHQ GEYSER STONE STONE - 1 490000
7178135 2021-Jul-16 23:12:07 ekvbi.wam DUST DUST RAIN WIND - 1 250000
7178133 2021-Jul-16 22:59:15 5..rg.wam RAIN RAIN STONE WIND - 1 310000
7178132 2021-Jul-16 22:46:19 rtieg.wam TOBACCO TOBACCO TOBACCO TOBACCO - 1 1360000
7178130 2021-Jul-16 22:39:18 ozjr.wam BACTERI OCEAN OCEAN SUN - 1 1510000
7178129 2021-Jul-16 22:27:24 iybcc.wam EARTH PRESS PRESS SWAMP - 1 340000
7178128 2021-Jul-16 22:19:23 kxree.wam OXYGEN SALT STONE STONE - 1 3040000
7178127 2021-Jul-16 22:17:04 a5nbs.wam ENERGY EXPLOSN STONE STONE - 1 550000
7178125 2021-Jul-16 22:01:52 1vpr.wam EARTHQ PRESS WATER WATER - 1 160000
7178124 2021-Jul-16 22:00:58 lf4b2.wam HEAT MNTAIN MNTAIN SEA - 1 1360000
7178123 2021-Jul-16 21:56:06 1acba.wam EARTH EARTH MUD OCEAN - 1 220000
7178122 2021-Jul-16 21:47:04 ydnuk.wam EARTH MUD MUD SAND - 1 550000
7178121 2021-Jul-16 21:46:58 pykru.wam LAVA PRESS SAND SAND - 1 1000000
7178120 2021-Jul-16 21:35:37 c.wuo.wam OCEAN SUN WIND WIND - 1 1030000
7178119 2021-Jul-16 21:34:00 banc4.wam EARTHQ OCEAN OCEAN STONE - 1 520000
7178118 2021-Jul-16 21:30:15 osiqw.wam EARTH EARTH SAND SEA - 1 520000
7178117 2021-Jul-16 21:29:57 1uvb4.wam EARTH EARTH FIRE STONE - 1 130000
7178116 2021-Jul-16 21:29:33 lonestarbank GRPHITE PRESS STONE STONE - 1 580000
7178115 2021-Jul-16 21:28:27 osiqw.wam EARTH EARTH LIFE SAND - 1 760000
7178114 2021-Jul-16 21:27:25 jooam.waa CLAY CLAY LIFE SEA - 1 1600000
7178113 2021-Jul-16 21:26:18 c.wuo.wam SEA SUN WIND WIND - 1 910000
7178112 2021-Jul-16 21:20:45 1acba.wam EARTH MUD OCEAN OCEAN - 1 370000
7178111 2021-Jul-16 21:19:24 1acba.wam MUD OCEAN OCEAN SEA - 1 400000
7178110 2021-Jul-16 21:18:56 ox.b4.wam CLAY RAIN RAIN STONE - 1 820000
7178109 2021-Jul-16 21:17:22 zbqrc.wam BEACH LIFE STONE STONE - 1 1870000
7178106 2021-Jul-16 21:10:08 t5qb2.wam CLAY EARTH EARTH SAND - 1 1120000
7178104 2021-Jul-16 21:04:41 4umrg.wam EXPLOSN PRESS SEA SEA - 1 430000
7178103 2021-Jul-16 21:03:25 zbqrc.wam BEACH PLANT STONE STONE - 1 1750000
7178102 2021-Jul-16 21:03:18 l3zra.wam LIFE LIFE SUN WAVE - 1 1570000
7178101 2021-Jul-16 21:02:10 4cnr4.wam DUST DUST DUST WATER - 1 130000
7178100 2021-Jul-16 21:01:39 4umrg.wam EARTH EARTH EXPLOSN VULCANO - 1 820000
7178099 2021-Jul-16 20:59:54 4umrg.wam EARTH EARTH EARTHQ EXPLOSN - 1 430000
7178098 2021-Jul-16 20:54:58 4umrg.wam EARTH EXPLOSN EXPLOSN STONE - 1 730000
7178097 2021-Jul-16 20:53:14 f.cay.wam DUST PRESS SAND SAND - 1 1000000
7178096 2021-Jul-16 20:52:44 katharsiseos EARTH OCEAN OCEAN WAVE - 1 730000
7178095 2021-Jul-16 20:51:02 wcqco.wam ALCOHOL BOILER WATER WHEAT - 1 1780000
7178094 2021-Jul-16 20:45:35 sxyqy.wam EARTH EARTH FLOOD STONE - 1 280000
7178093 2021-Jul-16 20:45:24 xmnrc.wam BRICK BRICK EARTH WATER - 1 220000
7178092 2021-Jul-16 20:45:12 zknby.wam COAL EARTH EARTH STONE - 1 400000
7178091 2021-Jul-16 20:44:34 sxyqy.wam EARTH FLOOD STONE STONE - 1 370000
7178090 2021-Jul-16 20:43:39 xmnrc.wam BRICK BRICK EARTH FIRE - 1 220000
7178089 2021-Jul-16 20:43:32 rm1qy.wam EARTH EARTH MOSS STONE - 1 400000
7178088 2021-Jul-16 20:43:13 skiebeast111 MUD MUD SAND WAVE - 1 940000
7178087 2021-Jul-16 20:41:39 katharsiseos EARTH OCEAN WAVE WAVE - 1 970000
7178086 2021-Jul-16 20:41:23 drk2liteacct HEAT HEAT PETRID STONE - 1 2230000
7178084 2021-Jul-16 20:34:50 wcqco.wam BOILER HEAT WATER WHEAT - 1 1630000
7178083 2021-Jul-16 20:31:48 vowre.wam DUST DUST GEYSER PRESS - 1 310000
7178082 2021-Jul-16 20:18:45 sxyqy.wam EARTH EARTH EARTHQ STONE - 1 220000
7178081 2021-Jul-16 20:11:42 pvir.wam CLAY CLAY HEAT OCEAN - 1 1480000
7178080 2021-Jul-16 20:08:37 katharsiseos EARTH SEA WAVE WAVE - 1 850000
7178079 2021-Jul-16 19:47:41 rm1qy.wam EARTH MUD MUD SALT - 1 160000
7178078 2021-Jul-16 19:45:25 rm1qy.wam MUD RAIN WATER WATER - 1 100000
7178077 2021-Jul-16 19:39:58 1glqy.wam MOSS MOSS PRESS STONE - 1 700000
7178073 2021-Jul-16 19:28:37 l2ueo.wam ASH SEA SEA STONE - 1 790000
7178072 2021-Jul-16 19:24:36 z4kr4.wam MUD OCEAN SALT SALT - 1 340000
7178071 2021-Jul-16 19:21:51 i2osk.wam EARTH RAIN SALT SALT - 1 190000
7178070 2021-Jul-16 19:21:28 g53ra.wam EARTHQ MUD MUD WATER - 1 190000
7178067 2021-Jul-16 19:16:49 4ucb2.wam COAL SALT SALT SEA - 1 460000
7178066 2021-Jul-16 19:14:07 gcxr2.wam DUST MUD RAIN RAIN - 1 160000
7178065 2021-Jul-16 19:12:56 domra.wam FIRE SALT SALT WATER - 1 160000
7178064 2021-Jul-16 19:12:24 i2osk.wam EARTH EARTH RAIN SALT - 1 130000
7178063 2021-Jul-16 19:12:00 mzhe4.wam OCEAN STONE WIND WIND - 1 520000
7178062 2021-Jul-16 19:11:39 22mr2.wam EXPLOSN SAND STONE STONE - 1 970000
7178061 2021-Jul-16 19:09:16 domra.wam FIRE SALT WATER WATER - 1 100000
7178060 2021-Jul-16 19:06:20 rrwb.wam AIR SAND STONE STONE - 2 670000
7178059 2021-Jul-16 19:05:46 qdvra.wam EARTHQ MUD MUD PRESS - 1 220000
7178058 2021-Jul-16 19:04:53 4umrg.wam EARTHQ EXPLOSN PRESS PRESS - 1 490000
7178057 2021-Jul-16 19:04:39 freeantos321 PLANT PLANT SEA WIND - 1 490000
7178056 2021-Jul-16 19:04:27 iyuca.wam LIFE RAIN RAIN STONE - 1 460000
7178055 2021-Jul-16 19:02:42 4umrg.wam EXPLOSN ISLE PRESS PRESS - 1 1060000
7178053 2021-Jul-16 18:59:14 xqgbi.wam EARTH EARTH STONE WIND - 1 250000
7178052 2021-Jul-16 18:59:11 fxjbe.wam EARTH LIFE SALT SALT - 2 430000
7178051 2021-Jul-16 18:58:27 4y4qy.wam RAIN SAND SAND STONE - 1 1060000
7178050 2021-Jul-16 18:55:04 o3.qy.wam PRESS PRESS WATER WAVE - 1 490000
7178049 2021-Jul-16 18:54:38 fofrm.wam AIR FIRE RAIN RAIN - 1 100000
7178048 2021-Jul-16 18:52:07 4y4qy.wam MNTAIN RAIN RAIN STONE - 1 820000
7178047 2021-Jul-16 18:50:02 5j3r4.wam PLANT PLANT SALT SEA - 1 430000
7178046 2021-Jul-16 18:49:52 4y4qy.wam OCEAN OCEAN PRESS TREE - 1 1150000
7178045 2021-Jul-16 18:49:25 bigbakerplan SALT WATER WATER WHEAT - 1 910000
7178044 2021-Jul-16 18:48:33 fofrm.wam EARTH FIRE FIRE STONE - 1 130000
7178043 2021-Jul-16 18:47:49 4y4qy.wam PRESS PRESS SUN WAVE - 1 1090000
7178042 2021-Jul-16 18:46:06 ccpay.wam ENERGY SALT SALT WATER - 1 190000
7178041 2021-Jul-16 18:45:54 xpar.wam DUST MUD MUD OCEAN - 1 280000
7178040 2021-Jul-16 18:45:53 4y4qy.wam BUBBLES SALT STONE STONE - 1 1240000
7178039 2021-Jul-16 18:43:22 xpar.wam EARTH EARTH WATER WIND - 1 160000
7178038 2021-Jul-16 18:41:44 4umrg.wam CRUDE PRESS STONE STONE - 1 1240000
7178037 2021-Jul-16 18:41:06 4y4qy.wam PLANT SALT WATER WATER - 1 250000
7178036 2021-Jul-16 18:41:02 5j3r4.wam MUD PLANT SALT SALT - 1 340000
7178035 2021-Jul-16 18:39:50 4y4qy.wam EXPLOSN LIFE STONE STONE - 1 790000
7178034 2021-Jul-16 18:39:09 3wdbc.wam MUD SALT SALT SEA - 1 220000
7178033 2021-Jul-16 18:38:31 wl4ay.wam SALT SALT WAVE WIND - 1 670000
7178032 2021-Jul-16 18:37:52 euuec.wam LAVA PRESS RAIN RAIN - 1 160000
7178031 2021-Jul-16 18:34:36 4y4qy.wam CRUDE PRESS RAIN RAIN - 1 1120000
7178030 2021-Jul-16 18:31:32 euuec.wam FIRE FIRE SALT WATER - 1 100000
7178029 2021-Jul-16 18:30:01 5h2ru.wam SALT SALT SEA WATER - 1 190000
7178028 2021-Jul-16 18:29:18 .5lb2.wam LAVA LAVA OCEAN SALT - 1 310000
7178027 2021-Jul-16 18:28:17 v4.bc.wam AIR SALT WATER WATER - 1 100000
7178026 2021-Jul-16 18:27:57 4y4qy.wam EARTH SALT SALT WAVE - 1 550000
7178025 2021-Jul-16 18:27:45 qo4r2.wam EARTH MUD MUD WIND - 1 220000
7178024 2021-Jul-16 18:27:24 qo4r2.wam MUD MUD RAIN WIND - 1 250000
7178021 2021-Jul-16 18:25:39 gnere.wam EARTH EARTH HEAT SALT - 1 130000
7178020 2021-Jul-16 18:25:25 xqgbi.wam DUST PRESS SALT SALT - 1 220000
7178019 2021-Jul-16 18:25:09 xlubg.wam LAVA SAND SAND SEA - 1 1000000
7178018 2021-Jul-16 18:25:05 4y4qy.wam ENERGY GEYSER LAVA LAVA - 1 310000
7178017 2021-Jul-16 18:24:42 dtsaw.wam GEYSER HEAT HEAT SALT - 1 340000
7178016 2021-Jul-16 18:23:19 ydnuk.wam EARTH EARTH SALT SAND - 1 550000
7178015 2021-Jul-16 18:23:08 idmt.wam EARTHQ SEA SEA STONE - 2 280000
7178014 2021-Jul-16 18:22:58 4y4qy.wam MUD SALT SALT WATER - 1 190000
7178013 2021-Jul-16 18:21:31 xqgbi.wam DUST DUST PRESS SALT - 1 190000
7178012 2021-Jul-16 18:21:11 .5lb2.wam STEAM STEAM STONE WAVE - 1 580000
7178011 2021-Jul-16 18:20:37 4y4qy.wam EARTH EARTH OCEAN WAVE - 1 580000
7178010 2021-Jul-16 18:20:29 vaaaaaaaaaan MOSS STONE WATER WATER - 1 400000
7178009 2021-Jul-16 18:20:17 idmt.wam EARTH EARTHQ SEA SEA - 1 190000
7178008 2021-Jul-16 18:19:00 tdfay.wam EARTH LAVA LAVA SEA - 1 130000
7178007 2021-Jul-16 18:18:53 vaaaaaaaaaan MOSS OCEAN STONE STONE - 1 640000
7178005 2021-Jul-16 18:17:03 ulyra.wam LIFE SEA SEA SUN - 1 970000
7178004 2021-Jul-16 18:16:45 vaaaaaaaaaan MOSS SEA SEA STONE - 1 460000
7178002 2021-Jul-16 18:13:40 lytay.wam EARTH LAVA LAVA OCEAN - 1 250000
7178001 2021-Jul-16 18:13:22 4y4qy.wam PRESS PRESS SEA TREE - 1 910000
7178000 2021-Jul-16 18:12:00 qdvra.wam DUST ENERGY WATER WATER - 1 100000
7177999 2021-Jul-16 18:10:21 gcxr2.wam DUST DUST SALT WATER - 1 160000
7177998 2021-Jul-16 18:09:44 4y4qy.wam SALT SAND SAND STEAM - 1 1030000
7177997 2021-Jul-16 18:07:34 pi1bq.wam HEAT MUD SALT SALT - 1 220000
7177996 2021-Jul-16 18:07:08 gg2rg.wam GEYSER STONE STONE SWAMP - 1 640000
7177995 2021-Jul-16 18:07:04 gcxr2.wam DUST DUST LIFE WATER - 1 370000
7177994 2021-Jul-16 18:06:04 4y4qy.wam DUST PRESS PRESS WAVE - 1 520000
7177993 2021-Jul-16 18:05:56 ulyra.wam LIFE OCEAN OCEAN SUN - 1 1210000
7177992 2021-Jul-16 18:04:44 idmt.wam EARTHQ MUD PRESS PRESS - 1 220000
7177991 2021-Jul-16 18:04:41 4nkr.wam OCEAN RAIN STONE STONE - 1 400000
7177990 2021-Jul-16 18:03:06 4y4qy.wam LIFE SALT SALT STONE - 1 520000
7177989 2021-Jul-16 18:03:05 gg2rg.wam LAVA SALT STONE STONE - 1 310000
7177988 2021-Jul-16 18:01:45 heabq.wam PLANT SALT SEA SEA - 1 310000
7177987 2021-Jul-16 18:01:06 idmt.wam LIFE PLANT WAVE WAVE - 1 1240000
7177986 2021-Jul-16 18:00:19 a5nbs.wam BRICK BRICK STONE WATER - 1 310000
7177985 2021-Jul-16 17:58:36 ehrbq.wam GEYSER HEAT STONE STONE - 1 430000
7177984 2021-Jul-16 17:57:56 4y4qy.wam CLAY OCEAN OCEAN SAND - 1 1420000
7177983 2021-Jul-16 17:57:01 freeantos321 AIR PLANT PLANT SEA - 1 370000
7177982 2021-Jul-16 17:54:45 xpar.wam CLAY CLAY PLANT PRESS - 1 1480000
7177981 2021-Jul-16 17:54:13 4y4qy.wam CLAY METAL STONE STONE - 1 1510000
7177980 2021-Jul-16 17:52:36 tcnaw.wam MOSS PRESS PRESS SEA - 1 400000
7177979 2021-Jul-16 17:52:23 qo4r2.wam MUD MUD SAND WATER - 1 550000
7177978 2021-Jul-16 17:51:42 4y4qy.wam HEAT MNTAIN PRESS PRESS - 1 760000
7177977 2021-Jul-16 17:50:07 rprqy.wam CLAY CLAY SEA STONE - 1 1420000
7177976 2021-Jul-16 17:49:38 uaxbk.wam CLAY RAIN STONE STONE - 1 880000
7177975 2021-Jul-16 17:49:36 gg2rg.wam SALT STONE STONE SWAMP - 1 520000
7177974 2021-Jul-16 17:49:03 4y4qy.wam CLAY CLAY OCEAN STONE - 1 1540000
7177973 2021-Jul-16 17:46:34 jlybc.wam LAVA LAVA MUD SEA - 1 160000
7177972 2021-Jul-16 17:46:31 gymaw.wam AIR EARTHQ RAIN STEAM - 1 190000
7177971 2021-Jul-16 17:45:45 4y4qy.wam OCEAN SEA STEAM STEAM - 1 280000
7177970 2021-Jul-16 17:43:30 gg2rg.wam SALT STONE SWAMP SWAMP - 1 670000
7177969 2021-Jul-16 17:43:27 4y4qy.wam LAVA LAVA LIFE SEA - 1 400000
7177968 2021-Jul-16 17:42:27 g53ra.wam OCEAN STEAM STEAM VULCANO - 1 730000
7177966 2021-Jul-16 17:41:06 4y4qy.wam HEAT PRESS WAVE WAVE - 1 880000
7177965 2021-Jul-16 17:40:21 idmt.wam OCEAN PLANT PLANT WAVE - 1 880000
7177963 2021-Jul-16 17:38:56 4y4qy.wam CLOUD PRESS STONE STONE - 1 550000
7177962 2021-Jul-16 17:37:16 xlubg.wam LAVA LAVA SAND SEA - 1 580000
7177961 2021-Jul-16 17:34:55 rprqy.wam HEAT HEAT STONE WAVE - 1 580000
7177959 2021-Jul-16 17:34:36 4y4qy.wam FIRE MNTAIN WATER WATER - 1 670000
7177958 2021-Jul-16 17:34:10 mi3r2.wam GARBAGE MUD WATER WATER - 1 100000
7177957 2021-Jul-16 17:32:08 kmebk.wam LAVA STEAM WATER WATER - 1 100000
7177956 2021-Jul-16 17:31:32 4y4qy.wam MNTAIN STONE STONE WATER - 1 850000
7177955 2021-Jul-16 17:29:13 ve1bc.wam FLOOD FLOOD SALT STONE - 1 490000
7177954 2021-Jul-16 17:28:44 4y4qy.wam CLAY PLANT STONE STONE - 1 1000000
7177953 2021-Jul-16 17:26:50 ve1bc.wam FLOOD SALT SALT STONE - 1 400000
7177952 2021-Jul-16 17:25:20 4y4qy.wam STONE SWAMP WATER WATER - 1 370000
7177951 2021-Jul-16 17:23:29 jtue2.wam ISLE PRESS STONE STONE - 1 910000
7177950 2021-Jul-16 17:22:31 o3eb4.wam SAND SEA SUN WIND - 1 1240000
7177949 2021-Jul-16 17:21:21 4y4qy.wam MNTAIN MNTAIN PRESS SEA - 1 1360000
7177948 2021-Jul-16 17:21:07 s.hqy.wam COAL COAL SEA STONE - 1 700000
7177947 2021-Jul-16 17:10:02 tbqqw.wam BACTERI EARTH EARTH STONE - 1 700000
7177946 2021-Jul-16 17:10:01 ebkb4.wam OCEAN PRESS WAVE WAVE - 1 1000000
7177945 2021-Jul-16 17:09:11 pi1bq.wam HEAT MUD MUD SALT - 1 190000
7177944 2021-Jul-16 17:04:30 tbqqw.wam BACTERI BACTERI EARTH STONE - 1 1270000
7177943 2021-Jul-16 16:59:49 n4qr.wam SAND STONE STONE WIND - 1 790000
7177942 2021-Jul-16 16:57:32 g53ra.wam GEYSER HEAT WIND WIND - 1 490000
7177941 2021-Jul-16 16:54:49 tbqqw.wam BACTERI EARTH STONE STONE - 1 790000
7177940 2021-Jul-16 16:43:33 o5gqy.wam SALT SALT SUN WIND - 1 880000
7177939 2021-Jul-16 16:41:41 n.oqw.wam SAND SAND SEA WIND - 1 1090000
7177938 2021-Jul-16 16:37:52 nmmr2.wam FIRE FIRE LIFE WAVE - 1 700000
7177937 2021-Jul-16 16:36:40 fxfs2.wam ATMSPHE RAIN STONE STONE - 1 370000
7177935 2021-Jul-16 16:32:59 o5gqy.wam SALT SALT SEA SUN - 1 790000
7177934 2021-Jul-16 16:31:49 tbqqw.wam BACTERI STONE STONE SUN - 2 1390000
7177933 2021-Jul-16 16:28:42 14vb2.wam COAL HEAT HEAT SEA - 1 400000
7177932 2021-Jul-16 16:20:20 14vb2.wam COAL HEAT SEA SEA - 1 400000
7177931 2021-Jul-16 16:19:38 xmnrc.wam EARTH EARTH OBSIDIN STONE - 1 250000
7177930 2021-Jul-16 16:18:44 tbqqw.wam BACTERI BACTERI MNTAIN SEA - 1 1840000
7177929 2021-Jul-16 16:14:08 nmmr2.wam FIRE FIRE GARBAGE SEA - 1 100000
7177928 2021-Jul-16 16:10:53 i15ay.wam FIRE SEA STONE STONE - 1 250000
7177927 2021-Jul-16 16:09:08 tbqqw.wam BACTERI MNTAIN PRESS PRESS - 1 1300000
7177926 2021-Jul-16 16:04:25 tbqqw.wam BACTERI MNTAIN STONE STONE - 1 1420000
7177925 2021-Jul-16 15:59:17 nmmr2.wam FIRE FIRE LIFE SEA - 1 340000
7177923 2021-Jul-16 15:37:50 wpsca.wam MOSS MUD MUD SEA - 1 400000
7177922 2021-Jul-16 15:29:25 wpsca.wam MOSS MUD MUD OCEAN - 1 520000
7177921 2021-Jul-16 15:05:09 r15ra.wam LIFE MNTAIN PRESS PRESS - 1 1000000
7177920 2021-Jul-16 15:04:01 na5b4.wam MNTAIN STONE WATER WATER - 1 760000
7177919 2021-Jul-16 14:51:33 iearo.wam OCEAN OCEAN RAIN STONE - 1 460000
7177918 2021-Jul-16 14:51:18 e2cr.wam LIFE RAIN SAND SAND - 1 1240000
7177917 2021-Jul-16 14:51:07 e2cr.wam LIFE SAND SAND WATER - 2 1210000
7177916 2021-Jul-16 14:45:36 r15ra.wam PRESS STONE WIND WIND - 1 400000
7177911 2021-Jul-16 14:38:08 mymb4.wam AIR DUST PRESS WIND - 1 220000
7177910 2021-Jul-16 14:35:35 4umrg.wam FLOOD FLOOD LAVA STONE - 1 460000
7177908 2021-Jul-16 14:33:56 4umrg.wam HEAT PLANT PLANT STONE - 1 460000
7177904 2021-Jul-16 14:25:09 gcxr2.wam DUST DUST FIRE WATER - 1 100000
7177903 2021-Jul-16 14:22:40 4umrg.wam GEYSER GEYSER LAVA STONE - 1 520000
7177901 2021-Jul-16 14:15:48 axzba.wam LAVA PRESS PRESS STEAM - 1 160000
7177900 2021-Jul-16 14:15:05 axzba.wam DUST DUST LAVA PRESS - 2 160000
7177899 2021-Jul-16 14:13:12 axzba.wam DUST MUD SEA SEA - 1 160000
7177898 2021-Jul-16 14:08:31 axzba.wam PRESS PRESS RAIN SALT - 1 190000
7177897 2021-Jul-16 13:57:58 2tmay.wam STONE SUN SUN WATER - 1 1330000
7177896 2021-Jul-16 13:55:58 w.st.wam SALT SALT SAND WATER - 1 610000
7177894 2021-Jul-16 13:46:08 rtieg.wam ATMSPHE EARTH EARTH GEYSER - 1 340000
7177893 2021-Jul-16 13:42:39 frcqu.wam EARTH PLANT RAIN WALL - 1 550000
7177892 2021-Jul-16 13:41:32 4umrg.wam MOSS SALT STONE STONE - 1 550000
7177891 2021-Jul-16 13:40:39 frcqu.wam EARTH PLANT WALL WATER - 1 520000
7177890 2021-Jul-16 13:36:04 frcqu.wam EARTH STEAM STEAM STONE - 1 190000
7177889 2021-Jul-16 13:33:25 frcqu.wam HEAT STEAM STEAM STONE - 1 220000
7177888 2021-Jul-16 13:27:06 1puqy.wam GEYSER SEA STONE STONE - 1 430000
7177887 2021-Jul-16 13:25:06 smcbm.wam BACTERI LAVA STONE STONE - 1 820000
7177886 2021-Jul-16 13:22:56 kdoqy.wam MUD MUD SALT WATER - 1 160000
7177885 2021-Jul-16 13:21:44 kdoqy.wam LIFE MUD MUD SALT - 1 430000
7177884 2021-Jul-16 13:17:50 isybg.wam LAVA LAVA RAIN STONE - 1 220000
7177883 2021-Jul-16 13:12:24 tgrqy.wam EARTHQ HEAT HEAT LIFE - 1 460000
7177882 2021-Jul-16 13:09:33 tgrqy.wam EARTH EARTH HEAT LIFE - 2 340000
7177881 2021-Jul-16 13:09:13 tgrqy.wam EARTH HEAT HEAT LIFE - 1 370000
7177879 2021-Jul-16 12:57:12 cv4am.wam BACTERI RIVER STONE STONE - 1 1810000
7177878 2021-Jul-16 12:53:37 q1pb4.wam HEAT HEAT SAND WAVE - 1 940000
7177877 2021-Jul-16 12:52:08 rxtqu.wam EARTH EARTH STONE SWAMP - 1 370000
7177876 2021-Jul-16 12:49:11 rxtqu.wam PLANT STONE STONE SWAMP - 1 610000
7177875 2021-Jul-16 12:45:39 k4brc.wam MUD MUD OCEAN SEA - 1 280000
7177874 2021-Jul-16 12:40:52 ip43m.wam HEAT MUD MUD WATER - 1 130000
7177873 2021-Jul-16 12:36:45 1puqy.wam GEYSER GEYSER STONE WATER - 1 490000
7177872 2021-Jul-16 12:27:42 g53ra.wam GEYSER PRESS PRESS STEAM - 1 310000
7177871 2021-Jul-16 12:24:59 4pbr.wam FIRE FIRE SALT SEA - 1 130000
7177870 2021-Jul-16 12:23:40 4pbr.wam FIRE FIRE OCEAN SALT - 1 250000
7177868 2021-Jul-16 12:21:29 14vb2.wam CLAY CLAY HEAT SEA - 1 1360000
7177867 2021-Jul-16 12:16:10 tnequ.wam EARTH EARTH LAVA STONE - 1 160000
7177865 2021-Jul-16 12:06:16 4umrg.wam LAVA PRESS PRESS RAIN - 1 160000
7177863 2021-Jul-16 12:03:12 4umrg.wam LAVA PRESS PRESS WIND - 1 250000
7177862 2021-Jul-16 12:01:32 mzhe4.wam EARTHQ MUD MUD OCEAN - 1 340000
7177861 2021-Jul-16 12:01:24 1puqy.wam DUST DUST MUD OCEAN - 1 280000
7177859 2021-Jul-16 11:48:57 axzba.wam EXPLOSN STONE WATER WATER - 1 430000
7177858 2021-Jul-16 11:48:13 axzba.wam EXPLOSN SEA SEA STONE - 1 490000
7177857 2021-Jul-16 11:45:48 5akba.wam EARTH EARTH EXPLOSN OCEAN - 1 490000
7177856 2021-Jul-16 11:41:25 sxyqy.wam RAIN STONE WATER WATER - 1 160000
7177855 2021-Jul-16 11:40:41 tgrqy.wam EARTH EARTH EXPLOSN LIFE - 1 610000
7177854 2021-Jul-16 11:36:02 tgrqy.wam EARTHQ LIFE PRESS PRESS - 1 460000
7177853 2021-Jul-16 11:35:54 a5nbs.wam OBSIDIN RAIN STONE STONE - 1 370000
7177852 2021-Jul-16 11:33:20 tgrqy.wam EARTH EARTH EARTHQ LIFE - 1 400000
7177851 2021-Jul-16 11:33:05 tgrqy.wam EARTH EARTHQ EARTHQ LIFE - 1 490000
7177850 2021-Jul-16 11:30:06 g53ra.wam EARTH GEYSER GEYSER PRESS - 1 430000
7177849 2021-Jul-16 11:25:19 g53ra.wam GEYSER GEYSER PRESS WATER - 1 430000
7177848 2021-Jul-16 11:22:18 axzba.wam COAL SALT SEA SEA - 1 430000
7177847 2021-Jul-16 11:22:04 g53ra.wam AIR EARTH GEYSER GEYSER - 1 400000
7177846 2021-Jul-16 11:21:35 tgrqy.wam EARTH EXPLOSN LIFE LIFE - 1 880000
7177845 2021-Jul-16 11:20:13 isybg.wam COAL OCEAN OCEAN PRESS - 1 640000
7177844 2021-Jul-16 11:14:44 tg4rc.wam DUST DUST RAIN STONE - 1 220000
7177843 2021-Jul-16 11:12:28 1puqy.wam EARTH EARTH MNTAIN OCEAN - 1 820000
7177842 2021-Jul-16 11:08:27 axzba.wam COAL SEA SEA STONE - 1 460000
7177841 2021-Jul-16 11:04:44 1puqy.wam EARTH EARTH MNTAIN STONE - 1 760000
7177840 2021-Jul-16 11:02:40 uvrtc.wam EARTH SEA SEA WAVE - 1 490000
7177839 2021-Jul-16 11:01:07 fpxrc.wam BEACH PRESS PRESS WAVE - 1 1870000
7177838 2021-Jul-16 11:00:15 uvrtc.wam EARTH EARTH SEA WAVE - 1 460000
7177837 2021-Jul-16 10:58:48 na5b4.wam CRUDE FIRE PRESS WATER - 1 1060000
7177836 2021-Jul-16 10:54:36 g53ra.wam BACTERI GEYSER MUD MUD - 1 850000
7177835 2021-Jul-16 10:53:14 cgrqw.wam PRESS SODA STONE STONE - 1 2020000
7177832 2021-Jul-16 10:45:28 g53ra.wam BACTERI GEYSER STONE STONE - 1 970000
7177831 2021-Jul-16 10:45:11 axzba.wam COAL SALT STONE STONE - 1 550000
7177830 2021-Jul-16 10:43:57 jusenas.gm EARTH GEYSER STONE STONE - 1 400000
7177829 2021-Jul-16 10:43:14 so.r2.wam HEAT HEAT SAND STEAM - 1 580000
7177828 2021-Jul-16 10:40:53 cv4am.wam BACTERI BACTERI STONE WAVE - 1 1660000
7177827 2021-Jul-16 10:39:31 c4.r4.wam HEAT HEAT SUN WATER - 1 700000
7177826 2021-Jul-16 10:39:12 c4.r4.wam HEAT SUN WATER WATER - 1 670000
7177825 2021-Jul-16 10:33:01 jusenas.gm ATMSPHE GEYSER STONE STONE - 1 520000
7177824 2021-Jul-16 10:24:23 l3zra.wam CLAY MUD STONE STONE - 1 880000
7177823 2021-Jul-16 10:20:30 kreamboisama OCEAN SEAWEED STONE STONE - 1 1750000
7177822 2021-Jul-16 10:17:33 axzba.wam GEYSER SALT STONE STONE - 1 460000
7177821 2021-Jul-16 10:17:18 evfaw.wam ARCHIP HEAT PRESS PRESS - 1 2170000
7177820 2021-Jul-16 10:15:44 g53ra.wam BACTERI GEYSER GEYSER RAIN - 1 1000000
7177819 2021-Jul-16 10:02:04 g53ra.wam BACTERI GEYSER GEYSER PRESS - 1 1000000
7177818 2021-Jul-16 09:59:53 ekvbi.wam DUST PRESS RAIN RAIN - 1 160000
7177817 2021-Jul-16 09:54:33 g53ra.wam ATMSPHE GEYSER GEYSER PRESS - 1 550000
7177816 2021-Jul-16 09:53:22 1puqy.wam DUST MUD STONE STONE - 1 280000
7177815 2021-Jul-16 09:51:52 1puqy.wam CLAY DUST STONE STONE - 1 880000
7177814 2021-Jul-16 09:50:56 g53ra.wam GEYSER GEYSER MUD PRESS - 1 460000
7177813 2021-Jul-16 09:48:25 ol.b4.wam MUD STONE STONE WAVE - 1 640000
7177812 2021-Jul-16 09:46:20 xqjam.wam CLAY EARTH SEA SEA - 1 730000
7177811 2021-Jul-16 09:46:10 g53ra.wam GEYSER GEYSER MOSS SMOKE - 1 1000000
7177810 2021-Jul-16 09:44:02 vnxrq.wam HEAT OCEAN OCEAN SEA - 1 400000
7177809 2021-Jul-16 09:17:38 1puqy.wam EARTH EARTH MUD STONE - 1 160000
7177808 2021-Jul-16 09:16:21 qejbm.wam PRESS SEA SEA SEAWEED - 1 1510000
7177807 2021-Jul-16 09:15:11 fi124.wam SEA STONE STONE VULCANO - 1 730000
7177806 2021-Jul-16 09:07:35 drcug.wam AIR GARBAGE MUD WATER - 1 100000
7177805 2021-Jul-16 09:07:28 fi124.wam OCEAN STONE STONE VULCANO - 1 850000
7177804 2021-Jul-16 09:02:20 rveay.wam BACTERI BACTERI SALT STONE - 1 1330000
7177803 2021-Jul-16 09:01:24 rprqy.wam EARTH STONE STONE SWAMP - 1 460000
7177802 2021-Jul-16 09:01:16 kyn.o.wam FLOOD PRESS PRESS STONE - 1 340000
7177801 2021-Jul-16 08:54:39 1puqy.wam CLAY EARTH EARTH PRESS - 1 700000
7177800 2021-Jul-16 08:44:49 j1crq.wam MOSS MUD STONE STONE - 1 520000
7177799 2021-Jul-16 08:30:45 ip43m.wam MUD MUD SEA SUN - 1 730000
7177798 2021-Jul-16 08:29:39 2uyba.wam METAL PRESS SMOKE WATER - 1 1060000
7177797 2021-Jul-16 08:11:23 2uyba.wam ALCOHOL BACTERI SMOKE VIRUS - 1 1840000
7177795 2021-Jul-16 08:07:37 t5qb2.wam BUBBLES SAND STONE STONE - 1 1630000
7177794 2021-Jul-16 08:07:13 t5qb2.wam BUBBLES EARTH STONE STONE - 1 1180000
7177793 2021-Jul-16 08:06:36 t5qb2.wam BUBBLES BUBBLES PRESS STONE - 1 2080000
7177792 2021-Jul-16 08:05:15 t5qb2.wam BUBBLES BUBBLES SAND STONE - 1 2500000
7177791 2021-Jul-16 08:04:54 rgqee.wam GRASS GRASS PRESS SEA - 1 580000
7177790 2021-Jul-16 08:03:16 t5qb2.wam OCEAN SAND SAND WAVE - 1 1480000
7177789 2021-Jul-16 08:03:02 t5qb2.wam SAND SAND SEA WAVE - 1 1360000
7177788 2021-Jul-16 07:59:02 rgqee.wam MOSS MOSS PRESS SEA - 1 640000
7177787 2021-Jul-16 07:55:07 ccpay.wam BOILER STONE WATER WATER - 1 880000
7177786 2021-Jul-16 07:52:49 ccpay.wam METAL STONE WATER WATER - 1 790000
7177785 2021-Jul-16 07:50:38 2uyba.wam HEAT HEAT MNTAIN WATER - 1 730000
7177784 2021-Jul-16 07:47:25 2gia.wam SAND SAND SEA SEAWEED - 1 2350000
7177783 2021-Jul-16 07:46:09 gaabm.wam ATMSPHE PLANT PLANT STONE - 1 550000
7177782 2021-Jul-16 07:45:08 rgqee.wam OCEAN SUN SWAMP SWAMP - 1 1270000
7177781 2021-Jul-16 07:40:06 t5qb2.wam BUBBLES CLAY STONE STONE - 1 1810000
7177780 2021-Jul-16 07:38:47 2uyba.wam HEAT RAIN STONE STONE - 1 280000
7177779 2021-Jul-16 07:30:38 uhmro.wam BACTERI SAND SWAMP SWAMP - 1 1540000
7177778 2021-Jul-16 07:29:44 uhmro.wam BACTERI STONE SWAMP SWAMP - 1 1180000
7177777 2021-Jul-16 07:29:09 cv4am.wam BACTERI STONE STONE WAVE - 1 1180000
7177776 2021-Jul-16 07:27:10 1puqy.wam DUST DUST EARTH SAND - 1 550000
7177775 2021-Jul-16 07:26:13 1puqy.wam CLAY DUST DUST EARTH - 1 730000
7177774 2021-Jul-16 07:25:27 1puqy.wam CLAY DUST DUST SAND - 1 1180000
7177773 2021-Jul-16 07:24:40 almrc.wam BLOCK EARTH EARTH STONE - 1 880000
7177772 2021-Jul-16 07:23:19 almrc.wam BLOCK EARTH STONE STONE - 1 970000
7177771 2021-Jul-16 07:23:18 1puqy.wam CLAY DUST DUST WATER - 1 730000
7177769 2021-Jul-16 07:22:10 1puqy.wam DUST DUST MUD SAND - 1 580000
7177768 2021-Jul-16 07:19:58 1puqy.wam DUST DUST SAND STONE - 1 640000
7177767 2021-Jul-16 07:19:19 1puqy.wam DUST DUST SAND WATER - 1 550000
7177766 2021-Jul-16 07:16:09 cv4am.wam BACTERI SALT STONE STONE - 1 850000
7177765 2021-Jul-16 07:06:46 freekman1111 DUST DUST PLANT SEA - 1 280000
7177764 2021-Jul-16 07:03:00 biase.wam HEAT SEA SEA WALL - 1 460000
7177761 2021-Jul-16 06:31:44 dtsaw.wam FIRE FIRE MUD SEA - 1 100000
7177760 2021-Jul-16 06:29:54 l2ueo.wam LIFE OCEAN SEA SEA - 1 520000
7177759 2021-Jul-16 06:29:07 dtsaw.wam FIRE FIRE MUD OCEAN - 1 220000
7177758 2021-Jul-16 06:29:01 1puqy.wam CLAY DUST DUST STONE - 1 820000
7177757 2021-Jul-16 06:20:12 pi1bq.wam MUD PRESS SALT SALT - 1 220000
7177756 2021-Jul-16 06:19:57 a5nbs.wam LIFE OCEAN OCEAN WAVE - 1 1000000
7177755 2021-Jul-16 06:19:36 1puqy.wam DUST DUST PRESS SAND - 1 580000
7177754 2021-Jul-16 06:19:11 1puqy.wam DUST DUST EARTH MUD - 1 130000
7177753 2021-Jul-16 06:18:09 1puqy.wam DUST DUST MUD STONE - 1 220000
7177752 2021-Jul-16 06:14:52 k4rec.wam STONE STONE TREE WATER - 1 1000000
7177751 2021-Jul-16 06:12:09 cryptogamist HEAT OCEAN OCEAN SALT - 1 430000
7177750 2021-Jul-16 06:09:01 iiju.wam FIRE FIRE GRPHITE OBSIDIN - 1 490000
7177749 2021-Jul-16 06:07:47 1puqy.wam PLANT PLANT SAND STONE - 1 880000
7177747 2021-Jul-16 05:49:19 1puqy.wam DUST MUD MUD SAND - 1 580000
7177746 2021-Jul-16 05:44:03 vaaaaaaaaaan DUST DUST LIFE OCEAN - 1 520000
7177745 2021-Jul-16 05:42:59 5vrr.wam PLANT PLANT SALT STONE - 1 490000
7177744 2021-Jul-16 05:40:42 jtoaw.wam CLAY EARTH WATER WATER - 1 670000
7177743 2021-Jul-16 05:36:39 phbb4.wam AIR MUD SEA SEA - 1 130000
7177742 2021-Jul-16 05:23:02 pi1bq.wam EARTH OCEAN SALT SALT - 1 310000
7177740 2021-Jul-16 05:21:48 uleaw.wam ATMSPHE PLANT SEA SEA - 1 370000
7177739 2021-Jul-16 05:21:45 c4.r4.wam OCEAN OCEAN STEAM STONE - 1 460000
7177737 2021-Jul-16 05:20:18 c4.r4.wam SEA STEAM STONE STONE - 1 280000
7177736 2021-Jul-16 05:19:39 mmvr2.wam MUD MUD SAND SUN - 1 1150000
7177735 2021-Jul-16 05:16:50 pi1bq.wam OCEAN PLANT SALT SALT - 1 460000
7177734 2021-Jul-16 05:15:19 itslegosnape MUD MUD PRESS WAVE - 1 520000
7177733 2021-Jul-16 05:05:35 lb.qw.wam EARTH EARTH EXPLOSN GUNPWDR - 1 460000
7177732 2021-Jul-16 05:00:26 rqcr.wam PRESS PRESS WATER WIND - 1 220000
7177731 2021-Jul-16 04:59:45 22mr2.wam HEAT MUD SEA SEA - 1 160000
7177730 2021-Jul-16 04:58:19 t5qb2.wam EXPLOSN GUN LIFE LIFE - 1 5350000
7177729 2021-Jul-16 04:56:17 rqcr.wam PRESS PRESS STONE WIND - 1 310000
7177728 2021-Jul-16 04:50:56 c4.r4.wam HEAT OCEAN OCEAN SUN - 1 970000
7177727 2021-Jul-16 04:50:46 iusu4.wam EARTHQ SEA STONE STONE - 1 340000
7177726 2021-Jul-16 04:50:32 eg1r2.wam DUST HEAT HEAT PRESS - 1 160000
7177725 2021-Jul-16 04:50:08 t5qb2.wam BULLET BULLET BULLET GUN - 1 9280000
7177724 2021-Jul-16 04:47:37 ry4qy.wam BACTERI BACTERI PRESS SAND - 1 1660000
7177722 2021-Jul-16 04:46:58 ry4qy.wam BACTERI PRESS SAND SAND - 1 1540000
7177721 2021-Jul-16 04:46:26 qmy5g.wam EARTH EARTH FIRE GUNPWDR - 1 160000
7177720 2021-Jul-16 04:45:56 c4.r4.wam HEAT HEAT SEA SUN - 1 730000
7177719 2021-Jul-16 04:45:15 c4.r4.wam HEAT SEA SEA SUN - 1 730000
7177718 2021-Jul-16 04:45:03 22mr2.wam EARTH MUD MUD STONE - 2 190000
7177717 2021-Jul-16 04:44:20 uleaw.wam HEAT SEA SEA SEAWEED - 1 1510000
7177716 2021-Jul-16 04:43:34 t5qb2.wam BUBBLES PRESS PRESS SAND - 1 1510000
7177715 2021-Jul-16 04:35:14 4umrg.wam EXPLOSN GUNPWDR MNTAIN MNTAIN - 1 1720000
7177714 2021-Jul-16 04:34:11 .t5rc.wam HEAT LAVA SEA SEA - 1 160000
7177712 2021-Jul-16 04:28:15 4umrg.wam EXPLOSN GUNPWDR STONE STONE - 1 640000
7177710 2021-Jul-16 04:22:30 4umrg.wam GUNPWDR PRESS STONE STONE - 1 370000
7177708 2021-Jul-16 04:16:02 wrira.wam AIR RAIN STONE STONE - 1 250000
7177707 2021-Jul-16 04:14:38 h2yre.wam PRESS PRESS SUN WATER - 1 700000
7177706 2021-Jul-16 04:13:55 wrira.wam AIR STONE WATER WATER - 1 130000
7177705 2021-Jul-16 04:03:05 muribarabata GRPHITE GRPHITE PRESS STONE - 1 820000
7177704 2021-Jul-16 03:59:39 rtieg.wam FIRE GUNPWDR STONE STONE - 1 340000
7177703 2021-Jul-16 03:58:46 drk2liteacct LAVA LAVA STONE WATER - 1 190000
7177702 2021-Jul-16 03:57:07 eg1r2.wam ENERGY OCEAN OCEAN STONE - 1 460000
7177701 2021-Jul-16 03:55:17 4umrg.wam STONE VULCANO WATER WATER - 1 610000
7177699 2021-Jul-16 03:51:43 pufb.wam ENERGY OCEAN OCEAN PRESS - 2 400000
7177698 2021-Jul-16 03:44:11 4umrg.wam LAVA OCEAN STONE STONE - 1 400000
7177697 2021-Jul-16 03:44:05 djkr.wam EARTH MUD SEA SEA - 1 130000
7177696 2021-Jul-16 03:43:40 4umrg.wam LAVA SEA STONE STONE - 1 280000
7177694 2021-Jul-16 03:32:45 4umrg.wam EARTHQ PRESS STONE STONE - 1 340000
7177693 2021-Jul-16 03:25:55 drk2liteacct GAS HEAT HEAT WATER - 1 1000000
7177692 2021-Jul-16 03:24:20 4umrg.wam FLOOD LAVA LAVA PRESS - 1 280000
7177691 2021-Jul-16 03:22:34 g2cbe.wam MUD PRESS PRESS RIVER - 1 1150000
7177690 2021-Jul-16 03:22:13 pddra.wam EARTH EARTH ENERGY LIFE - 1 340000
7177689 2021-Jul-16 03:21:27 4umrg.wam LAVA LAVA LIFE PRESS - 1 400000
7177688 2021-Jul-16 03:21:13 krazykoolaid LIFE LIFE SEA WAVE - 1 1000000
7177687 2021-Jul-16 03:19:16 zbgb2.wam ARCHIP OCEAN STONE STONE - 1 2410000
7177686 2021-Jul-16 03:14:38 frcqu.wam CRUDE PRESS PRESS STONE - 1 1180000
7177684 2021-Jul-16 03:10:41 1l5ra.wam EARTH RAIN RAIN WIND - 1 220000
7177683 2021-Jul-16 03:09:17 rgqee.wam OCEAN OCEAN PRESS SWAMP - 1 610000
7177682 2021-Jul-16 03:04:09 1l5ra.wam EARTH EARTH RAIN WIND - 1 190000
7177681 2021-Jul-16 02:57:27 4umrg.wam MOSS OCEAN PRESS PRESS - 1 520000
7177680 2021-Jul-16 02:54:27 franklin.gm PRESS PRESS STONE TEQUILA - 1 1780000
7177679 2021-Jul-16 02:53:57 waxkingluffy MNTAIN PRESS WATER WATER - 1 700000
7177678 2021-Jul-16 02:51:55 4umrg.wam OCEAN PRESS PRESS VULCANO - 2 730000
7177677 2021-Jul-16 02:49:46 mrherrdoktor EARTH EARTH SEA WIND - 1 190000
7177675 2021-Jul-16 02:40:56 2odbc.wam ASH PLANT STONE STONE - 1 970000
7177674 2021-Jul-16 02:39:40 zl.rg.wam OCEAN STEAM STONE STONE - 1 400000
7177673 2021-Jul-16 02:37:02 4umrg.wam OCEAN OCEAN PRESS WAVE - 1 760000
7177672 2021-Jul-16 02:34:17 sbvb.wam MUD MUD SALT SEA - 1 190000
7177671 2021-Jul-16 02:32:47 zl.rg.wam EXPLOSN OCEAN STONE STONE - 1 670000
7177670 2021-Jul-16 02:28:03 5uzr.wam GEYSER HEAT MOSS SALT - 1 580000
7177669 2021-Jul-16 02:27:39 .5.r.wam CLAY HEAT STEAM STEAM - 1 760000
7177667 2021-Jul-16 02:26:02 zl.rg.wam HILL PICKAX STONE STONE - 1 3910000
7177666 2021-Jul-16 02:24:50 hotpocket111 PRESS SALT SAND SAND - 1 1030000
7177665 2021-Jul-16 02:23:45 tbqqw.wam BACTERI HEAT STONE STONE - 1 820000
7177664 2021-Jul-16 02:23:31 waxkingluffy OCEAN PRESS WATER WATER - 1 220000
7177663 2021-Jul-16 02:22:56 .5.r.wam CLAY HEAT HEAT SEA - 1 760000
7177662 2021-Jul-16 02:20:43 4umrg.wam PRESS SEA SEA WIND - 1 250000
7177661 2021-Jul-16 02:20:06 4umrg.wam PRESS SAND SAND STEAM - 1 1000000
7177660 2021-Jul-16 02:15:26 t5qb2.wam BULLET ENERGY GUN LIFE - 1 6400000
7177659 2021-Jul-16 02:14:23 4umrg.wam PRESS SEA SEA WAVE - 1 520000
7177658 2021-Jul-16 02:13:57 rtieg.wam HEAT HEAT RAIN STONE - 1 220000
7177656 2021-Jul-16 02:10:26 4umrg.wam LIFE STONE STONE VULCANO - 1 970000
7177654 2021-Jul-16 02:08:24 4umrg.wam PRESS STONE STONE VULCANO - 1 730000
7177653 2021-Jul-16 02:02:19 so.r2.wam SAND STEAM STEAM WATER - 1 550000
7177652 2021-Jul-16 02:00:14 drk2liteacct CLAY HILL RAIN RAIN - 1 2140000
7177651 2021-Jul-16 01:57:46 4umrg.wam ATMSPHE PRESS STONE STONE - 1 370000
7177650 2021-Jul-16 01:56:09 zl.rg.wam HEAT STEAM STONE STONE - 1 280000
7177649 2021-Jul-16 01:55:46 drk2liteacct HILL RAIN RAIN STONE - 1 1600000
7177648 2021-Jul-16 01:54:14 rm1qy.wam CLAY MUD MUD PRESS - 1 760000
7177647 2021-Jul-16 01:53:08 tpar4.wam CLAY EARTH EARTH STONE - 1 760000
7177646 2021-Jul-16 01:52:05 zl.rg.wam HEAT PICKAX STONE STONE - 1 2530000
7177645 2021-Jul-16 01:44:17 bnoqw.waa PRESS PRESS STEAM STONE - 1 220000
7177644 2021-Jul-16 01:43:55 tpar4.wam CLAY EARTH STONE STONE - 1 850000
7177642 2021-Jul-16 01:28:08 1puqy.wam CLAY LIFE LIFE WATER - 1 1210000
7177641 2021-Jul-16 01:23:20 1puqy.wam DUST EARTH LIFE LIFE - 1 610000
7177640 2021-Jul-16 01:18:28 rm1qy.wam EARTH EARTH FLOOD MUD - 1 220000
7177639 2021-Jul-16 01:12:52 zbsau.wam COAL DUST PRESS PRESS - 1 400000
7177638 2021-Jul-16 01:06:25 zbsau.wam LAVA PRESS PRESS SAND - 1 580000
7177637 2021-Jul-16 01:06:20 so.r2.wam PRESS PRESS SAND WIND - 1 670000
7177636 2021-Jul-16 01:05:23 wkacs.wam ENERGY SALT STONE WATER - 1 220000
7177635 2021-Jul-16 01:03:30 c4.r4.wam LIFE LIFE PRESS SWAMP - 1 850000
7177634 2021-Jul-16 01:01:08 rqhr4.wam MUD MUD SALT SAND - 1 610000
7177633 2021-Jul-16 00:58:56 p4.qw.wam RAIN SAND STONE STONE - 1 700000
7177632 2021-Jul-16 00:58:40 gcxr2.wam MUD SEA WATER WATER - 1 100000
7177631 2021-Jul-16 00:58:13 pufb.wam ENERGY ENERGY OCEAN STONE - 1 340000
7177630 2021-Jul-16 00:57:45 a54r4.wam LAVA LAVA OCEAN SEA - 1 280000
7177627 2021-Jul-16 00:54:58 ydnuk.wam DUST PLANT PRESS PRESS - 1 280000
7177626 2021-Jul-16 00:54:55 rqhr4.wam MUD MUD PRESS SALT - 1 190000
7177625 2021-Jul-16 00:54:00 ydnuk.wam DUST PLANT STONE STONE - 1 400000
7177624 2021-Jul-16 00:53:46 t5qb2.wam ISLE PRESS PRESS SEA - 1 790000
7177623 2021-Jul-16 00:53:33 so.r2.wam AIR PRESS PRESS SAND - 1 550000
7177622 2021-Jul-16 00:53:13 t5qb2.wam ISLE PRESS PRESS STONE - 1 850000
7177621 2021-Jul-16 00:52:51 t5qb2.wam ISLE PRESS PRESS SAND - 1 1210000
7177620 2021-Jul-16 00:52:17 gcxr2.wam DUST DUST SEA WATER - 1 130000
7177619 2021-Jul-16 00:52:02 zbsau.wam CLAY DUST PRESS PRESS - 1 760000
7177618 2021-Jul-16 00:51:46 w.st.wam SALT SAND SAND WATER - 1 1000000
7177617 2021-Jul-16 00:51:07 t5qb2.wam CLAY ISLE PRESS PRESS - 1 1390000
7177615 2021-Jul-16 00:50:30 gcxr2.wam MUD MUD SEA WATER - 1 130000
7177614 2021-Jul-16 00:50:05 c4.r4.wam EXPLOSN STONE STONE SWAMP - 1 760000
7177613 2021-Jul-16 00:46:29 c4.r4.wam HEAT HEAT STONE SWAMP - 1 430000
7177612 2021-Jul-16 00:36:20 pufb.wam CLAY PLANT PLANT WATER - 1 970000
7177611 2021-Jul-16 00:36:05 t.mrg.wam HILL PRESS PRESS STONE - 1 1600000
7177610 2021-Jul-16 00:34:30 q4zbq.wam MOSS MOSS SEA STONE - 1 700000
7177609 2021-Jul-16 00:33:35 igora.wam LAVA LAVA SEA SUN - 1 730000
7177608 2021-Jul-16 00:31:12 twdqq.wam PRESS PRESS STONE SWAMP - 1 430000
7177607 2021-Jul-16 00:26:58 wrira.wam CLAY EARTH EARTH WATER - 1 670000
7177605 2021-Jul-16 00:25:42 cnbba.wam MOSS SEA STONE STONE - 1 520000
7177603 2021-Jul-16 00:23:01 za5ne.wam AIR SEA STONE STONE - 1 250000
7177602 2021-Jul-16 00:20:32 t5qb2.wam ISLE OCEAN PRESS PRESS - 1 910000
7177601 2021-Jul-16 00:19:41 t5qb2.wam ISLE LIFE PRESS PRESS - 1 1030000
7177599 2021-Jul-16 00:16:48 k4rec.wam PRESS PRESS STONE TREE - 1 970000
7177597 2021-Jul-16 00:13:12 3knra.wam PRESS PRESS STONE VULCANO - 1 670000
7177596 2021-Jul-16 00:11:50 3knra.wam LAVA PRESS PRESS STONE - 1 220000
7177595 2021-Jul-16 00:02:05 xqgbi.wam CLAY CLAY PRESS STONE - 1 1420000
7177594 2021-Jul-16 00:02:02 22mr2.wam LAVA MUD PRESS PRESS - 1 160000
7177593 2021-Jul-16 00:01:22 22mr2.wam CLAY MUD PRESS PRESS - 1 760000
7177592 2021-Jul-15 23:58:05 3knra.wam ASH PRESS PRESS STONE - 1 790000
7177591 2021-Jul-15 23:56:04 22mr2.wam EARTH LAVA PRESS PRESS - 1 130000
7177590 2021-Jul-15 23:55:50 osiqw.wam BEACH LIFE PRESS PRESS - 1 1750000
7177589 2021-Jul-15 23:53:30 22mr2.wam LAVA PRESS PRESS SEA - 1 160000
7177588 2021-Jul-15 23:52:40 3knra.wam MNTAIN PRESS PRESS STONE - 1 820000
7177587 2021-Jul-15 23:51:20 jahhwehonwax DUST LIFE SALT SEA - 1 430000
7177586 2021-Jul-15 23:49:53 ydnuk.wam CLAY EARTH PRESS PRESS - 1 730000
7177584 2021-Jul-15 23:42:10 5klbu.wam SEA SEA STONE SUN - 1 790000
7177582 2021-Jul-15 23:41:01 iybcc.wam PRESS PRESS SEA SWAMP - 1 370000
7177580 2021-Jul-15 23:37:42 twdqq.wam GEYSER GEYSER PRESS STONE - 1 520000
7177577 2021-Jul-15 23:22:06 g3frg.wam EARTH GUNPWDR STONE STONE - 1 340000
7177575 2021-Jul-15 23:18:48 g3frg.wam EARTH GUNPWDR GUNPWDR STONE - 1 370000
7177574 2021-Jul-15 23:08:42 ttrqw.wam GRPHITE STONE WATER WATER - 1 460000
7177572 2021-Jul-15 23:07:13 plcay.wam FIRE SALT STONE STONE - 1 280000
7177571 2021-Jul-15 23:05:56 g3frg.wam EARTH EARTH GUNPWDR STONE - 1 250000
7177570 2021-Jul-15 23:04:12 1puqy.wam DUST DUST STONE WATER - 1 190000
7177569 2021-Jul-15 23:03:43 p3gea.wam GAS PRESS PRESS SEA - 1 1030000
7177568 2021-Jul-15 23:03:16 1puqy.wam DUST DUST EARTH SEA - 1 130000
7177567 2021-Jul-15 22:56:39 rt2bg.wam EXPLOSN FLOOD STONE STONE - 1 670000
7177566 2021-Jul-15 22:45:04 irosfearwax1 FIRE OCEAN OCEAN STONE - 1 430000
7177565 2021-Jul-15 22:40:14 irosfearwax1 LAVA OCEAN OCEAN STONE - 1 460000
7177564 2021-Jul-15 22:39:14 osiqw.wam BEACH EARTH OCEAN PRESS - 1 1600000
7177563 2021-Jul-15 22:32:16 ocrre.wam FIRE FIRE PRESS SEA - 1 100000
7177562 2021-Jul-15 22:25:36 osiqw.wam BEACH OCEAN PRESS PRESS - 1 1630000
7177561 2021-Jul-15 22:24:05 3xsba.wam BACTERI PLANT SEA SEA - 1 820000
7177560 2021-Jul-15 22:23:01 xscaw.wam ENERGY RAIN SEED SUN - 1 1900000
7177559 2021-Jul-15 22:20:04 xf5ra.wam EARTH MNTAIN SEA SEA - 1 730000
7177558 2021-Jul-15 22:19:39 gcmr4.wam MNTAIN PRESS RAIN RAIN - 1 760000
7177557 2021-Jul-15 22:14:05 pt.ay.wam MNTAIN MUD STONE STONE - 1 880000
7177556 2021-Jul-15 22:12:11 gcmr4.wam LIFE STEAM STEAM STONE - 1 460000
7177555 2021-Jul-15 22:09:30 tcnaw.wam GEYSER PRESS STONE STONE - 2 430000
7177554 2021-Jul-15 22:09:17 gcmr4.wam MNTAIN RAIN WIND WIND - 1 940000
7177553 2021-Jul-15 22:05:46 lpoqy.wam PRESS SEA STEAM STEAM - 1 160000
7177551 2021-Jul-15 22:04:34 gcmr4.wam LIFE SAND WAVE WAVE - 1 1540000
7177550 2021-Jul-15 22:04:12 lpoqy.wam SEA STEAM STEAM STONE - 1 220000
7177549 2021-Jul-15 22:02:33 lpoqy.wam SEA SEA STEAM STONE - 1 220000
7177548 2021-Jul-15 22:00:57 pt.ay.wam MUD PLANT STONE STONE - 1 400000
7177547 2021-Jul-15 22:00:31 gcmr4.wam PLANT RAIN RAIN STONE - 1 340000
7177546 2021-Jul-15 21:59:49 gsoaw.wam BUBBLES LIFE LIFE OCEAN - 1 1690000
7177545 2021-Jul-15 21:59:31 .hpcg.wam CLAY OCEAN SAND SAND - 1 1720000
7177543 2021-Jul-15 21:58:09 p3gea.wam PRESS PRESS SEA SUN - 1 730000
7177541 2021-Jul-15 21:51:43 tnequ.wam EARTH LAVA STONE STONE - 1 250000
7177540 2021-Jul-15 21:46:56 gogodrodrops CLAY STONE STONE WAVE - 1 1240000
7177539 2021-Jul-15 21:45:58 5vrr.wam EARTH SALT SALT SALT - 1 220000
7177538 2021-Jul-15 21:44:29 osiqw.wam ARCHIP OCEAN OCEAN PRESS - 1 2410000
7177537 2021-Jul-15 21:43:27 osiqw.wam OCEAN OCEAN PRESS VULCANO - 1 850000
7177534 2021-Jul-15 21:41:22 tnequ.wam EARTH LAVA LAVA STONE - 1 190000
7177533 2021-Jul-15 21:40:14 ni1qy.wam CLAY ELECTRC FIRE GRPHITE - 1 2410000
7177532 2021-Jul-15 21:38:31 rm1qy.wam EARTH STONE WIND WIND - 1 370000
7177531 2021-Jul-15 21:35:34 cb.b2.wam DUST DUST OCEAN SEA - 2 280000
7177530 2021-Jul-15 21:33:10 osiqw.wam OCEAN OCEAN PRESS WATER - 1 370000
7177529 2021-Jul-15 21:32:44 cb.b2.wam MNTAIN RAIN RAIN WATER - 1 730000
7177528 2021-Jul-15 21:32:26 osiqw.wam OCEAN OCEAN PRESS STEAM - 1 400000
7177526 2021-Jul-15 21:31:48 gnere.wam HEAT HEAT MOSS SEA - 1 400000
7177525 2021-Jul-15 21:31:44 osiqw.wam LAVA OCEAN OCEAN PRESS - 1 400000
7177524 2021-Jul-15 21:31:23 osiqw.wam BEACH OCEAN OCEAN PRESS - 1 1750000
7177523 2021-Jul-15 21:30:52 cb.b2.wam ASH RAIN STONE STONE - 1 850000
7177522 2021-Jul-15 21:29:27 xpobs.wam PLANT SAND SAND STONE - 1 1180000
7177521 2021-Jul-15 21:29:00 yvfra.wam CLAY SALT STONE STONE - 1 910000
7177518 2021-Jul-15 21:21:55 cb.b2.wam BUBBLES SEA SEA STONE - 1 1150000
7177517 2021-Jul-15 21:21:15 lbaba.wam CLAY LIFE LIFE SEA - 1 1240000
7177516 2021-Jul-15 21:19:33 xdtbg.wam EARTH EARTH HEAT SEA - 1 100000
7177515 2021-Jul-15 21:16:59 dz2aw.wam EARTH MUD STONE STONE - 1 250000
7177514 2021-Jul-15 21:16:48 yvfra.wam COAL SAND SEA SEA - 1 820000
7177513 2021-Jul-15 21:16:27 cb.b2.wam DUST LIFE PRESS PRESS - 1 400000
7177512 2021-Jul-15 21:14:24 cb.b2.wam DUST DUST LIFE PRESS - 1 400000
7177511 2021-Jul-15 21:11:29 cb.b2.wam EARTH EARTH PRESS SAND - 1 520000
7177510 2021-Jul-15 21:08:16 1puqy.wam CLAY DUST DUST PRESS - 1 760000
7177509 2021-Jul-15 21:07:38 cb.b2.wam EARTH PLANT STONE STONE - 1 370000
7177508 2021-Jul-15 21:06:51 o5gqy.wam DUST DUST LIFE PLANT - 1 520000
7177507 2021-Jul-15 21:04:55 cb.b2.wam LIFE LIFE SEA WATER - 1 610000
7177506 2021-Jul-15 21:02:39 r2t.e.wam AIR AIR STONE WAVE - 1 520000
7177505 2021-Jul-15 21:01:52 cb.b2.wam MOSS PLANT WATER WATER - 1 460000
7177504 2021-Jul-15 21:01:14 r2t.e.wam FIRE FIRE STONE WAVE - 1 520000
7177503 2021-Jul-15 20:57:12 cb.b2.wam PLANT STONE WAVE WAVE - 1 1060000
7177502 2021-Jul-15 20:43:57 ojub2.wam PLANT STONE STONE WAVE - 1 760000
7177500 2021-Jul-15 20:40:12 ojub2.wam EARTH EARTH MOSS RAIN - 1 340000
7177499 2021-Jul-15 20:40:01 a5nbs.wam LIFE SAND SAND WAVE - 1 1600000
7177498 2021-Jul-15 20:36:51 ojub2.wam EARTH PRESS PRESS RAIN - 1 130000
7177497 2021-Jul-15 20:34:48 zbqrc.wam COAL MUD MUD OCEAN - 1 520000
7177496 2021-Jul-15 20:34:00 u.sqy.wam ENERGY OCEAN STONE STONE - 1 400000
7177495 2021-Jul-15 20:32:29 jjlb.wam CLAY CLAY WATER WIND - 1 1420000
7177494 2021-Jul-15 20:31:14 k3nrc.wam EARTH EARTH PLANT SEA - 1 220000
7177493 2021-Jul-15 20:30:03 ojub2.wam PLANT RAIN RAIN SAND - 1 700000
7177492 2021-Jul-15 20:28:51 jjlb.wam CLAY CLAY STONE WATER - 1 1390000
7177491 2021-Jul-15 20:28:45 rngbi.wam SAND SWAMP SWAMP WATER - 1 970000
7177490 2021-Jul-15 20:27:40 smpr2.wam HEAT PLANT SEA SEA - 1 280000
7177489 2021-Jul-15 20:26:23 ojub2.wam PRESS RAIN RAIN SAND - 1 580000
7177488 2021-Jul-15 20:22:22 4y4qy.wam LIFE LIFE SAND STONE - 1 1120000
7177486 2021-Jul-15 20:20:24 4y4qy.wam BUBBLES PRESS STONE STONE - 1 1210000
7177485 2021-Jul-15 20:20:03 ojub2.wam PLANT PLANT SAND WATER - 1 790000
7177484 2021-Jul-15 20:18:24 hljrq.wam ENERGY LAVA LAVA SEA - 1 160000
7177483 2021-Jul-15 20:17:43 u.sqy.wam BACTERI EARTH EARTH OCEAN - 1 760000
7177482 2021-Jul-15 20:16:08 mzgc4.wam BACTERI SEA SEA WAVE - 1 1060000
7177481 2021-Jul-15 20:16:02 ojub2.wam LAVA PLANT WATER WATER - 1 220000
7177480 2021-Jul-15 20:15:44 4y4qy.wam LIFE SAND SAND STONE - 1 1300000
7177479 2021-Jul-15 20:13:02 4o4rk.wam PRESS SEA SEAWEED SEAWEED - 1 2860000
7177478 2021-Jul-15 20:12:30 .12qw.wam EARTH RAIN RAIN STONE - 1 190000
7177477 2021-Jul-15 20:10:03 4y4qy.wam RIVER SAND STONE STONE - 1 1690000
7177476 2021-Jul-15 20:09:57 ojub2.wam DUST LIFE LIFE SEA - 1 640000
7177475 2021-Jul-15 20:06:51 ojub2.wam EARTH SAND SEA SEA - 1 550000
7177474 2021-Jul-15 20:05:44 4y4qy.wam BRICK PRESS SAND SAND - 1 1060000
7177473 2021-Jul-15 20:04:53 u55aw.wam LIFE LIFE PRESS WAVE - 1 1000000
7177472 2021-Jul-15 20:02:04 4y4qy.wam BACTERI SAND SAND WATER - 1 1510000
7177471 2021-Jul-15 20:01:59 ojub2.wam EARTH EARTH SAND WATER - 1 490000
7177470 2021-Jul-15 20:00:34 hljrq.wam ENERGY FIRE FIRE SEA - 1 100000
7177469 2021-Jul-15 20:00:17 ojub2.wam DUST PLANT SEA SEA - 1 280000
7177468 2021-Jul-15 20:00:00 rwck4.wam BUBBLES PRESS PRESS STONE - 1 1150000
7177467 2021-Jul-15 19:58:04 ojub2.wam DUST LIFE SEA SEA - 1 400000
7177466 2021-Jul-15 19:58:01 4y4qy.wam SEA STONE SUN SUN - 1 1360000
7177465 2021-Jul-15 19:56:49 itreallyb1ly HEAT RAIN RAIN STONE - 1 220000
7177464 2021-Jul-15 19:53:53 4y4qy.wam BUBBLES SAND SEA SEA - 1 1510000
7177463 2021-Jul-15 19:52:07 ggnb4.wam MNTAIN MNTAIN PRESS WATER - 1 1330000
7177462 2021-Jul-15 19:52:06 mzgc4.wam LIFE PLANT PLANT SEA - 1 640000
7177461 2021-Jul-15 19:50:10 axzba.wam COAL PRESS SEA SEA - 1 400000
7177460 2021-Jul-15 19:49:15 lpoqy.wam PRESS SEA SEA STEAM - 1 160000
7177459 2021-Jul-15 19:48:47 pl.ra.wam HEAT PRESS SALT SALT - 1 220000
7177457 2021-Jul-15 19:45:58 qdvra.wam HEAT HEAT PRESS STEAM - 1 160000
7177455 2021-Jul-15 19:45:03 xmnrc.wam HEAT LAVA STONE STONE - 1 280000
7177454 2021-Jul-15 19:45:00 5..rg.wam EARTH LIFE RAIN RAIN - 1 370000
7177453 2021-Jul-15 19:44:14 kmebk.wam LAVA STONE WATER WATER - 1 160000
7177452 2021-Jul-15 19:43:12 4y4qy.wam EARTH EARTH EXPLOSN WATER - 1 340000
7177451 2021-Jul-15 19:42:55 ggnb4.wam CLAY STONE STONE WATER - 1 850000
7177450 2021-Jul-15 19:42:48 3diau.wam LIFE MNTAIN WAVE WAVE - 1 1720000
7177449 2021-Jul-15 19:42:33 rwck4.wam BUBBLES OCEAN STONE STONE - 1 1330000
7177448 2021-Jul-15 19:41:06 mzgc4.wam DUST DUST SEA WAVE - 1 520000
7177447 2021-Jul-15 19:40:18 domra.wam LAVA PRESS WATER WATER - 1 100000
7177446 2021-Jul-15 19:39:00 ggnb4.wam LIFE MUD MUD SAND - 1 820000
7177445 2021-Jul-15 19:37:22 l3zra.wam LIFE LIFE SUN WATER - 1 1180000
7177444 2021-Jul-15 19:36:30 4y4qy.wam COAL LAVA LAVA STONE - 1 460000
7177443 2021-Jul-15 19:35:35 1uobi.wam DUST DUST LIFE SEA - 1 400000
7177442 2021-Jul-15 19:33:55 ggnb4.wam BLOCK STONE WATER WATER - 1 880000
7177441 2021-Jul-15 19:33:09 4y4qy.wam FLOOD PRESS STONE STONE - 1 400000
7177440 2021-Jul-15 19:33:02 m4rb.wam CRUDE GAS STONE STONE - 1 2110000
7177438 2021-Jul-15 19:31:06 .hpcg.wam OCEAN SAND WATER WATER - 1 640000
7177437 2021-Jul-15 19:29:21 b1sqw.wam MUD STONE WATER WATER - 4 160000
7177435 2021-Jul-15 19:28:52 tdfay.wam OCEAN OCEAN STONE SUN - 1 1030000
7177434 2021-Jul-15 19:28:50 4y4qy.wam LIFE LIFE STONE SUN - 1 1270000
7177433 2021-Jul-15 19:27:40 mzgc4.wam HEAT HEAT SEA WAVE - 1 520000
7177432 2021-Jul-15 19:27:33 rwck4.wam BUBBLES STONE STONE WATER - 1 1180000
7177431 2021-Jul-15 19:27:00 pl.ra.wam PRESS PRESS SALT SAND - 1 610000
7177430 2021-Jul-15 19:26:02 smpr2.wam HEAT STEAM WATER WATER - 1 100000
7177429 2021-Jul-15 19:25:30 xpar.wam EARTH SEA SEA WATER - 1 100000
7177428 2021-Jul-15 19:25:27 4y4qy.wam LIFE LIFE STONE WAVE - 1 1060000
7177427 2021-Jul-15 19:25:20 r2t.e.wam AIR AIR SALT STONE - 1 190000
7177426 2021-Jul-15 19:23:44 lrbay.wam OCEAN PRESS PRESS SUN - 1 850000
7177425 2021-Jul-15 19:23:16 r2t.e.wam AIR AIR MUD WATER - 1 70000
7177424 2021-Jul-15 19:23:14 ggnb4.wam EARTH EARTH LIFE MUD - 1 340000
7177422 2021-Jul-15 19:22:13 qdvra.wam HEAT SAND WATER WATER - 1 520000
7177421 2021-Jul-15 19:21:58 r2t.e.wam AIR AIR SEA STONE - 1 160000
7177420 2021-Jul-15 19:21:11 zcoaw.wam EARTH EARTH PRESS SALT - 1 130000
7177419 2021-Jul-15 19:21:10 4y4qy.wam RAIN STONE STONE SUN - 1 850000
7177418 2021-Jul-15 19:20:42 r2t.e.wam AIR AIR STONE WATER - 1 130000
7177417 2021-Jul-15 19:19:06 ngaba.wam FIRE STONE WATER WATER - 1 130000
7177416 2021-Jul-15 19:18:16 2gfr.wam EARTH WATER WATER WAVE - 1 430000
7177414 2021-Jul-15 19:16:56 4y4qy.wam OCEAN SALT SALT SUN - 1 910000
7177413 2021-Jul-15 19:15:22 xlubg.wam ASH ASH HEAT WATER - 1 1270000
7177412 2021-Jul-15 19:15:17 gwgb2.wam LIFE MUD MUD WATER - 1 370000
7177411 2021-Jul-15 19:14:36 2gt2a.wam EARTH HEAT SEA SEA - 1 130000
7177410 2021-Jul-15 19:14:12 4y4qy.wam STONE SUN WATER WATER - 1 730000
7177409 2021-Jul-15 19:13:19 q.er2.wam EARTH EARTH LAVA PRESS - 1 100000
7177408 2021-Jul-15 19:12:02 .5gsq.wam MUD SALT WATER WATER - 1 130000
7177407 2021-Jul-15 19:11:02 tvsba.wam EARTH EARTH PRESS WAVE - 1 460000
7177406 2021-Jul-15 19:09:50 4y4qy.wam CLAY CLAY SALT STONE - 1 1450000
7177405 2021-Jul-15 19:09:23 z1may.wam HEAT HEAT OCEAN SALT - 1 310000
7177404 2021-Jul-15 19:09:09 ix1re.wam EARTHQ RAIN STONE STONE - 1 340000
7177403 2021-Jul-15 19:08:34 nipr2.wam HEAT MUD WATER WATER - 1 100000
7177402 2021-Jul-15 19:07:51 .5gsq.wam MUD SALT SEA SEA - 1 190000
7177401 2021-Jul-15 19:07:37 mzgc4.wam DUST DUST OCEAN WAVE - 1 640000
7177399 2021-Jul-15 19:05:14 z1may.wam HEAT HEAT PRESS WAVE - 1 520000
7177398 2021-Jul-15 19:05:11 4y4qy.wam PRESS WATER WATER WAVE - 2 460000
7177397 2021-Jul-15 19:02:42 3.lqy.wam GRPHITE STONE STONE WATER - 1 550000
7177396 2021-Jul-15 18:59:09 4y4qy.wam STONE TREE WATER WATER - 1 910000
7177395 2021-Jul-15 18:58:52 l3zra.wam LIFE LIFE SEA SUN - 1 1210000
7177394 2021-Jul-15 18:58:28 mzgc4.wam SALT SAND WATER WATER - 1 550000
7177393 2021-Jul-15 18:58:23 yb2sq.wam MNTAIN PLANT STONE STONE - 1 1000000
7177392 2021-Jul-15 18:57:38 jtoaw.wam EARTH EARTH SALT SEA - 1 130000
7177390 2021-Jul-15 18:56:42 4vibe.wam MNTAIN SALT SALT WATER - 1 790000
7177388 2021-Jul-15 18:55:48 rrcb4.wam EARTH SAND WATER WATER - 2 490000
7177387 2021-Jul-15 18:54:36 mzgc4.wam MUD MUD OBSIDIN SAND - 1 670000
7177386 2021-Jul-15 18:54:35 5h2ru.wam HEAT LIFE WATER WATER - 2 340000
7177385 2021-Jul-15 18:54:21 5h2ru.wam HEAT HEAT LIFE WATER - 1 370000
7177384 2021-Jul-15 18:53:40 jtib2.wam MUD RAIN STONE STONE - 1 280000
7177383 2021-Jul-15 18:52:53 luqb2.wam PRESS RAIN RAIN SUN - 1 730000
7177382 2021-Jul-15 18:52:34 jtoaw.wam EARTH SALT SALT SEA - 1 190000
7177381 2021-Jul-15 18:51:35 jusenas.gm LAVA MUD MUD SEA - 1 160000
7177380 2021-Jul-15 18:51:25 4y4qy.wam SEA STONE STONE SUN - 1 850000
7177379 2021-Jul-15 18:51:11 luqb2.wam HEAT HEAT PRESS RAIN - 1 160000
7177378 2021-Jul-15 18:50:59 e1nu.wam EARTH STONE WAVE WAVE - 1 910000
7177376 2021-Jul-15 18:50:49 vb.c.wam BLADE FIRE GLASS PRESS - 1 1660000
7177375 2021-Jul-15 18:50:11 f.cay.wam DUST MUD SAND SAND - 1 1000000
7177374 2021-Jul-15 18:50:02 ocrre.wam ATMSPHE PRESS SALT STONE - 1 340000
7177373 2021-Jul-15 18:49:10 4y4qy.wam LIFE LIFE RAIN STONE - 1 700000
7177372 2021-Jul-15 18:48:30 3yk5c.wam BUBBLES LIFE STONE STONE - 1 1450000
7177370 2021-Jul-15 18:47:49 rpiay.wam COAL COAL COAL STONE - 1 940000
7177369 2021-Jul-15 18:47:16 luqb2.wam HEAT HEAT MOSS RAIN - 1 400000
7177367 2021-Jul-15 18:46:16 wpsca.wam BACTERI MUD MUD STONE - 1 760000
7177366 2021-Jul-15 18:45:26 nbgro.wam DUST DUST SEA STONE - 1 220000
7177365 2021-Jul-15 18:44:54 4y4qy.wam EXPLOSN MNTAIN STONE STONE - 2 1150000
7177364 2021-Jul-15 18:44:30 3diau.wam DIAMOND DIAMOND SAND WAVE - 1 1660000
7177363 2021-Jul-15 18:41:39 cloay.wam EXPLOSN SEA STONE STONE - 1 550000
7177362 2021-Jul-15 18:41:35 dn3rg.wam EARTH PRESS SAND SAND - 1 970000
7177361 2021-Jul-15 18:41:16 rm1qy.wam EARTH EARTHQ STONE STONE - 2 310000
7177360 2021-Jul-15 18:38:42 lrbay.wam MUD MUD OCEAN SUN - 1 850000
7177358 2021-Jul-15 18:38:06 qz5be.wam CLAY EARTH LIFE LIFE - 1 1210000
7177357 2021-Jul-15 18:37:40 4y4qy.wam PRESS SAND WAVE WAVE - 1 1300000
7177355 2021-Jul-15 18:37:21 qz5be.wam CLAY LIFE LIFE PRESS - 1 1240000
7177354 2021-Jul-15 18:36:41 wsl.g.wam PRESS PRESS SEA WIND - 2 250000
7177353 2021-Jul-15 18:33:25 4y4qy.wam PRESS PRESS SEA WAVE - 2 520000
7177352 2021-Jul-15 18:32:06 cv4am.wam ASH OCEAN STONE STONE - 1 970000
7177351 2021-Jul-15 18:30:45 ip43m.wam LIFE LIFE PRESS SAND - 2 1060000
7177349 2021-Jul-15 18:30:37 gwgb2.wam BACTERI RAIN STONE STONE - 1 820000
7177348 2021-Jul-15 18:30:35 4y4qy.wam EARTHQ EARTHQ LIFE SEA - 1 520000
7177347 2021-Jul-15 18:29:23 qz5be.wam CLAY OCEAN OCEAN PRESS - 1 1000000
7177346 2021-Jul-15 18:28:52 wpsca.wam EARTH MUD MUD OCEAN - 1 250000
7177345 2021-Jul-15 18:28:00 4bbqy.wam MUD PRESS PRESS WAVE - 1 520000
7177344 2021-Jul-15 18:27:24 xdtbg.wam LAVA MUD WATER WATER - 1 100000
7177343 2021-Jul-15 18:27:18 t5qb2.wam ISLE LIFE LIFE OCEAN - 1 1390000
7177340 2021-Jul-15 18:26:35 4y4qy.wam LIFE PRESS PRESS WAVE - 1 760000
7177339 2021-Jul-15 18:26:25 yvfra.wam BUBBLES SEA STONE STONE - 1 1210000
7177338 2021-Jul-15 18:26:24 idabo.wam OCEAN OCEAN SEA STONE - 1 460000
7177337 2021-Jul-15 18:26:07 3yk5c.wam LIFE RAIN STONE STONE - 1 520000
7177336 2021-Jul-15 18:24:48 4y4qy.wam PRESS PRESS SAND WAVE - 1 940000
7177335 2021-Jul-15 18:22:13 e2cr.wam MUD MUD SEA WAVE - 1 520000
7177334 2021-Jul-15 18:20:35 1akay.wam EARTH SALT SALT WATER - 1 160000
7177333 2021-Jul-15 18:20:19 xlubg.wam PRESS RAIN SAND SAND - 1 1000000
7177332 2021-Jul-15 18:20:12 vaaaaaaaaaan DUST DUST OCEAN STONE - 1 340000
7177331 2021-Jul-15 18:19:52 4y4qy.wam SALT SAND STONE STONE - 1 730000
7177330 2021-Jul-15 18:19:43 vaaaaaaaaaan OCEAN OCEAN STONE WATER - 1 430000
7177329 2021-Jul-15 18:19:27 vaaaaaaaaaan OCEAN STONE WATER WATER - 1 280000
7177327 2021-Jul-15 18:16:12 tvsba.wam MUD MUD STONE WAVE - 1 580000
7177326 2021-Jul-15 18:16:08 e1nu.wam MNTAIN STONE STONE WAVE - 1 1240000
7177325 2021-Jul-15 18:15:25 4y4qy.wam RAIN STONE STONE WAVE - 1 640000
7177324 2021-Jul-15 18:14:35 e2cr.wam HEAT HEAT SALT SEA - 1 190000
7177323 2021-Jul-15 18:13:54 tokb2.wam MUD MUD STONE SWAMP - 1 430000
7177322 2021-Jul-15 18:13:06 rm1qy.wam EARTH EARTH OCEAN SALT - 1 250000
7177321 2021-Jul-15 18:12:52 4k5qq.wam BACTERI BACTERI OCEAN STONE - 1 1420000
7177320 2021-Jul-15 18:12:52 a5nbs.wam OCEAN OCEAN SAND WAVE - 1 1180000
7177319 2021-Jul-15 18:12:48 wpsca.wam MUD SAND SEA SEA - 1 580000
7177318 2021-Jul-15 18:10:26 4y4qy.wam OCEAN STONE SUN SUN - 1 1480000
7177317 2021-Jul-15 18:10:00 e2cr.wam HEAT HEAT RAIN SEA - 1 160000
7177316 2021-Jul-15 18:09:50 14vb2.wam BACTERI MUD SEA SEA - 1 700000
7177315 2021-Jul-15 18:09:25 e2cr.wam HEAT RAIN RAIN SEA - 1 160000
7177314 2021-Jul-15 18:08:54 e2cr.wam HEAT OCEAN RAIN RAIN - 1 280000
7177313 2021-Jul-15 18:08:52 f.cay.wam MUD SAND SAND STONE - 1 1060000
7177312 2021-Jul-15 18:08:17 idabo.wam AIR AIR PRESS STONE - 1 160000
7177311 2021-Jul-15 18:07:59 e2cr.wam HEAT HEAT OCEAN RAIN - 1 280000
7177310 2021-Jul-15 18:07:22 yvfra.wam CLAY SAND SAND STONE - 1 1660000
7177309 2021-Jul-15 18:07:04 mzgc4.wam HEAT HEAT SAND STONE - 1 640000
7177307 2021-Jul-15 18:06:51 ehrbq.wam MNTAIN RAIN STONE STONE - 1 880000
7177306 2021-Jul-15 18:06:32 idabo.wam AIR PRESS PRESS STONE - 1 190000
7177305 2021-Jul-15 18:06:11 h2.5i.wam DUST PRESS SEA SEA - 2 160000
7177304 2021-Jul-15 18:05:26 pvfb.wam AIR SALT STONE STONE - 1 280000
7177302 2021-Jul-15 18:04:36 e1nu.wam MNTAIN OCEAN STONE STONE - 1 1000000
7177301 2021-Jul-15 18:03:03 jtob2.wam DUST SAND SEA STONE - 1 640000
7177300 2021-Jul-15 18:03:01 db1rc.wam OCEAN RAIN RAIN STONE - 1 340000
7177299 2021-Jul-15 18:02:36 4y4qy.wam MNTAIN SAND STONE STONE - 1 1300000
7177298 2021-Jul-15 18:02:27 5j3r4.wam PLANT SALT SAND SAND - 1 1150000
7177297 2021-Jul-15 18:02:26 ngrbc.wam LIFE LIFE RAIN SEA - 1 640000
7177296 2021-Jul-15 18:01:56 2jg1a.wam PLANT SALT STONE STONE - 1 430000
7177295 2021-Jul-15 18:01:55 e2cr.wam OCEAN PRESS RAIN RAIN - 1 280000
7177293 2021-Jul-15 17:58:57 xqjam.wam CLAY PRESS SEA SEA - 1 760000
7177292 2021-Jul-15 17:58:12 4y4qy.wam LIFE SALT STONE STONE - 1 550000
7177290 2021-Jul-15 17:56:49 tdfay.wam MOSS STONE STONE WATER - 1 490000
7177289 2021-Jul-15 17:56:24 2cwra.wam STONE STONE WAVE WIND - 2 730000
7177288 2021-Jul-15 17:56:15 cprb2.wam HEAT HEAT OCEAN SUN - 1 850000
7177287 2021-Jul-15 17:56:14 zj.rc.wam LIFE LIFE OCEAN SUN - 1 1330000
7177286 2021-Jul-15 17:54:15 h2.5i.wam DUST SEA SEA WATER - 1 130000
7177285 2021-Jul-15 17:54:09 e2cr.wam BACTERI PRESS WATER WATER - 1 640000
7177284 2021-Jul-15 17:54:08 mzgc4.wam SALT SALT SAND STONE - 1 700000
7177283 2021-Jul-15 17:53:04 4y4qy.wam SEA STONE STONE WALL - 1 580000
7177282 2021-Jul-15 17:52:57 vaaaaaaaaaan CLAY OCEAN OCEAN STONE - 1 1060000
7177281 2021-Jul-15 17:52:13 e2cr.wam DUST OCEAN OCEAN PRESS - 1 400000
7177280 2021-Jul-15 17:48:47 5j3r4.wam PLANT SALT SALT SAND - 1 760000
7177279 2021-Jul-15 17:48:30 zj.rc.wam EARTH LIFE WATER WATER - 1 310000
7177278 2021-Jul-15 17:48:26 otydy.wam SALT STONE WAVE WAVE - 1 970000
7177277 2021-Jul-15 17:47:42 vaaaaaaaaaan SEA SEA STONE WATER - 2 190000
7177276 2021-Jul-15 17:47:33 5lsay.wam PRESS SALT WATER WATER - 1 130000
7177275 2021-Jul-15 17:47:22 jppr2.wam MUD RAIN RAIN SEA - 1 160000
7177274 2021-Jul-15 17:47:17 tokb2.wam BEACH MUD MUD SEA - 1 1510000
7177273 2021-Jul-15 17:47:03 mzgc4.wam STONE WATER WIND WIND - 1 370000
7177272 2021-Jul-15 17:46:47 nipr2.wam HEAT LIFE STONE STONE - 1 520000
7177271 2021-Jul-15 17:46:37 2jg1a.wam FLOOD SALT STONE STONE - 1 430000
7177270 2021-Jul-15 17:46:21 4y4qy.wam RIVER SEA STONE STONE - 1 1270000
7177269 2021-Jul-15 17:44:23 smpr2.wam HEAT SALT SALT SEA - 1 220000
7177268 2021-Jul-15 17:43:00 mi3r2.wam LIFE SAND STONE STONE - 2 940000
7177267 2021-Jul-15 17:42:50 otydy.wam PRESS SALT WAVE WAVE - 1 910000
7177266 2021-Jul-15 17:42:40 vaaaaaaaaaan DUST OCEAN OCEAN STONE - 1 460000
7177265 2021-Jul-15 17:42:32 cryptogamist LAVA LAVA MUD WATER - 1 130000
7177264 2021-Jul-15 17:42:23 vaaaaaaaaaan DUST SEA SEA STONE - 1 220000
7177263 2021-Jul-15 17:42:04 vaaaaaaaaaan DUST STONE WATER WATER - 1 160000
7177262 2021-Jul-15 17:42:03 k4rec.wam LAVA PRESS STONE STONE - 2 280000
7177261 2021-Jul-15 17:41:50 1zpay.wam LIFE RIVER STONE STONE - 1 1510000
7177260 2021-Jul-15 17:41:27 e1nu.wam PRESS PRESS SALT WAVE - 1 550000
7177259 2021-Jul-15 17:41:24 l3zra.wam PLANT PLANT RIVER SEA - 1 1390000
7177258 2021-Jul-15 17:41:02 xqjam.wam CLAY HEAT SEA SEA - 1 760000
7177257 2021-Jul-15 17:40:37 pdss2.wam SALT SAND SAND STONE - 1 1090000
7177256 2021-Jul-15 17:38:35 4y4qy.wam SALT SALT STONE WAVE - 1 640000
7177255 2021-Jul-15 17:38:07 5j3r4.wam HEAT SALT SALT SAND - 1 640000
7177254 2021-Jul-15 17:37:27 rm1qy.wam EARTH SAND SAND STONE - 1 1030000
7177253 2021-Jul-15 17:36:02 budr.wam PRESS PRESS RAIN WATER - 1 130000
7177252 2021-Jul-15 17:35:37 milkshakepie LIFE PLANT SEA SEA - 1 520000
7177251 2021-Jul-15 17:34:25 rxbay.wam GEYSER HEAT HEAT PRESS - 1 310000
7177250 2021-Jul-15 17:31:30 4y4qy.wam HEAT PRESS PRESS WAVE - 1 520000
7177249 2021-Jul-15 17:29:02 xqjam.wam CLAY SAND SEA SEA - 1 1180000
7177248 2021-Jul-15 17:28:58 budr.wam DUST DUST PLANT PRESS - 1 280000
7177247 2021-Jul-15 17:28:40 4irbm.wam EARTH SEA WATER WATER - 1 70000
7177246 2021-Jul-15 17:26:58 q1pb4.wam PRESS SEA SEA SUN - 1 730000
7177244 2021-Jul-15 17:25:07 tf1ca.wam EARTH FIRE SEA SEA - 1 100000
7177243 2021-Jul-15 17:24:08 .hpre.wam AIR SEA SEA STONE - 1 190000
7177242 2021-Jul-15 17:23:48 5j3r4.wam HEAT MOSS SALT SALT - 1 460000
7177241 2021-Jul-15 17:23:13 wepri.wam OCEAN PRESS PRESS STEAM - 1 280000
7177240 2021-Jul-15 17:22:36 jtob2.wam LAVA LAVA SALT SAND - 1 610000
7177239 2021-Jul-15 17:19:54 almrc.wam BLOCK PRESS STONE STONE - 1 1000000
7177238 2021-Jul-15 17:18:27 tf1ca.wam EARTH SALT SEA SEA - 1 160000
7177237 2021-Jul-15 17:17:23 jb5ra.wam MOSS MUD MUD STONE - 1 460000
7177236 2021-Jul-15 17:16:19 5j3r4.wam HEAT SALT STONE STONE - 1 310000
7177234 2021-Jul-15 17:15:48 5j3r4.wam HEAT SALT SALT STONE - 1 280000
7177233 2021-Jul-15 17:15:38 e2cr.wam RAIN RAIN SALT STONE - 1 250000
7177232 2021-Jul-15 17:13:58 e2cr.wam RAIN SALT SALT STONE - 1 280000
7177231 2021-Jul-15 17:13:47 5j3r4.wam SALT SALT SEAWEED STONE - 1 1630000
7177230 2021-Jul-15 17:13:10 tbqqw.wam FIRE FIRE STONE WATER - 1 130000
7177229 2021-Jul-15 17:13:00 e1nu.wam RIVER SALT SALT STONE - 1 1270000
7177228 2021-Jul-15 17:12:28 e1nu.wam RIVER SALT STONE STONE - 1 1300000
7177227 2021-Jul-15 17:10:52 yqpbu.wam EXPLOSN PRESS PRESS STONE - 1 490000
7177226 2021-Jul-15 17:10:49 gnsba.wam PLANT STONE STONE TREE - 1 1150000
7177225 2021-Jul-15 17:10:33 mzgc4.wam MOSS RAIN RAIN STONE - 2 460000
7177223 2021-Jul-15 17:09:55 e2cr.wam PRESS PRESS SEAWEED WATER - 1 1480000
7177222 2021-Jul-15 17:09:01 ..vbc.wam BACTERI PLANT STONE STONE - 1 940000
7177221 2021-Jul-15 17:08:30 5iv2e.wam BACTERI BACTERI HEAT OCEAN - 1 1360000
7177220 2021-Jul-15 17:07:28 c4.r4.wam LIFE LIFE STONE SWAMP - 1 910000
7177219 2021-Jul-15 17:07:12 e2cr.wam PRESS PRESS SEA SEAWEED - 1 1510000
7177218 2021-Jul-15 17:06:28 smpr2.wam HEAT SALT SEA SEA - 1 190000
7177217 2021-Jul-15 17:06:26 5j3r4.wam SEA SEAWEED STONE STONE - 1 1630000
7177215 2021-Jul-15 17:05:04 p4lqm.wam LIFE MUD MUD STONE - 1 460000
7177214 2021-Jul-15 17:03:50 mzgc4.wam HEAT SAND SEA SEA - 1 580000
7177213 2021-Jul-15 17:03:44 budr.wam DUST DUST PRESS RAIN - 1 160000
7177212 2021-Jul-15 17:03:14 gwgb2.wam BACTERI BACTERI SEA STONE - 1 1300000
7177211 2021-Jul-15 17:03:03 almrc.wam BLOCK STONE STONE STONE - 1 1060000
7177210 2021-Jul-15 17:02:12 r3ab2.wam HEAT HEAT PLANT STONE - 1 340000
7177209 2021-Jul-15 17:01:18 e2cr.wam RAIN RAIN STONE WATER - 1 190000
7177208 2021-Jul-15 17:00:14 e2cr.wam MUD RAIN RAIN STONE - 1 220000
7177207 2021-Jul-15 16:59:44 addbi.wam MOSS RAIN STONE STONE - 1 520000
7177205 2021-Jul-15 16:58:59 mzgc4.wam BACTERI SAND WATER WATER - 1 1060000
7177204 2021-Jul-15 16:58:36 ccpay.wam OCEAN RIVER STONE STONE - 1 1390000
7177203 2021-Jul-15 16:58:27 frcqu.wam DUST PRESS PRESS SAND - 1 580000
7177202 2021-Jul-15 16:58:06 idabo.wam BACTERI PRESS STONE STONE - 1 820000
7177201 2021-Jul-15 16:56:15 e2cr.wam DUST PLANT PLANT PRESS - 1 400000
7177200 2021-Jul-15 16:55:56 rqhr4.wam LIFE PRESS PRESS RIVER - 1 1390000
7177199 2021-Jul-15 16:54:13 4umrg.wam PRESS SAND SAND WAVE - 1 1360000
7177198 2021-Jul-15 16:54:12 frcqu.wam DUST SAND STONE STONE - 1 700000
7177197 2021-Jul-15 16:53:59 4umrg.wam PRESS STEAM STONE STONE - 2 280000
7177196 2021-Jul-15 16:53:36 e2cr.wam LIFE PRESS RAIN RAIN - 1 400000
7177195 2021-Jul-15 16:52:18 gcxr2.wam DUST OCEAN STONE STONE - 1 400000
7177194 2021-Jul-15 16:51:59 ngrbc.wam OCEAN PRESS PRESS RAIN - 1 280000
7177193 2021-Jul-15 16:50:38 xbwbc.wam CLAY MOSS STONE STONE - 1 1120000
7177192 2021-Jul-15 16:50:31 e2cr.wam MUD PRESS RAIN RAIN - 1 160000
7177190 2021-Jul-15 16:47:40 ks3qw.wam AIR EARTH LAVA LAVA - 1 100000
7177188 2021-Jul-15 16:46:48 iusu4.wam EARTHQ OCEAN STONE STONE - 1 460000
7177187 2021-Jul-15 16:46:10 rw21q.wam OCEAN OCEAN PRESS SEA - 2 400000
7177186 2021-Jul-15 16:45:41 axzba.wam GEYSER LIFE STONE STONE - 1 670000
7177184 2021-Jul-15 16:44:23 4vibe.wam BOILER BOILER HEAT WATER - 1 1570000
7177183 2021-Jul-15 16:44:11 kdoqy.wam LIFE LIFE SALT WATER - 1 640000
7177182 2021-Jul-15 16:43:33 ufnb4.wam MUD SAND WAVE WAVE - 1 1300000
7177181 2021-Jul-15 16:43:20 e2cr.wam CLAY CLAY PRESS SEA - 1 1360000
7177180 2021-Jul-15 16:42:36 txyaw.wam EXPLOSN STONE STONE WATER - 1 520000
7177179 2021-Jul-15 16:41:41 goyrc.wam DUST RAIN RAIN STONE - 1 220000
7177178 2021-Jul-15 16:41:28 4umrg.wam FLOOD FLOOD MOSS PRESS - 1 640000
7177177 2021-Jul-15 16:41:16 e2cr.wam PRESS PRESS RAIN SAND - 1 580000
7177176 2021-Jul-15 16:41:14 4umrg.wam FLOOD FLOOD LIFE PRESS - 1 640000
7177175 2021-Jul-15 16:40:46 yvfra.wam DUST RAIN STONE STONE - 1 280000
7177174 2021-Jul-15 16:40:25 e1nu.wam OXYGEN SAND STONE STONE - 1 3430000
7177173 2021-Jul-15 16:40:21 kdoqy.wam LIFE LIFE SALT STONE - 1 730000
7177172 2021-Jul-15 16:39:46 pvir.wam OCEAN OCEAN STONE WAVE - 1 820000
7177171 2021-Jul-15 16:39:37 4nkr.wam LAVA LAVA PRESS SALT - 1 190000
7177170 2021-Jul-15 16:38:40 brvbq.wam CLAY CLAY SAND SEA - 1 1780000
7177169 2021-Jul-15 16:38:21 4vibe.wam BOILER HEAT WATER WATER - 1 820000
7177168 2021-Jul-15 16:37:55 4nkr.wam LAVA LAVA PRESS SAND - 1 580000
7177167 2021-Jul-15 16:37:46 jppr2.wam HEAT SAND STONE STONE - 1 700000
7177166 2021-Jul-15 16:36:47 4umrg.wam LIFE STONE STONE WAVE - 1 880000
7177165 2021-Jul-15 16:36:10 pvir.wam SEA STONE WAVE WAVE - 1 940000
7177164 2021-Jul-15 16:35:41 tvsba.wam PLANT PRESS PRESS WAVE - 1 640000
7177163 2021-Jul-15 16:35:16 4vibe.wam BOILER HEAT HEAT WATER - 1 850000
7177161 2021-Jul-15 16:33:48 jjera.wam EARTH RIVER STONE STONE - 1 1240000
7177160 2021-Jul-15 16:33:28 4umrg.wam LIFE STONE WAVE WAVE - 1 1180000
7177159 2021-Jul-15 16:33:14 4umrg.wam LIFE PRESS WAVE WAVE - 1 1120000
7177158 2021-Jul-15 16:31:59 rxgaq.wam MNTAIN SEA SEA STONE - 1 820000
7177157 2021-Jul-15 16:31:10 luqb2.wam PRESS STONE STONE TREE - 1 1030000
7177156 2021-Jul-15 16:30:36 etur2.wam SAND SEA SEAWEED SEAWEED - 1 3280000
7177155 2021-Jul-15 16:28:42 stangetzwaxp PRESS STONE STONE SWAMP - 1 490000
7177154 2021-Jul-15 16:27:14 e5ydi.wam PRESS STONE STONE WIND - 1 370000
7177153 2021-Jul-15 16:27:07 dbtba.wam PLANT PRESS WAVE WAVE - 1 1000000
7177152 2021-Jul-15 16:26:35 rwcqw.wam OCEAN OCEAN PRESS SUN - 1 970000
7177151 2021-Jul-15 16:26:12 .4xaw.wam BACTERI SAND STONE STONE - 1 1240000
7177149 2021-Jul-15 16:24:14 .4xaw.wam SAND STONE STONE SWAMP - 1 910000
7177148 2021-Jul-15 16:21:19 fh5b2.wam SALT STONE STONE WAVE - 1 670000
7177147 2021-Jul-15 16:21:17 ha3rc.wam GRPHITE OCEAN STONE STONE - 1 700000
7177145 2021-Jul-15 16:17:21 r44r4.wam CLAY CLAY PRESS WATER - 1 1330000
7177142 2021-Jul-15 16:15:38 4umrg.wam LIFE MOSS MOSS PRESS - 1 880000
7177141 2021-Jul-15 16:15:33 e2cr.wam CLAY PRESS WATER WATER - 1 700000
7177140 2021-Jul-15 16:14:03 2byty.wam CLAY PRESS STONE STONE - 2 880000
7177139 2021-Jul-15 16:13:34 5thba.wam COAL SAND STONE STONE - 1 940000
7177138 2021-Jul-15 16:12:28 wepri.wam PRESS PRESS SEA STEAM - 1 160000
7177136 2021-Jul-15 16:06:47 22u1.wam PRESS RIVER STONE STONE - 1 1270000
7177135 2021-Jul-15 15:50:44 e2cr.wam METAL METAL PRESS SOUND - 1 2200000
7177134 2021-Jul-15 15:35:18 1puqy.wam EARTH MNTAIN SEA STONE - 1 790000
7177133 2021-Jul-15 15:29:47 1puqy.wam MNTAIN SEA STONE STONE - 1 880000
7177132 2021-Jul-15 15:28:49 1puqy.wam CLAY SEA STONE STONE - 1 880000
7177131 2021-Jul-15 15:20:54 ex.ee.wam DEW MUD SALT STONE - 1 850000
7177125 2021-Jul-15 15:13:54 4mbbg.wam DUST EARTH FIRE SEA - 1 100000
7177124 2021-Jul-15 15:13:25 qqudw.wam BARREL BOTTLE GRAPE TREE - 1 7780000
7177121 2021-Jul-15 15:09:24 ry4qy.wam ALCOHOL GLASS GRAPE WATER - 1 3970000
7177119 2021-Jul-15 14:49:23 1puqy.wam CLAY DUST OCEAN STONE - 1 940000
7177118 2021-Jul-15 14:49:02 1puqy.wam CLAY DUST SEA STONE - 1 820000
7177116 2021-Jul-15 14:18:27 gcxr2.wam MUD OCEAN OCEAN STONE - 1 460000
7177115 2021-Jul-15 13:26:10 1puqy.wam CLAY EARTH PRESS SEA - 1 730000
7177114 2021-Jul-15 13:25:47 1puqy.wam CLAY EARTH OCEAN PRESS - 1 850000
7177111 2021-Jul-15 11:30:58 xdtbg.wam EARTH FIRE PLANT STONE - 1 280000
7177110 2021-Jul-15 11:20:21 f.pr.wam FIRE GASOLIN METAL OXYGEN - 1 4570000
7177106 2021-Jul-15 10:20:24 5uzr.wam CLAY OCEAN SAND SEAWEED - 1 2650000
7177105 2021-Jul-15 09:39:42 elldq.wam LIFE LIFE LIFE SHIT - 1 6250000
7177099 2021-Jul-15 09:28:41 osiqw.wam OCEAN PRESS SAND STEAM - 1 700000
7177098 2021-Jul-15 09:28:16 osiqw.wam BEACH OCEAN PRESS STONE - 1 1690000
7177097 2021-Jul-15 09:27:47 osiqw.wam EARTH PRESS STEAM STONE - 1 190000
7177094 2021-Jul-15 09:20:02 osiqw.wam OCEAN PRESS STONE VULCANO - 1 790000
7177092 2021-Jul-15 09:11:51 bnoqw.waa HEAT OCEAN STEAM WATER - 1 250000
7177091 2021-Jul-15 09:09:33 osiqw.wam LIFE STEAM STONE WATER - 1 430000
7177090 2021-Jul-15 08:55:01 osiqw.wam OCEAN PRESS PRESS WATER - 1 250000
7177089 2021-Jul-15 08:54:51 osiqw.wam OCEAN PRESS SAND WATER - 1 670000
7177088 2021-Jul-15 08:53:29 osiqw.wam LIFE LIFE OCEAN WATER - 1 730000
7177087 2021-Jul-15 08:52:43 osiqw.wam LIFE OCEAN SAND WATER - 1 910000
7177084 2021-Jul-15 08:50:54 milkshakepie LIFE PLANT SEA STONE - 1 580000
7177082 2021-Jul-15 08:30:40 osiqw.wam LIFE OCEAN STONE WATER - 1 550000
7177081 2021-Jul-15 08:16:08 br2ay.wam EARTH PRESS RAIN STONE - 1 190000
7177079 2021-Jul-15 07:13:41 tvsba.wam EARTH PLANT PRESS WAVE - 1 610000
7177078 2021-Jul-15 07:12:33 tvsba.wam PLANT PLANT PRESS WAVE - 1 760000
7177072 2021-Jul-15 05:04:09 xv.bg.wam SEA SEA STONE WIND - 1 310000
7177071 2021-Jul-15 05:03:46 xv.bg.wam OCEAN OCEAN STONE WIND - 1 550000
7177069 2021-Jul-15 04:07:32 1puqy.wam EARTH RAIN SEED WALL - 1 1600000
7177068 2021-Jul-15 04:00:18 noqaw.wam BACTERI OCEAN STONE SUN - 1 1450000
7177067 2021-Jul-15 03:11:31 1puqy.wam PLANT RAIN SEED WIRE - 1 4210000
7177066 2021-Jul-15 03:10:45 drk2liteacct DEW RAIN RAIN STONE - 1 820000
7177065 2021-Jul-15 03:01:11 4hfr.wam EARTH EARTH GARBAGE RAIN - 1 100000
7177062 2021-Jul-15 02:56:51 1puqy.wam PLANT SEED WATER WIRE - 1 4180000
7177061 2021-Jul-15 02:53:11 5uzr.wam BACTERI CLAY OCEAN SEAWEED - 1 2770000
7177058 2021-Jul-15 02:12:19 o3bb.wam RAIN RAIN SEA SEA - 1 160000
7177057 2021-Jul-15 02:11:51 o3bb.wam DUST LAVA MUD RAIN - 1 160000
7177056 2021-Jul-15 02:03:19 jooam.wam BACTERI HURRCAN PRESS SEA - 1 1180000
7177055 2021-Jul-15 01:52:59 rtieg.wam LIFE PRESS STONE WAVE - 1 820000
7177052 2021-Jul-15 01:04:52 oloee.wam FIRE KETTLE SEED WATER - 1 3370000
7177046 2021-Jul-14 23:52:13 drk2liteacct ENERGY EXPLOSN FIRE SUN - 1 970000
7177044 2021-Jul-14 23:44:39 w.2bc.wam AIR MUD STONE STONE - 1 250000
7177043 2021-Jul-14 23:31:45 1puqy.wam PLANT PLANT RAIN WIRE - 1 3160000
7177042 2021-Jul-14 23:28:48 1puqy.wam PLANT PLANT WALL WIRE - 1 3460000
7177041 2021-Jul-14 23:15:06 ha3rc.wam BACTERI HEAT HEAT HEAT - 1 700000
7177040 2021-Jul-14 23:10:00 ha3rc.wam GRPHITE OCEAN PLANT STONE - 1 760000
7177039 2021-Jul-14 23:07:54 ha3rc.wam GRPHITE STONE STONE STONE - 1 640000
7177038 2021-Jul-14 23:00:12 y3bbc.wam GRASS PLANT PLANT SUN - 1 1180000
7177036 2021-Jul-14 22:20:27 tgrqy.wam PLANT RAIN SUN WALL - 1 1150000
7177034 2021-Jul-14 22:18:48 tgrqy.wam RAIN SEED SUN WALL - 1 2200000
7177032 2021-Jul-14 22:18:04 jahhwehonwax FIRE LIFE SALT SEA - 1 400000
7177029 2021-Jul-14 21:35:00 y3bbc.wam GRASS GRASS GRASS SUN - 1 1360000
7177027 2021-Jul-14 21:28:08 15pqy.wam AIR HEAT WATER WATER - 1 70000
7177024 2021-Jul-14 21:07:10 budr.wam DUST OCEAN PRESS WATER - 1 250000
7177023 2021-Jul-14 21:06:42 budr.wam DUST PRESS SEA WATER - 1 130000
7177022 2021-Jul-14 20:39:27 xqjam.wam EARTH EARTH EARTH NFT - 1 59260000
7177021 2021-Jul-14 20:39:00 xqjam.wam BLCKCHN EARTH EARTH NFT - 1 62560000
7177017 2021-Jul-14 20:20:04 2m.r2.wam DUST LIFE OCEAN PLANT - 1 640000
7177000 2021-Jul-14 17:01:57 jwlr4.wam BACTERI HEAT STONE WATER - 1 730000
7176998 2021-Jul-14 16:55:36 jwlr4.wam HEAT MUD STONE WATER - 1 190000
7176997 2021-Jul-14 16:55:01 jwlr4.wam BACTERI HEAT SEA STONE - 1 760000
7176995 2021-Jul-14 16:53:33 jwlr4.wam CLAY HEAT SEA STONE - 1 820000
7176993 2021-Jul-14 16:47:29 pl.ra.wam AIR DUST DUST WATER - 1 100000
7176991 2021-Jul-14 16:45:55 pl.ra.wam AIR DUST DUST FIRE - 1 100000
7176987 2021-Jul-14 16:35:53 ni1qy.wam CLAY ELECTRC HEAT SALT - 1 2170000
7176986 2021-Jul-14 16:35:29 ni1qy.wam CLAY ELECTRC GRPHITE SALT - 1 2470000
7176974 2021-Jul-14 15:43:29 4r3tk.wam DRUM SOUND STEEL STOOL - 1 11350000
7176972 2021-Jul-14 15:39:16 pl.ra.wam DUST DUST EARTH WATER - 1 100000
7176968 2021-Jul-14 15:24:54 pl.ra.wam EARTH MUD MUD WATER - 1 100000
7176964 2021-Jul-14 15:17:46 e1nu.wam MUSIC SOUND STEEL STOOL - 1 19720000
7176963 2021-Jul-14 15:13:35 yvfra.wam LAVA MUD PRESS SEA - 1 160000
7176960 2021-Jul-14 15:09:32 r2t.e.wam SOUND SOUND SOUND TNPLT - 1 3250000
7176959 2021-Jul-14 15:09:12 5lpqy.wam EARTH MOSS PLANT PRESS - 1 490000
7176953 2021-Jul-14 14:25:17 znrrw.wam KNIFE MARKER MARKER TREE - 1 23170000
7176952 2021-Jul-14 14:23:36 x.5ee.wam AIR EARTH MOSS PLANT - 1 460000
7176950 2021-Jul-14 14:16:53 x.5ee.wam EARTH EARTH MOSS PLANT - 1 460000
7176946 2021-Jul-14 14:08:10 dn3rg.wam EARTH FIRE MOSS PLANT - 3 460000
7176586 2021-Jul-14 13:46:01 bckau.wam DUST GARBAGE HEAT SEA - 2 160000
7173474 2021-Jul-14 12:31:22 v4.bc.wam AIR LIFE SEA STONE - 1 430000
7173261 2021-Jul-14 12:24:26 v4.bc.wam DUST HEAT SEA STONE - 1 220000
7173124 2021-Jul-14 12:21:33 v4.bc.wam DUST HEAT OCEAN STONE - 1 340000
7169925 2021-Jul-14 10:59:15 otydy.wam DRUM MUSIC STEEL STOOL - 1 23290000
7169572 2021-Jul-14 10:47:43 o3.qy.wam CLAY PRESS PRESS WATER - 1 730000
7169140 2021-Jul-14 10:36:11 ry4qy.wam PLANT SAND WATER WIND - 1 760000
7168760 2021-Jul-14 10:26:47 ry4qy.wam EARTH PLANT RAIN SAND - 1 670000
7168744 2021-Jul-14 10:26:13 ry4qy.wam EARTH PLANT SAND WIND - 1 760000
7167373 2021-Jul-14 09:54:23 jwqay.wam FIRE FIRE HEAT SEA - 1 100000
7167132 2021-Jul-14 09:49:22 1puqy.wam PLANT PLANT WATER WIRE - 1 3130000
7166829 2021-Jul-14 09:43:41 3zjbc.wam CLAY MUD PRESS SEA - 1 760000
7166054 2021-Jul-14 09:29:49 1puqy.wam RAIN SEED TREE WIRE - 1 4840000
7159372 2021-Jul-14 07:02:36 qejbm.wam PLANT PLANT RAIN WATER - 1 370000
7157671 2021-Jul-14 06:07:10 dp5ea.wam FIRE LAVA WATER WATER - 1 70000
7156180 2021-Jul-14 05:32:20 k1ob2.wam AIR EARTH EARTH OCEAN - 1 190000
7154935 2021-Jul-14 05:10:12 3mhr.wam HEAT HILL PRESS STONE - 1 1600000
7153189 2021-Jul-14 04:25:28 1puqy.wam EARTH SEED TREE WIRE - 1 4810000
7152543 2021-Jul-14 04:04:19 1puqy.wam EARTH RAIN SEED WIRE - 1 4060000
7152523 2021-Jul-14 04:03:50 br5r4.wam RAIN RAIN SAND STONE - 1 640000
7151850 2021-Jul-14 03:48:57 k4rec.wam CRUDE HEAT PRESS STONE - 1 1180000
7151517 2021-Jul-14 03:42:19 t4xam.wam AIR GRASS MUD WATER - 1 310000
7149933 2021-Jul-14 03:02:03 1puqy.wam PLANT SUN WALL WIRE - 1 3910000
7149700 2021-Jul-14 02:55:37 tnequ.wam EARTH EARTH EARTH ELECTRC - 1 1450000
7149611 2021-Jul-14 02:52:44 t5qb2.wam DRUM MUSIC MUSIC STEEL - 1 30880000
7148843 2021-Jul-14 02:37:23 yb2sq.wam MNTAIN PLANT PRESS STONE - 1 940000
7145014 2021-Jul-14 01:25:17 yhgb4.wam BACTERI EARTH SAND SEA - 1 1090000
7144721 2021-Jul-14 01:15:09 yhgb4.wam COAL PLANT SAND SEA - 1 940000
7144204 2021-Jul-14 01:00:31 drk2liteacct BUBBLES CLAY OCEAN PRESS - 1 1810000
7144180 2021-Jul-14 01:00:03 rekowaxbrave BEACH SEA STONE STONE - 1 1630000
7144172 2021-Jul-14 00:59:47 rekowaxbrave BEACH PRESS SEA STONE - 1 1570000
7143891 2021-Jul-14 00:55:17 1puqy.wam EARTH SEED WATER WIRE - 1 4030000
7143759 2021-Jul-14 00:52:45 rekowaxbrave BEACH PRESS STONE STONE - 1 1630000
7143416 2021-Jul-14 00:44:58 1puqy.wam SEED TREE WATER WIRE - 1 4810000
7143393 2021-Jul-14 00:44:06 1puqy.wam SEED SUN TREE WIRE - 1 5410000
7143374 2021-Jul-14 00:43:39 iybcc.wam EARTH PLANT SAND SEA - 1 670000
7142396 2021-Jul-14 00:24:54 rekowaxbrave BUBBLES HEAT MUD SEA - 1 1090000
7142313 2021-Jul-14 00:23:29 rekowaxbrave BUBBLES EARTH SALT SEA - 1 1090000
7141871 2021-Jul-14 00:17:39 .d.ee.wam DUST PRESS RAIN SEA - 1 160000
7141745 2021-Jul-14 00:16:14 r15ra.wam BUBBLES HEAT SALT SEA - 1 1120000
7141583 2021-Jul-14 00:14:01 rekowaxbrave BUBBLES MUD PRESS SEA - 1 1090000
7141236 2021-Jul-14 00:09:21 rekowaxbrave BUBBLES EARTH HEAT SALT - 1 1090000
7140901 2021-Jul-14 00:05:58 jppr2.wam HEAT SAND SAND SEA - 1 1000000
7136683 2021-Jul-13 22:59:27 zmhb.wam ASH OCEAN PRESS STONE - 1 910000
7136263 2021-Jul-13 22:54:27 zmhb.wam GRPHITE OCEAN PRESS STONE - 1 640000
7133200 2021-Jul-13 22:28:10 jahhwehonwax LIFE SALT SEA STEAM - 1 430000
7131408 2021-Jul-13 22:12:54 3zjbc.wam MUD MUD RAIN SEA - 1 160000
7130017 2021-Jul-13 21:51:35 eomqw.wam BULLET GUN LIFE PRESS - 1 6400000
7129820 2021-Jul-13 21:48:43 gino.gm DRUM HAMMER HEAT STEEL - 1 8320000
7129014 2021-Jul-13 21:38:09 uxtb4.wam BACTERI LIFE SALT STONE - 1 1030000
7124910 2021-Jul-13 20:44:02 5szs4.wam MUD OCEAN SAND WAVE - 1 1060000
7120973 2021-Jul-13 19:57:25 t5qb2.wam DRUM MUSIC PRESS STEEL - 1 18160000
7120562 2021-Jul-13 19:53:09 zmhb.wam OCEAN PRESS STONE SUN - 1 910000
7120107 2021-Jul-13 19:48:54 evqum.wam CRUDE HEAT OXYGEN SAND - 1 4270000
7115609 2021-Jul-13 18:44:03 pufb.wam CLAY PLANT SAND SEA - 1 1300000
7108683 2021-Jul-13 17:01:06 rinb2.wam DUST PRESS SALT STONE - 1 250000
7108678 2021-Jul-13 17:00:58 nsghost22222 BLCKMTR ENERGY EXPLOSN VACUUM - 1 2590000
7108406 2021-Jul-13 16:57:10 rinb2.wam AIR PRESS STONE STONE - 2 250000
7108218 2021-Jul-13 16:54:39 rinb2.wam AIR OCEAN PRESS STONE - 1 310000
7106264 2021-Jul-13 16:30:36 xpobs.wam EARTHQ LIFE MUD PRESS - 1 460000
7101885 2021-Jul-13 14:59:27 1akay.wam HEAT HEAT PRESS TREE - 1 910000
7100317 2021-Jul-13 14:30:50 1akay.wam HEAT PRESS TREE TREE - 1 1660000
7099262 2021-Jul-13 14:07:32 tgrqy.wam SEED SUN SUN SUN - 1 3040000
7098890 2021-Jul-13 13:53:50 tgrqy.wam MUD SEED SUN SUN - 1 2470000
7096042 2021-Jul-13 12:56:41 ba4b2.wam MUD PRESS SEA WAVE - 1 520000
7095176 2021-Jul-13 12:36:57 zxlry.wam FROST LAVA RAIN WATER - 1 490000
7094303 2021-Jul-13 12:18:20 4kjay.wam EARTH MNTAIN OCEAN SKY - 1 1390000
7092402 2021-Jul-13 11:35:59 1puqy.wam DRUM HAMMER METAL MUSIC - 1 20740000
7091109 2021-Jul-13 11:16:16 xqjam.wam BATTERY METAL OIL STEAM - 1 9010000
7089891 2021-Jul-13 11:02:54 wpsca.wam EARTH PLANT SAND WATER - 1 640000
7084246 2021-Jul-13 10:01:44 otydy.wam HAMMER HAMMER SOUND STEEL - 1 7630000
7080459 2021-Jul-13 09:19:50 4ifba.wam EARTH OCEAN OXYGEN SKY - 1 3520000
7078782 2021-Jul-13 08:59:45 4k5qq.wam BOTTLE GRAPE PRESS TREE - 1 4660000
7078318 2021-Jul-13 08:55:04 t5qb2.wam DRUM MUSIC TNPLT TNPLT - 1 18730000
7070486 2021-Jul-13 07:28:29 3zjbc.wam EARTH MUD PRESS RAIN - 1 130000
7070455 2021-Jul-13 07:27:57 3zjbc.wam EARTH EARTH MUD RAIN - 1 100000
7065291 2021-Jul-13 06:15:46 xpobs.wam EARTHQ LIFE MUD MUD - 1 460000
7064519 2021-Jul-13 06:05:42 t5qb2.wam ISLE ISLE OCEAN OCEAN - 1 1660000
7063976 2021-Jul-13 05:58:33 t5qb2.wam BEACH ISLE OCEAN WAVE - 1 2620000
7059067 2021-Jul-13 05:02:32 1puqy.wam DUST OCEAN PRESS WAVE - 1 640000
7058126 2021-Jul-13 04:50:44 22mr2.wam HEAT OCEAN STONE WATER - 1 310000
7057663 2021-Jul-13 04:44:42 1puqy.wam BEACH PLANT SEAWEED STONE - 1 3040000
7052554 2021-Jul-13 03:33:44 rngbi.wam OCEAN PLANT PRESS TREE - 1 1150000
7052480 2021-Jul-13 03:32:32 4ifba.wam AIR EARTH LIFE OCEAN - 1 460000
7052348 2021-Jul-13 03:30:49 22mr2.wam EXPLOSN PRESS STONE STONE - 3 550000
7048844 2021-Jul-13 02:41:59 waxkingluffy BATTERY GLASS METAL OIL - 1 9460000
7048688 2021-Jul-13 02:39:59 itslegosnape DUST DUST ENERGY SUN - 1 730000
7048053 2021-Jul-13 02:31:24 4y4qy.wam BATTERY GLASS METAL WIRE - 1 7480000
7047065 2021-Jul-13 02:17:55 waxkingluffy BATTERY GLASS OIL TNPLT - 1 9580000
7045352 2021-Jul-13 01:50:39 4y4qy.wam BATTERY HEAT METAL OIL - 1 9010000
7045219 2021-Jul-13 01:47:23 waxkingluffy BATTERY HEAT OIL TNPLT - 1 9130000
7044448 2021-Jul-13 01:34:02 1puqy.wam DUST LIFE OCEAN STONE - 1 580000
7042997 2021-Jul-13 01:09:58 fpxrc.wam GEYSER HEAT PRESS PRESS - 1 310000
7042180 2021-Jul-13 00:57:59 r15ra.wam CLAY ELECTRC HEAT HEAT - 1 2140000
7040658 2021-Jul-13 00:31:13 wrira.wam BUBBLES HEAT SEA STONE - 1 1150000
7040416 2021-Jul-13 00:26:55 wrira.wam BUBBLES PRESS SEA STONE - 1 1150000
7040243 2021-Jul-13 00:24:28 wrira.wam BUBBLES HEAT PRESS SEA - 1 1090000
7038563 2021-Jul-12 23:56:30 uxtb4.wam BACTERI OCEAN SALT STONE - 1 910000
7038526 2021-Jul-12 23:56:03 g3frg.wam EXPLOSN EXPLOSN EXPLOSN HILL - 1 2350000
7038122 2021-Jul-12 23:50:30 1puqy.wam CLAY DUST OCEAN PRESS - 1 880000
7037166 2021-Jul-12 23:37:20 1puqy.wam CLAY DUST PRESS SEA - 1 760000
7035395 2021-Jul-12 23:16:25 uxtb4.wam BACTERI SALT SAND STONE - 1 1210000
7033735 2021-Jul-12 22:55:33 uxtb4.wam BACTERI SALT STONE WAVE - 1 1150000
7033315 2021-Jul-12 22:51:00 3diau.wam BATTERY GLASS PLASTIC WIRE - 1 8800000
7031461 2021-Jul-12 22:36:39 ngrbc.wam PRESS PRESS RAIN SEA - 1 160000
7029809 2021-Jul-12 22:23:10 ngrbc.wam EARTH OCEAN PRESS RAIN - 1 250000
7025990 2021-Jul-12 21:43:52 t5qb2.wam DRUM PRESS TNPLT TNPLT - 1 6010000
7018188 2021-Jul-12 20:19:38 2xcs4.wam ENERGY ENERGY FIRE WATER - 1 100000
7015563 2021-Jul-12 19:42:11 5uzr.wam ASH HEAT TILING WATER - 1 2020000
7013187 2021-Jul-12 19:19:28 3yk5c.wam HEAT MUD MUD STONE - 1 220000
7011918 2021-Jul-12 19:06:24 pykru.wam PRESS SAND STONE WIND - 1 730000
7011890 2021-Jul-12 19:05:46 5.sra.wam EARTHQ SMOKE SMOKE STEAM - 1 820000
7011882 2021-Jul-12 19:04:49 t5qb2.wam DRUM PRESS SOUND STEEL - 1 6220000
7011305 2021-Jul-12 18:58:51 xpobs.wam ENERGY MUD SAND WATER - 1 550000
7010808 2021-Jul-12 18:54:35 3yk5c.wam HEAT MUD STONE STONE - 1 280000
7008816 2021-Jul-12 18:43:47 wjft2.wam COAL HEAT HEAT STONE - 1 460000
7007696 2021-Jul-12 18:37:36 5uzr.wam MNTAIN RIVER SEED SUN - 1 3490000
7004735 2021-Jul-12 18:14:43 otydy.wam HAMMER HAMMER MUSIC STEEL - 1 19570000
7002223 2021-Jul-12 17:55:39 lwwao.wam BACTERI HEAT LIFE WATER - 1 910000
7000707 2021-Jul-12 17:45:35 jjera.wam ALCOHOL PLANT SEED SUN - 1 2170000
6996399 2021-Jul-12 17:24:33 tjiqu.wam PLANT RAIN STRING SUN - 1 6070000
6995989 2021-Jul-12 17:22:14 yncqw.wam AIR GAS LAVA STONE - 1 1060000
6994620 2021-Jul-12 17:15:55 otydy.wam DRUM DRUM SOUND STEEL - 1 10570000
6993559 2021-Jul-12 17:10:28 otydy.wam DRUM DRUM MUSIC STEEL - 1 22510000
6992840 2021-Jul-12 17:06:01 tjiqu.wam RAIN SEED STRING SUN - 1 7120000
6972876 2021-Jul-12 15:15:05 kxpqy.wam PLASTIC PRESS PRESS SCISSOR - 1 6970000
6972621 2021-Jul-12 15:13:51 pl.ra.wam DUST EARTH EARTH EARTH - 2 70000
6965737 2021-Jul-12 14:47:33 zcoaw.wam EARTH GEYSER PRESS VULCANO - 1 730000
6962860 2021-Jul-12 14:35:03 q1pb4.wam DUST PRESS SAND SEA - 1 580000
6962020 2021-Jul-12 14:30:21 mzgc4.wam BATTERY CABLE ELECTRC TNPLT - 1 8860000
6961962 2021-Jul-12 14:30:04 mzgc4.wam BATTERY ELECTRC TNPLT WIRE - 1 8530000
6957944 2021-Jul-12 14:14:10 q1pb4.wam HEAT SALT SAND STONE - 1 670000
6957914 2021-Jul-12 14:13:46 ox.b4.wam CLAY HEAT MOSS SEA - 1 1000000
6947262 2021-Jul-12 13:20:16 oslek.wam HEAT PRESS STEAM WHEAT - 1 940000
6946774 2021-Jul-12 13:15:38 ku5v2.wam AIR AIR AIR ASH - 1 640000
6944190 2021-Jul-12 12:58:44 oslek.wam HEAT HEAT HEAT WHEAT - 1 940000
6938060 2021-Jul-12 12:30:28 vk4rc.wam DRUM SOUND SOUND STEEL - 1 7000000
6935865 2021-Jul-12 12:19:20 djxuc.wam DUST FIRE RAIN WATER - 1 100000
6921340 2021-Jul-12 11:04:20 lordpopbands PAINT PLASTIC PLASTIC TREE - 1 7570000
6917705 2021-Jul-12 10:51:47 wz.b.wam AIR AIR AIR STONE - 1 130000
6909266 2021-Jul-12 10:16:21 katharsiseos CRUDE HEAT HEAT METAL - 1 1750000
6907205 2021-Jul-12 10:05:39 yrbrs.wam ENERGY HEAT LAVA MUD - 1 160000
6900420 2021-Jul-12 09:42:30 rpiay.wam AIR DUST PRESS STEAM - 1 130000
6875038 2021-Jul-12 08:52:39 dfbbi.wam CLOTH DRUM DRUM PAINT - 2 15880000
6845001 2021-Jul-12 08:23:33 eqxo.wam KNIFE MARKER TREE TREE - 1 14680000
6840480 2021-Jul-12 08:16:07 xqjam.wam ALCOHOL CLOTH PAINT PLASTIC MARKER 602 9280000
6835987 2021-Jul-12 08:06:07 wepri.wam LIFE MUD SEA STEAM - 1 400000
6835686 2021-Jul-12 08:05:19 w3hrg.wam EARTH PLANT SEA TREE - 1 1000000
6828764 2021-Jul-12 07:49:56 wepri.wam PRESS SEA STEAM STONE - 1 220000
6823153 2021-Jul-12 07:39:30 mzhe4.wam AIR SOUND STEEL STEEL - 1 2770000
6820926 2021-Jul-12 07:35:42 vaaaaaaaaaan DRUM SOUND STEEL STEEL - 2 7150000
6819632 2021-Jul-12 07:33:20 vaaaaaaaaaan DRUM DRUM STEEL STEEL - 1 10720000
6812447 2021-Jul-12 07:20:15 zfmqw.wam FIRE METAL STONE WATER - 1 790000
6809928 2021-Jul-12 07:16:44 otydy.wam DRUM MUSIC STEEL STEEL - 1 19090000
6806113 2021-Jul-12 07:10:58 otydy.wam DRUM MUSIC SOUND STEEL - 1 18940000
6802184 2021-Jul-12 07:04:04 otydy.wam DRUM HAMMER MUSIC STEEL - 1 21040000
6796228 2021-Jul-12 06:50:31 otydy.wam CLOTH PAINT SCISSOR SCISSOR TSHIRT 387 16900000
6796033 2021-Jul-12 06:32:17 otydy.wam CLOTH CLOTH SCISSOR SCISSOR - 1 18400000
6795955 2021-Jul-12 06:29:02 otydy.wam CLOTH SCISSOR STRING STRING - 1 19720000
6795788 2021-Jul-12 06:24:32 n5irk.wam ENERGY GARBAGE MUD SEA - 1 160000
6795612 2021-Jul-12 06:17:25 phbb4.wam EARTH FLOOD PRESS SALT - 1 280000
6795522 2021-Jul-12 06:14:11 4umrg.wam PRESS PRESS RIVER STONE - 1 1210000
6795511 2021-Jul-12 06:13:17 t5qb2.wam PAINT PAINT PENCIL PLASTIC - 1 12880000
6795493 2021-Jul-12 06:12:31 phbb4.wam EARTH PRESS PRESS SALT - 1 160000
6795194 2021-Jul-12 06:04:00 k1ob2.wam EARTH EARTH OCEAN WATER - 1 190000
6795183 2021-Jul-12 06:03:43 4umrg.wam EARTH PRESS RIVER STONE - 1 1180000
6795167 2021-Jul-12 06:03:14 4umrg.wam EARTH HEAT PRESS RIVER - 1 1120000
6793730 2021-Jul-12 05:23:09 t5qb2.wam CLOTH PAINT PLASTIC PLASTIC - 1 11080000
6793395 2021-Jul-12 05:17:37 xqgbi.wam PRISM SUN SUN SUN - 1 6730000
6791702 2021-Jul-12 04:33:38 houb.wam OCEAN SEA SEA SEA - 1 280000
6791527 2021-Jul-12 04:31:00 drk2liteacct ATOM ATOM ENERGY RADITON - 1 8440000
6790303 2021-Jul-12 04:07:26 harambe.gm FIRE RAIN TREE WIND - 1 970000
6789440 2021-Jul-12 03:45:36 br5r4.wam LAVA LAVA SAND STONE - 1 640000
6789077 2021-Jul-12 03:34:08 d3cqu.wam EARTH RAIN SEED TREE - 1 2050000
6788613 2021-Jul-12 03:21:39 readyplayer2 PAINT PLASTIC PLASTIC PLASTIC - 1 8770000
6787882 2021-Jul-12 03:01:28 ngrbc.wam EARTH PRESS RAIN SEA - 1 130000
6787632 2021-Jul-12 02:56:27 ngrbc.wam LIFE PRESS RAIN SEA - 1 400000
6787114 2021-Jul-12 02:40:25 budr.wam PAINT PENCIL PLASTIC PLASTIC - 1 12070000
6787036 2021-Jul-12 02:38:12 readyplayer2 ALCOHOL PAINT PENCIL PLASTIC - 1 10270000
6785589 2021-Jul-12 02:09:19 1akay.wam ATMSPHE EARTH PRESS WATER - 1 190000
6784372 2021-Jul-12 01:13:29 katharsiseos CRUDE GAS HEAT METAL - 1 2620000
6784343 2021-Jul-12 01:09:00 harambe.gm OCEAN SALT STONE WIND - 1 460000
6783314 2021-Jul-12 00:48:51 t5qb2.wam PAINTNG PLASTIC PLASTIC PLASTIC - 1 17230000
6783012 2021-Jul-12 00:42:42 1puqy.wam BEACH SEAWEED STONE TREE - 1 3670000
6782751 2021-Jul-12 00:38:22 ddyra.wam ASH RAIN SEED SUN - 1 2470000
6782327 2021-Jul-12 00:31:46 pdss2.wam HEAT MUD SAND SAND - 1 1000000
6782042 2021-Jul-12 00:28:42 .4xaw.wam BACTERI STONE STONE SWAMP - 1 1030000
6781604 2021-Jul-12 00:23:22 pdss2.wam MUD SAND STONE SUN - 1 1210000
6780892 2021-Jul-12 00:15:00 ddyra.wam ASH PLANT RAIN SUN - 1 1420000
6780287 2021-Jul-12 00:08:14 y55ra.wam EARTH SEA SEED SUN - 1 1870000
6779878 2021-Jul-12 00:03:44 t5qb2.wam DRUM STEEL STEEL STEEL - 1 7300000
6778990 2021-Jul-11 23:55:03 ddyra.wam ASH PLANT WATER WIND - 1 910000
6778149 2021-Jul-11 23:47:10 baddingtons1 AIR LIFE SALT SEA - 1 400000
6777698 2021-Jul-11 23:43:16 milkshakepie EXPLOSN GASOLIN METAL OXYGEN - 1 4870000
6766288 2021-Jul-11 22:17:07 addbi.wam ELECTRC HEAT OBSIDIN PRESS - 1 1630000
6766040 2021-Jul-11 22:15:34 addbi.wam ELECTRC GRPHITE HEAT PRESS - 1 1840000
6764419 2021-Jul-11 22:00:30 hj.r4.wam AIR EARTH FIRE HEAT - 2 70000
6763813 2021-Jul-11 21:55:45 hj.r4.wam PRESS RAIN SEA SEA - 1 160000
6763605 2021-Jul-11 21:54:27 hj.r4.wam AIR AIR AIR EARTHQ - 1 130000
6760184 2021-Jul-11 21:33:32 goyrc.wam AIR AIR LAVA STONE - 1 160000
6759977 2021-Jul-11 21:32:31 goyrc.wam AIR LAVA LAVA STONE - 1 190000
6759616 2021-Jul-11 21:30:37 hj.r4.wam AIR FIRE LAVA WATER - 2 70000
6756421 2021-Jul-11 21:08:41 bsubi.wam ENERGY EXPLOSN GASOLIN STEEL - 1 2440000
6756325 2021-Jul-11 21:07:57 tjn4e.wam EARTH FIRE GARBAGE RAIN - 3 100000
6755080 2021-Jul-11 20:58:49 rm1qy.wam EARTH FIRE ICE SMOKE - 1 790000
6746734 2021-Jul-11 20:22:19 xqgbi.wam METAL METAL METAL STEEL - 1 2980000
6746289 2021-Jul-11 20:18:59 t5qb2.wam DRUM PLANT PLANT PLANT - 1 4870000
6742824 2021-Jul-11 19:57:42 xyfbu.wam EXPLOSN PRESS STONE SUN - 1 1060000
6740732 2021-Jul-11 19:48:50 frcqu.wam BEACH LIFE LIFE LIFE - 1 2230000
6730226 2021-Jul-11 19:06:48 goyrc.wam DUST EARTH EARTH STONE - 1 160000
6728619 2021-Jul-11 19:00:48 pu2aw.wam DRUM HAMMER STEEL STEEL - 2 9250000
6727039 2021-Jul-11 18:52:24 zyfbc.wam FIRE GARBAGE OCEAN WATER - 1 220000
6716295 2021-Jul-11 18:10:41 totro.wam EARTH FRIDGE PRESS WATER - 1 2980000
6705550 2021-Jul-11 17:35:59 lk4ee.wam CRUDE CRUDE FIRE FIRE - 1 2020000
6699868 2021-Jul-11 17:20:41 xqgbi.wam CRUDE EXPLOSN GASOLIN STEEL - 1 3400000
6665731 2021-Jul-11 15:54:45 vaaaaaaaaaan DRUM HAMMER SOUND STEEL - 3 9100000
6662354 2021-Jul-11 15:49:03 1akay.wam HEAT HEAT HEAT TREE - 1 910000
6661573 2021-Jul-11 15:47:42 na5b4.wam EARTH FIRE GARBAGE PRESS - 3 100000
6656890 2021-Jul-11 15:40:01 od4r2.wam PRESS SEA STONE TREE - 1 970000
6634349 2021-Jul-11 14:58:40 rplanetdevil CLOTH PAINT PAINT SCISSOR - 1 14800000
6628740 2021-Jul-11 14:50:37 gyor4.wam PICKAX PICKAX PICKAX PICKAX - 1 9160000
6625678 2021-Jul-11 14:47:01 otydy.wam BOOK CALCLTR LIFE TIME - 1 17620000
6615173 2021-Jul-11 14:33:49 blacklist.gm EARTH PRESS TIME TREE - 1 5560000
6612782 2021-Jul-11 14:31:13 ll1re.wam LAVA OBSIDIN PRESS WATER - 1 220000
6582180 2021-Jul-11 14:03:32 ba4b2.wam MUD OCEAN PRESS WAVE - 1 640000
6558552 2021-Jul-11 13:47:19 nb.fa.wam LIFE SALT SEA SEAWEED - 1 1780000
6554714 2021-Jul-11 13:44:55 idmt.wam HEAT PRESS SAND STEAM - 1 580000
6537372 2021-Jul-11 13:35:14 xf5ra.wam CLOTH CLOTH CLOTH DRUM - 8 17290000
6528539 2021-Jul-11 13:30:00 wjft2.wam CLOTH CLOTH PLASTIC SCISSOR - 1 15490000
6514919 2021-Jul-11 13:20:30 zfmqw.wam COAL EARTH FIRE METAL - 1 970000
6510514 2021-Jul-11 13:13:27 e1nu.wam CLOTH CLOTH CLOTH SCISSOR BACKPAK 600 17800000
6508670 2021-Jul-11 12:49:54 .pbbq.wam FLOOD FLOOD FLOOD GRASS - 1 730000
6507054 2021-Jul-11 12:32:51 jahhwehonwax LIFE RAIN SALT SEA - 1 430000
6503024 2021-Jul-11 11:29:51 5.vc2.wam EARTH PLANT RIVER SEED - 1 2410000
6502146 2021-Jul-11 11:19:16 4umrg.wam BOILER EARTH HEAT SAND - 1 1270000
6502084 2021-Jul-11 11:18:40 4umrg.wam BOILER HEAT SAND SAND - 1 1720000
6500950 2021-Jul-11 11:03:33 1puqy.wam CELL HEAT PRESS TREE - 1 6640000
6498322 2021-Jul-11 10:33:59 xyfbu.wam ATMSPHE ISLE LIFE WATER - 1 1090000
6497280 2021-Jul-11 10:22:58 tvsba.wam GASOLIN HEAT PRESS STEEL - 1 2170000
6494928 2021-Jul-11 10:04:26 budr.wam CLOTH CLOTH SCISSOR STRING - 1 18760000
6493769 2021-Jul-11 09:56:30 1puqy.wam BEACH SEAWEED TREE WIND - 1 3700000
6491938 2021-Jul-11 09:45:28 2tmay.wam GASOLIN HEAT METAL PRESS - 1 1870000
6491064 2021-Jul-11 09:41:38 tceua.wam ASH COAL GRPHITE HEAT - 1 1270000
6483686 2021-Jul-11 09:25:00 budr.wam CLOTH METAL SCISSOR STRING - 1 15130000
6481264 2021-Jul-11 09:22:36 waeqw.wam CLAY METAL PLANT STONE - 1 1570000
6477930 2021-Jul-11 09:19:51 p1rbe.wam EXPLOSN GASOLIN PRESS STEEL - 1 2440000
6470387 2021-Jul-11 09:15:06 lc2um.wam COAL PLASTIC PLASTIC PRESS - 1 4300000
6425384 2021-Jul-11 08:53:25 xqjam.wam METAL PLASTIC PLASTIC PRESS SYRINGE 606 4690000
6424638 2021-Jul-11 08:39:38 tptrc.wam CRUDE GASOLIN PRESS STEEL - 1 3130000
6424326 2021-Jul-11 08:34:00 budr.wam PLASTIC PRESS STEEL WATER - 1 3010000
6424188 2021-Jul-11 08:31:45 xqjam.wam PLASTIC PLASTIC PRESS TNPLT - 1 4810000
6424157 2021-Jul-11 08:31:26 hrdqw.wam ATOM ENERGY EXPLOSN VACUUM - 1 4570000
6423904 2021-Jul-11 08:26:42 5y.cg.wam EXPLOSN GASOLIN PRESS SMOKE - 1 1810000
6423626 2021-Jul-11 08:22:40 wpsca.wam BACTERI BOTTLE GRAPE HEAT - 1 4450000
6422949 2021-Jul-11 08:14:48 fikd.wam ENERGY EXPLOSN GASOLIN METAL - 1 2140000
6422909 2021-Jul-11 08:14:13 nbgro.wam HEAT LIFE SEA WAVE - 1 760000
6422414 2021-Jul-11 08:07:55 tceua.wam DUST STONE STONE WATER - 1 250000
6422143 2021-Jul-11 08:04:18 u1bro.wam PRESS SAND WATER WATER - 1 520000
6422110 2021-Jul-11 08:03:54 fikd.wam EXPLOSN GASOLIN METAL STEAM - 1 2140000
6422016 2021-Jul-11 08:02:58 xqjam.wam PLASTIC PRESS PRESS TNPLT - 1 2860000
6421873 2021-Jul-11 08:01:07 fikd.wam EXPLOSN GASOLIN HEAT METAL - 1 2140000
6421705 2021-Jul-11 07:58:58 fikd.wam EXPLOSN FIRE GASOLIN METAL - 1 2110000
6421465 2021-Jul-11 07:56:15 xpqb.wam GASOLIN METAL METAL METAL - 1 3130000
6420776 2021-Jul-11 07:47:43 varro.wam LIFE OCEAN PLANT SALT - 1 670000
6420047 2021-Jul-11 07:36:52 so5bg.wam EXPLOSN GASOLIN METAL METAL - 1 2770000
6419914 2021-Jul-11 07:35:07 e2cr.wam METAL PLASTIC PRESS PRESS - 1 2740000
6419903 2021-Jul-11 07:34:58 yqmb2.wam CRUDE ELECTRC GASOLIN STEEL - 1 4510000
6419279 2021-Jul-11 07:27:57 e2cr.wam METAL PLASTIC PRESS WATER - 1 2710000
6419237 2021-Jul-11 07:27:29 luqb2.wam ELECTRC HEAT PRESS STEAM - 1 1540000
6418711 2021-Jul-11 07:21:57 xpar.wam RAIN SAND SEED SUN - 1 2320000
6418414 2021-Jul-11 07:19:38 jjera.wam HEAT PRESS RIVER STONE - 1 1210000
6417422 2021-Jul-11 07:12:26 5uzr.wam OXYGEN PRESS VULCANO WATER - 1 3310000
6416249 2021-Jul-11 07:04:05 xpar.wam PLANT SAND SUN WATER - 1 1240000
6415748 2021-Jul-11 07:00:07 3dtqy.wam ATMSPHE ICE METAL STONE - 1 1330000
6415176 2021-Jul-11 06:56:05 1q.ay.wam GASOLIN METAL METAL STEAM - 1 2500000
6415136 2021-Jul-11 06:55:50 gnsba.wam EXPLOSN GASOLIN STEEL STEEL - 1 3370000
6413332 2021-Jul-11 06:46:43 v52rc.wam BOILER COAL FIRE PRESS - 1 1090000
6413058 2021-Jul-11 06:45:36 2zraw.wam AIR FIRE GASOLIN METAL - 1 1810000
6412902 2021-Jul-11 06:44:50 2zraw.wam FIRE GASOLIN METAL METAL - 1 2470000
6410689 2021-Jul-11 06:35:14 kramerwax123 FIRE GASOLIN METAL PRESS - 2 1840000
6409414 2021-Jul-11 06:30:25 mi3r2.wam ENERGY GASOLIN HEAT METAL - 1 1870000
6409026 2021-Jul-11 06:29:17 pykru.wam CRUDE EXPLOSN GASOLIN METAL - 1 3100000
6407711 2021-Jul-11 06:25:27 4umrg.wam DRUM METAL METAL SOUND - 1 6550000
6407527 2021-Jul-11 06:24:48 ngdqw.wam EXPLOSN GASOLIN METAL PRESS - 1 2140000
6406105 2021-Jul-11 06:20:21 noqaw.wam AIR EXPLOSN GASOLIN METAL - 1 2110000
6396860 2021-Jul-11 06:14:42 mi3r2.wam CRUDE GASOLIN PRESS STEAM - 1 2200000
6393658 2021-Jul-11 06:13:21 eg1r2.wam CRUDE HEAT STEAM STEAM - 1 1120000
6391799 2021-Jul-11 06:12:08 xf5ra.wam CRUDE FIRE PRESS STEAM - 1 1090000
6391247 2021-Jul-11 06:10:19 dz2aw.wam CRUDE HEAT PRESS STEAM GASOLIN 844 1120000
6389766 2021-Jul-11 05:27:49 wbibu.wam GRASS LIFE PLANT SUN - 1 1300000
6389180 2021-Jul-11 04:57:45 2zraw.wam CRUDE HEAT HEAT STEAM - 1 1120000
6389118 2021-Jul-11 04:54:12 2zraw.wam AIR BOILER CRUDE HEAT - 1 1810000
6389116 2021-Jul-11 04:53:34 2zraw.wam AIR CRUDE HEAT STEAM - 1 1090000
6389110 2021-Jul-11 04:52:47 5uzr.wam ATMSPHE BOILER CRUDE HEAT - 1 1930000
6389088 2021-Jul-11 04:51:29 2zraw.wam AIR CRUDE HEAT HEAT - 1 1090000
6389054 2021-Jul-11 04:49:14 wjft2.wam CLOTH PAINT SCISSOR STRING - 1 17260000
6388904 2021-Jul-11 04:44:14 noqaw.wam BACTERI EARTH SAND STONE - 1 1150000
6388652 2021-Jul-11 04:37:49 fmsre.wam CLAY MUD SAND SEA - 1 1180000
6388457 2021-Jul-11 04:33:29 k4rec.wam COAL CRUDE HEAT HEAT - 1 1360000
6388139 2021-Jul-11 04:25:48 wjft2.wam CLOTH CLOTH PAINT SCISSOR - 1 16300000
6387975 2021-Jul-11 04:18:50 l2ueo.wam PRESS RAIN STONE STONE - 1 280000
6387622 2021-Jul-11 04:09:28 xpqb.wam BOILER CRUDE HEAT METAL - 1 2470000
6386271 2021-Jul-11 02:56:24 5uzr.wam BATTERY GLASS TNPLT WIRE - 1 7600000
6385978 2021-Jul-11 02:47:08 1puqy.wam COAL EARTH FIRE SAND - 1 760000
6385749 2021-Jul-11 02:37:48 rqhr4.wam LIFE PLANT SAND STONE - 1 1000000
6385744 2021-Jul-11 02:37:25 1puqy.wam METAL PLASTIC PRESS VACUUM - 1 3940000
6385461 2021-Jul-11 02:26:39 frcqu.wam DUST PRESS PRESS STONE - 1 220000
6385385 2021-Jul-11 02:22:54 rqhr4.wam LIFE MUD SALT SAND - 1 850000
6384842 2021-Jul-11 02:09:56 rqhr4.wam LIFE PRESS SAND SWAMP - 1 1030000
6384718 2021-Jul-11 02:06:57 frcqu.wam GRASS RAIN RAINBOW SEED - 1 4270000
6384359 2021-Jul-11 01:58:56 1puqy.wam BOILER BOILER CRUDE HEAT - 1 2560000
6383970 2021-Jul-11 01:47:58 1puqy.wam BOILER CRUDE GAS PRESS - 1 2710000
6383486 2021-Jul-11 01:39:55 gnsba.wam CRUDE CRUDE GAS GAS - 1 3820000
6382352 2021-Jul-11 01:22:36 gnsba.wam BOILER BOILER CRUDE CRUDE - 1 3520000
6382036 2021-Jul-11 01:15:09 a3gug.wam AIR EARTH PRESS RAIN - 1 100000
6381728 2021-Jul-11 01:10:25 yteb4.wam BUBBLES GAS LAVA STONE - 1 2020000
6381481 2021-Jul-11 01:04:23 1puqy.wam BARREL PLASTIC STEEL VACUUM - 1 7360000
6381434 2021-Jul-11 01:03:32 b1sqw.wam BOILER CRUDE CRUDE CRUDE - 1 3760000
6381276 2021-Jul-11 01:00:12 d1wau.wam AIR AIR EARTH HEAT - 1 70000
6380145 2021-Jul-11 00:37:40 1puqy.wam BARREL METAL PLASTIC VACUUM - 1 7060000
6379425 2021-Jul-11 00:28:13 ttrqw.wam PLANT SEED SUN TREE - 1 2770000
6378882 2021-Jul-11 00:20:35 titaniumgame BACTERI EARTH OCEAN STONE - 1 850000
6378409 2021-Jul-11 00:15:07 rt2bg.wam EXPLOSN RAIN STONE STONE - 1 550000
6377908 2021-Jul-11 00:09:13 a3gug.wam ATMSPHE EARTH ENERGY FIRE - 1 190000
6376718 2021-Jul-10 23:57:15 2wrdo.wam GEYSER STONE STONE STONE - 1 490000
6372892 2021-Jul-10 23:24:41 khqd2.wam ALCOHOL PAINT PLASTIC PLASTIC - 1 6970000
6372797 2021-Jul-10 23:24:08 t5qb2.wam CLOTH CLOTH PLANT SCISSOR - 1 13660000
6372262 2021-Jul-10 23:20:58 khqd2.wam PAINT PAINT PLASTIC PLASTIC - 1 9580000
6371498 2021-Jul-10 23:16:11 luanmottawax CLAY ELECTRC ELECTRC HEAT - 1 3520000
6371356 2021-Jul-10 23:15:17 jwlr4.wam BOILER CRUDE PRESS PRESS - 1 1840000
6371254 2021-Jul-10 23:14:30 jwlr4.wam BOILER EARTH EARTH EARTH - 1 790000
6369637 2021-Jul-10 23:05:29 cild.wam BOILER CRUDE CRUDE HEAT - 1 2800000
6364924 2021-Jul-10 22:45:09 lpoqy.wam LAVA OCEAN SAND SEA - 1 700000
6364336 2021-Jul-10 22:42:22 xqjam.wam CRUDE ELECTRC HEAT HEAT - 1 2500000
6364042 2021-Jul-10 22:41:03 q.psg.wam SOUND STEEL STEEL STEEL - 1 3730000
6363926 2021-Jul-10 22:40:28 gdqre.wam DUST DUST RAIN RAIN - 1 160000
6363386 2021-Jul-10 22:38:11 gdqre.wam HEAT PRESS STONE WIND - 1 310000
6363304 2021-Jul-10 22:37:52 brou.wam SCISSOR SOUND TREE TREE - 1 7300000
6362039 2021-Jul-10 22:34:24 ohlqy.wam EARTH EARTH PLANT TREE - 1 970000
6360651 2021-Jul-10 22:31:17 gdqre.wam HEAT PRESS RAIN STONE - 1 220000
6348619 2021-Jul-10 22:13:03 uqkaw.wam GAS HEAT HEAT TREE - 1 1780000
6346063 2021-Jul-10 22:11:24 lc2um.wam CRUDE EARTH EARTH GAS - 1 1930000
6340473 2021-Jul-10 22:08:20 bnoqw.waa DUST DUST WAVE WAVE - 1 880000
6340210 2021-Jul-10 22:08:10 rpiay.wam EARTH PRESS TREE TREE - 1 1630000
6337949 2021-Jul-10 22:06:55 q1pb4.wam SAND SAND SEA STONE - 1 1060000
6331634 2021-Jul-10 22:04:01 lwxro.wam ENERGY GARBAGE HEAT RAIN - 1 160000
6321238 2021-Jul-10 21:59:45 ohlqy.wam PLANT PRESS PRESS TREE - 1 1030000
6312384 2021-Jul-10 21:54:45 ijar.wam PLASTIC PRESS SOUND TREE - 1 3640000
6312352 2021-Jul-10 21:54:37 otydy.wam PLASTIC SOUND TREE TREE DRUM 630 4390000
6310779 2021-Jul-10 21:47:53 vazbg.wam CRUDE HEAT PRESS TNPLT - 1 1870000
6306955 2021-Jul-10 21:34:04 ijar.wam PLASTIC SOUND SOUND TREE - 1 4420000
6306824 2021-Jul-10 21:33:44 v5nb2.wam BACTERI PRESS STONE WAVE - 1 1120000
6306182 2021-Jul-10 21:31:57 xputi.wam CRUDE FROST HEAT VACUUM - 1 2680000
6305921 2021-Jul-10 21:31:07 xqjam.wam METAL PAPER SOUND TREE - 1 2650000
6303163 2021-Jul-10 21:23:16 ttpee.wam CLOUD PRESS SUN WIND - 1 1090000
6298851 2021-Jul-10 21:15:33 farky.wam CRUDE FIRE FIRE GAS - 1 1930000
6296832 2021-Jul-10 21:13:55 xqjam.wam METAL PLASTIC SOUND TREE - 1 4270000
6288348 2021-Jul-10 21:09:28 e2cr.wam BLADE BLADE CELL METAL - 1 8680000
6286039 2021-Jul-10 21:08:32 vaaaaaaaaaan CLOTH CLOTH METAL SCISSOR - 1 14170000
6276658 2021-Jul-10 21:05:09 widbo.wam BLADE BLADE GARBAGE METAL - 1 2950000
6273591 2021-Jul-10 21:03:57 t5qb2.wam METAL METAL PLASTIC PLASTIC - 2 5320000
6250503 2021-Jul-10 20:56:30 wdxr2.wam GAS HEAT HEAT STEAM - 1 1030000
6249135 2021-Jul-10 20:56:05 xdtbg.wam GAS HEAT HEAT PLASTIC - 1 2980000
6246193 2021-Jul-10 20:55:05 3cvba.wam EARTH GAS PLANT TREE - 1 1870000
6244712 2021-Jul-10 20:54:33 rplanetdevil BLADE BLADE PLASTIC PLASTIC - 2 6220000
6244530 2021-Jul-10 20:54:29 p4lqm.wam PLASTIC PLASTIC STEEL STEEL - 1 5920000
6241768 2021-Jul-10 20:53:27 vaaaaaaaaaan BLADE BLADE METAL PLASTIC SCISSOR 1501 4900000
6236732 2021-Jul-10 20:50:32 c4.r4.wam CRUDE GAS HEAT HEAT PLASTIC 4073 1990000
6235586 2021-Jul-10 20:45:44 5j3r4.wam CRUDE CRUDE HEAT PRESS - 1 2080000
6235318 2021-Jul-10 20:44:51 3yk5c.wam CRUDE HEAT PLANT PRESS - 1 1240000
6234620 2021-Jul-10 20:42:20 .4tra.wam CRUDE HEAT PRESS VACUUM - 1 2320000
6234471 2021-Jul-10 20:41:46 ngdqw.wam COAL CRUDE GAS HEAT - 2 2230000
6233519 2021-Jul-10 20:38:53 4nkr.wam BOILER CRUDE HEAT STEAM - 1 1840000
6233458 2021-Jul-10 20:38:42 ve.sq.wam BOILER COAL CRUDE GAS - 1 2950000
6232421 2021-Jul-10 20:35:52 5nvr.wam CRUDE HEAT PRESS SALT - 1 1150000
6232103 2021-Jul-10 20:34:54 qeaas.wam AIR OCEAN WATER WIND - 1 310000
6231635 2021-Jul-10 20:33:26 pykru.wam CRUDE GAS HEAT PRESS - 1 1990000
6230266 2021-Jul-10 20:29:12 gr.ui.wam COAL CRUDE PLANT SALT - 1 1510000
6230016 2021-Jul-10 20:28:33 luckyaddress CALCLTR PAINTNG TIME TIME - 1 26920000
6229800 2021-Jul-10 20:28:05 luckyaddress BATTERY BATTERY CALCLTR PAINTNG - 1 24520000
6229738 2021-Jul-10 20:27:57 l.2bg.wam BOILER CRUDE HEAT PRESS - 2 1840000
6227855 2021-Jul-10 20:23:47 3ouay.wam BOILER CRUDE GAS HEAT - 1 2710000
6227848 2021-Jul-10 20:23:46 tdfay.wam EARTH PLANT PLANT TREE - 1 1120000
6226456 2021-Jul-10 20:20:59 j3ur.wam BOILER CRUDE HEAT HEAT - 2 1840000
6226359 2021-Jul-10 20:20:47 rqhr4.wam COAL CRUDE HEAT PRESS - 1 1360000
6225565 2021-Jul-10 20:19:12 14vb2.wam CRUDE GAS HEAT PLANT - 1 2110000
6225017 2021-Jul-10 20:18:20 agnosticmonk CRUDE HEAT HEAT PLANT - 1 1240000
6223148 2021-Jul-10 20:15:14 noqaw.wam CRUDE PRESS PRESS PRESS - 1 1120000
6221614 2021-Jul-10 20:12:26 cloay.wam CRUDE HEAT HEAT HEAT - 7 1120000
6220724 2021-Jul-10 20:10:48 cloay.wam CRUDE FIRE FIRE FIRE - 1 1030000
6219762 2021-Jul-10 20:09:11 ehrbq.wam CRUDE HEAT PRESS PRESS - 1 1120000
6219399 2021-Jul-10 20:08:34 jooam.wam COAL CRUDE HEAT SALT - 1 1390000
6219229 2021-Jul-10 20:08:15 3c2b4.wam BOILER CRUDE CRUDE PRESS - 1 2800000
6219179 2021-Jul-10 20:08:10 l.2bg.wam CRUDE HEAT HEAT PRESS - 2 1120000
6216837 2021-Jul-10 20:04:45 cebe4.wam EARTH PRESS STEAM TREE - 2 880000
6215717 2021-Jul-10 20:03:40 qo4r2.wam CRUDE CRUDE HEAT HEAT - 1 2080000
6211667 2021-Jul-10 20:01:45 wsl.g.wam PLANT PRESS TREE WATER - 1 1000000
6208357 2021-Jul-10 20:00:40 5f1b.wam EARTH GRASS PLANT PRESS - 1 460000
6206676 2021-Jul-10 20:00:06 waxkingluffy COAL CRUDE GAS SALT - 6 2260000
6206390 2021-Jul-10 20:00:00 hlzb2.wam EARTHQ PLANT PRESS TREE - 11 1090000
6205274 2021-Jul-10 19:59:37 r3ab2.wam EARTH PRESS PRESS TREE - 1 880000
6203836 2021-Jul-10 19:59:03 gdsco.wam AIR PLANT PRESS TREE - 1 1000000
6202653 2021-Jul-10 19:58:35 budr.wam EARTH ENERGY PLANT TREE - 1 1000000
6202121 2021-Jul-10 19:58:22 3e5ra.wam COAL PRESS SAND STEAM - 1 820000
6202047 2021-Jul-10 19:58:20 so5bg.wam PLANT PLANT PRESS TREE - 1 1150000
6199358 2021-Jul-10 19:56:25 1lsay.wam PLANT PRESS SAND SUN - 1 1270000
6199332 2021-Jul-10 19:56:06 wpsca.wam EARTH PLANT PRESS TREE CRUDE 5142 1000000
6199136 2021-Jul-10 19:54:04 1zpay.wam MUD OCEAN PRESS STEEL - 1 1210000
6199124 2021-Jul-10 19:53:54 ktzqy.wam BACTERI ENERGY PRESS STONE - 1 760000
6199053 2021-Jul-10 19:53:06 t4uqy.wam BACTERI CLAY PRESS SAND - 1 1720000
6199049 2021-Jul-10 19:53:03 bovbc.wam COAL HEAT PLANT SEA - 1 520000
6199039 2021-Jul-10 19:52:57 mo.r4.wam EARTH ENERGY METAL PRESS - 1 760000
6198901 2021-Jul-10 19:51:30 bovbc.wam COAL ENERGY PLANT SEA - 1 520000
6198882 2021-Jul-10 19:51:17 so.r2.wam HEAT PLANT PRESS VULCANO - 1 730000
6198759 2021-Jul-10 19:49:57 bovbc.wam COAL ENERGY OCEAN PLANT - 1 640000
6198740 2021-Jul-10 19:49:47 p1cqw.wam BACTERI METAL PRESS SEA - 1 1330000
6198730 2021-Jul-10 19:49:42 dfyay.wam MUD PLANT RIVER SAND - 1 1690000
6198671 2021-Jul-10 19:49:14 4nkr.wam EARTH GEYSER LIFE SEA - 1 520000
6198659 2021-Jul-10 19:49:10 1uvb4.wam EARTH EXPLOSN OCEAN PRESS - 1 520000
6198623 2021-Jul-10 19:48:50 gmube.wam GAS PLANT PRESS SEA - 1 1150000
6198597 2021-Jul-10 19:48:33 5qupe.wam BACTERI GEYSER HEAT PRESS - 1 850000
6198535 2021-Jul-10 19:47:59 guwr2.wam FIRE OCEAN PRESS SUN - 1 820000
6198529 2021-Jul-10 19:47:55 bovbc.wam COAL ENERGY HEAT OCEAN - 1 520000
6198478 2021-Jul-10 19:47:29 mo.r4.wam ENERGY METAL OCEAN PRESS - 1 910000
6198440 2021-Jul-10 19:47:03 ytire.wam BACTERI GEYSER OCEAN SWAMP - 1 1180000
6198391 2021-Jul-10 19:46:30 kdoqy.wam BACTERI HEAT SAND SEA - 1 1120000
6198349 2021-Jul-10 19:45:59 t4uqy.wam CLAY MUD OCEAN PLANT - 1 1000000
6198345 2021-Jul-10 19:45:58 .12qw.wam COAL EARTH PRESS TREE - 1 1120000
6198139 2021-Jul-10 19:43:48 ukqqm.wam GRPHITE MUD OCEAN PRESS - 1 580000
6198089 2021-Jul-10 19:43:06 ijar.wam GAS PRESS SAND STONE - 1 1510000
6198071 2021-Jul-10 19:42:54 fikd.wam ENERGY EXPLOSN PLANT PRESS - 1 550000
6198038 2021-Jul-10 19:42:30 u1bro.wam GAS LIFE PRESS SWAMP - 1 1480000
6198024 2021-Jul-10 19:42:11 waxkingluffy CLAY MUD SAND WATER - 1 1150000
6198011 2021-Jul-10 19:41:57 gmube.wam GAS PLANT PRESS SWAMP - 1 1360000
6197959 2021-Jul-10 19:41:19 w.st.wam ASH HEAT MUD PRESS - 1 730000
6197748 2021-Jul-10 19:39:33 bhwqy.wam CLAY PLANT PRESS SAND - 1 1300000
6197677 2021-Jul-10 19:38:47 t4uqy.wam CLAY COAL PRESS SAND - 1 1420000
6197671 2021-Jul-10 19:38:45 1zpay.wam BACTERI LIFE PLANT WATER - 1 1030000
6197604 2021-Jul-10 19:38:04 avur.wam COAL FIRE LIFE PRESS - 1 610000
6197545 2021-Jul-10 19:37:38 e2cr.wam GAS HEAT PLANT SEA - 1 1150000
6197462 2021-Jul-10 19:36:58 cloay.wam COAL MUD PLANT PRESS - 1 520000
6197447 2021-Jul-10 19:36:51 guwr2.wam ATMSPHE COAL OCEAN PRESS - 1 610000
6197444 2021-Jul-10 19:36:49 b2wb4.wam GAS GEYSER OCEAN PRESS - 1 1300000
6197431 2021-Jul-10 19:36:42 4pbr.wam EARTH GAS PLANT PRESS - 1 1120000
6197430 2021-Jul-10 19:36:42 2wrdo.wam EXPLOSN GAS GEYSER SMOKE - 1 1750000
6197399 2021-Jul-10 19:36:19 e2cr.wam GAS HEAT SAND SEA - 1 1450000
6197372 2021-Jul-10 19:36:06 i4nbc.wam COAL OCEAN PLANT SAND - 1 1060000
6197287 2021-Jul-10 19:35:21 so.r2.wam EARTHQ PLANT PRESS VULCANO - 1 790000
6197246 2021-Jul-10 19:34:53 lbaba.wam EARTH LIFE PRESS VACUUM - 1 1570000
6197244 2021-Jul-10 19:34:51 e2cr.wam GAS HEAT MUD SEA - 1 1030000
6197229 2021-Jul-10 19:34:36 tflb.wam GAS GEYSER PRESS SAND - 1 1600000
6197169 2021-Jul-10 19:33:51 hh2qw.wam EARTH GAS GEYSER PRESS - 1 1150000
6197144 2021-Jul-10 19:33:34 rqhr4.wam COAL ENERGY PLANT SUN - 1 1090000
6197126 2021-Jul-10 19:33:24 ijar.wam GEYSER PRESS SAND STONE - 1 790000
6197017 2021-Jul-10 19:32:28 tflb.wam GAS GEYSER MUD PRESS - 1 1180000
6196952 2021-Jul-10 19:31:58 xputi.wam BACTERI PRESS SEA STEAM - 1 700000
6196932 2021-Jul-10 19:31:46 qedrk.wam METAL MUD OCEAN PRESS - 2 910000
6196916 2021-Jul-10 19:31:35 pvfb.wam COAL ENERGY FIRE LIFE - 1 610000
6196867 2021-Jul-10 19:31:12 ijar.wam EARTH GEYSER PRESS SAND - 1 700000
6196863 2021-Jul-10 19:31:10 b2wb4.wam LIFE PLANT SAND SEA - 2 940000
6196820 2021-Jul-10 19:30:41 farky.wam LAVA METAL PRESS WATER - 1 760000
6196809 2021-Jul-10 19:30:34 bovbc.wam COAL EARTH HEAT LIFE - 1 610000
6196753 2021-Jul-10 19:29:59 eowb.wam BACTERI METAL OCEAN PRESS - 1 1450000
6196662 2021-Jul-10 19:29:07 d3cqu.wam COAL GRPHITE HEAT PRESS - 1 700000
6196489 2021-Jul-10 19:27:18 guwr2.wam EXPLOSN OCEAN PLANT PRESS - 1 670000
6196477 2021-Jul-10 19:27:13 pvfb.wam COAL EARTH ENERGY LIFE - 1 610000
6196448 2021-Jul-10 19:27:02 i4nbc.wam COAL EARTH PLANT SWAMP - 1 700000
6196426 2021-Jul-10 19:26:51 qjic2.wam BACTERI PRESS SEA SUN - 1 1270000
6196409 2021-Jul-10 19:26:44 r2t.e.wam CLAY COAL GRPHITE OCEAN - 1 1420000
6196278 2021-Jul-10 19:25:37 e2cr.wam EARTH MUD SAND SEA - 1 550000
6196247 2021-Jul-10 19:25:12 4umrg.wam BACTERI MOSS PLANT PRESS - 1 1060000
6196206 2021-Jul-10 19:24:34 tflb.wam CLAY GEYSER MUD SAND - 1 1330000
6196202 2021-Jul-10 19:24:28 ijar.wam ENERGY PLANT SAND STONE - 1 760000
6196135 2021-Jul-10 19:23:16 rprqy.wam BACTERI HEAT OCEAN STONE - 1 880000
6195952 2021-Jul-10 19:19:33 3zjbc.wam MUD OCEAN SAND SEA - 1 700000
6195869 2021-Jul-10 19:17:31 2wrdo.wam EARTH ENERGY GAS GEYSER - 1 1150000
6195703 2021-Jul-10 19:04:37 r15ra.wam BACTERI SAND SEA SEA - 1 1120000
6195697 2021-Jul-10 19:04:19 muribarabata EXPLOSN GEYSER PRESS PRESS - 1 580000
6195629 2021-Jul-10 18:57:14 5uzr.wam BACTERI PLANT SALT WATER - 1 820000
6195563 2021-Jul-10 18:53:26 wz.b.wam COAL COAL COAL PICKAX - 1 3130000
6195531 2021-Jul-10 18:51:38 ydnuk.wam ENERGY MUD PRESS SAND - 1 580000
6195514 2021-Jul-10 18:46:55 g2cbe.wam PLANT SAND SEA SEA - 1 700000
6195410 2021-Jul-10 18:37:57 5uzr.wam BACTERI PLANT SAND WATER - 1 1210000
6195358 2021-Jul-10 18:31:54 sxyqy.wam EARTH HEAT PLANT SUN - 1 820000
6195331 2021-Jul-10 18:30:24 4nkr.wam GEYSER LIFE OCEAN PRESS - 1 670000
6195276 2021-Jul-10 18:28:23 ytire.wam BACTERI LIFE OCEAN SWAMP - 1 1270000
6195244 2021-Jul-10 18:26:50 g2cbe.wam ENERGY OCEAN OCEAN OCEAN - 1 520000
6195144 2021-Jul-10 18:22:22 sxyqy.wam CLAY PLANT SEA SUN - 1 1450000
6195023 2021-Jul-10 18:14:15 g2cbe.wam CLAY LIFE OCEAN OCEAN - 1 1240000
6194997 2021-Jul-10 18:12:42 r15ra.wam CLAY LIFE SEA SEA - 1 1000000
6194978 2021-Jul-10 18:11:55 4nkr.wam CLAY EARTH OCEAN PLANT - 1 970000
6194973 2021-Jul-10 18:11:30 ttrqw.wam BACTERI BACTERI PRESS STONE - 1 1300000
6194668 2021-Jul-10 17:57:30 twdqq.wam PLANT PRESS RIVER SWAMP - 1 1480000
6194623 2021-Jul-10 17:55:28 noqaw.wam BACTERI HEAT HEAT STONE - 1 760000
6194504 2021-Jul-10 17:50:47 noqaw.wam BACTERI FIRE PRESS STONE - 1 730000
6194450 2021-Jul-10 17:47:21 twdqq.wam BACTERI GEYSER PLANT PRESS - 1 970000
6194341 2021-Jul-10 17:41:07 frcqu.wam CLAY CLAY OCEAN PRESS - 1 1480000
6194176 2021-Jul-10 17:29:47 u2dbc.wam BACTERI PRESS SWAMP TREE - 1 1660000
6194091 2021-Jul-10 17:20:22 xlubg.wam GAS PRESS PRESS STONE - 1 1090000
6194011 2021-Jul-10 17:15:16 euuec.wam HEAT LIFE SAND WATER - 1 790000
6193981 2021-Jul-10 17:13:25 agnosticmonk CLAY LIFE PLANT PRESS - 1 1120000
6193918 2021-Jul-10 17:09:35 kdawaxwallet BACTERI BACTERI PLANT SEA - 1 1360000
6193905 2021-Jul-10 17:06:58 xlubg.wam GAS PRESS STEAM STONE - 1 1090000
6193893 2021-Jul-10 17:06:37 rinb2.wam EARTH LIFE METAL PRESS - 1 1000000
6193869 2021-Jul-10 17:05:48 5uzr.wam COAL EARTH GAS PLANT - 1 1360000
6193687 2021-Jul-10 17:01:16 rinb2.wam AIR EARTH METAL PRESS - 1 730000
6193503 2021-Jul-10 16:53:31 ss3r.wam GEYSER OBSIDIN OBSIDIN PRESS - 1 490000
6193447 2021-Jul-10 16:52:09 ohlqy.wam COAL PEAT PLANT PRESS - 1 1750000
6193280 2021-Jul-10 16:46:39 ss3r.wam GEYSER OCEAN OCEAN PRESS - 1 550000
6192872 2021-Jul-10 16:31:09 qo4r2.wam LIFE METAL PRESS SAND - 1 1450000
6192826 2021-Jul-10 16:29:45 agnosticmonk CLAY LIFE PRESS SAND - 1 1420000
6192707 2021-Jul-10 16:26:18 3ssr.wam LAVA PRESS SAND SEA - 1 580000
6192698 2021-Jul-10 16:26:04 yattamanking COAL COAL HEAT MUD - 1 640000
6192617 2021-Jul-10 16:23:56 hohra.wam FIRE HEAT HEAT LAVA - 1 130000
6192574 2021-Jul-10 16:23:01 r15ra.wam CLAY ENERGY PRESS SEA - 1 760000
6192542 2021-Jul-10 16:22:15 trqra.wam CLAY ENERGY OCEAN PRESS - 1 880000
6192357 2021-Jul-10 16:17:26 rafaeltraldi HEAT OCEAN SEAWEED STONE - 1 1690000
6192336 2021-Jul-10 16:16:56 4vibe.wam BACTERI LAVA PRESS SEA - 1 700000
6192208 2021-Jul-10 16:12:22 dpzbs.wam ENERGY GAS HEAT PRESS - 1 1030000
6191929 2021-Jul-10 16:01:43 dlqbk.wam COAL COAL PRESS RAIN - 1 640000
6191911 2021-Jul-10 16:01:23 ulyra.wam BACTERI HEAT PRESS TREE - 1 1450000
6191890 2021-Jul-10 16:00:55 noqaw.wam GAS GAS HEAT HEAT - 1 1900000
6191822 2021-Jul-10 15:59:19 oambc.wam COAL COAL COAL OCEAN - 1 1000000
6191538 2021-Jul-10 15:55:00 noqaw.wam GAS HEAT HEAT PLANT - 1 1150000
6191513 2021-Jul-10 15:54:30 ygyri.wam ENERGY LIFE LIFE OCEAN - 1 760000
6191480 2021-Jul-10 15:53:45 jjera.wam ENERGY EXPLOSN OCEAN PRESS - 1 550000
6191427 2021-Jul-10 15:52:05 xphbw.wam HEAT LIFE MNTAIN PRESS - 1 1000000
6191331 2021-Jul-10 15:49:20 4vyr.wam CLAY CLAY OCEAN OCEAN - 1 1600000
6191045 2021-Jul-10 15:43:42 guwr2.wam OCEAN PRESS PRESS RIVER - 1 1270000
6190990 2021-Jul-10 15:42:28 b3qqu.wam GRASS GRASS HEAT PRESS - 1 580000
6190980 2021-Jul-10 15:42:19 xciaw.wam COAL ENERGY GEYSER PRESS - 1 550000
6190957 2021-Jul-10 15:41:40 ijkbc.wam EARTH PRESS PRESS SEAWEED - 1 1480000
6190710 2021-Jul-10 15:36:36 xciaw.wam COAL GEYSER LIFE PRESS - 1 790000
6190660 2021-Jul-10 15:35:28 cloay.wam COAL COAL MUD MUD - 1 640000
6190625 2021-Jul-10 15:34:54 xphbw.wam MNTAIN PRESS SAND WATER - 1 1150000
6190386 2021-Jul-10 15:29:55 avur.wam HEAT LIFE PRESS TREE - 1 1150000
6190279 2021-Jul-10 15:28:10 bckau.wam DUST HEAT OCEAN RAIN - 1 280000
6190200 2021-Jul-10 15:26:05 guwr2.wam EXPLOSN OCEAN PRESS PRESS - 1 550000
6190191 2021-Jul-10 15:25:49 qgsra.wam CLAY GEYSER PRESS SAND - 1 1330000
6190171 2021-Jul-10 15:25:05 warrentrxwax COAL GEYSER HEAT PRESS - 1 550000
6189975 2021-Jul-10 15:20:36 qbkra.wam HEAT MOSS PRESS SAND - 1 820000
6189885 2021-Jul-10 15:18:41 5j3r4.wam MOSS MUD OCEAN STONE - 1 580000
6189743 2021-Jul-10 15:15:29 5j3r4.wam CLAY HEAT MOSS OCEAN - 1 1120000
6189592 2021-Jul-10 15:12:28 xf3ay.wam EARTH LIFE SALT STONE - 1 460000
6189554 2021-Jul-10 15:11:45 5j3r4.wam CABBAGE CLAY OCEAN PLANT - 1 1150000
6189487 2021-Jul-10 15:10:02 wulr2.wam BACTERI ENERGY PRESS PRESS - 1 700000
6189365 2021-Jul-10 15:06:04 psueg.wam GRPHITE GRPHITE GRPHITE PLANT - 1 1180000
6189180 2021-Jul-10 15:02:47 k4may.wam EARTH GEYSER LIFE PRESS - 1 520000
6189153 2021-Jul-10 15:02:21 iqab.wam BACTERI HEAT PEAT PRESS - 1 1930000
6189103 2021-Jul-10 15:01:21 5uzr.wam GRPHITE HEAT PRESS SEAWEED - 1 1810000
6188883 2021-Jul-10 14:57:07 op4b4.wam HEAT METAL OCEAN PRESS - 1 910000
6188782 2021-Jul-10 14:55:26 3ouay.wam EXPLOSN PLANT PRESS SEA - 1 550000
6188536 2021-Jul-10 14:52:26 avur.wam LAVA LIFE PRESS TREE - 1 1150000
6188516 2021-Jul-10 14:52:07 ra4qy.wam BACTERI CLAY ENERGY ENERGY - 1 1300000
6188480 2021-Jul-10 14:51:33 3ouay.wam BACTERI CLAY ENERGY SWAMP - 1 1510000
6188376 2021-Jul-10 14:50:09 4sgay.wam HEAT PRESS SAND SWAMP - 1 790000
6188228 2021-Jul-10 14:47:44 3ouay.wam BACTERI BACTERI CLAY PRESS - 1 1840000
6188227 2021-Jul-10 14:47:44 euuec.wam LIFE MUD OCEAN SUN - 1 1090000
6188174 2021-Jul-10 14:46:41 52nr4.wam MUD PRESS SAND SAND - 1 1000000
6188133 2021-Jul-10 14:46:01 3ouay.wam BACTERI CLAY PRESS PRESS - 1 1300000
6188103 2021-Jul-10 14:45:26 ukqqm.wam CLAY PRESS PRESS SEA - 1 760000
6188021 2021-Jul-10 14:44:09 drunknwizard DUST STONE STONE STONE - 1 340000
6187939 2021-Jul-10 14:43:14 .myaw.wam GAS SEA SEA SEA - 1 1030000
6187931 2021-Jul-10 14:43:05 2l4b.wam OCEAN PRESS SAND SUN - 1 1270000
6187925 2021-Jul-10 14:43:01 op4b4.wam METAL OCEAN PRESS SUN - 1 1480000
6187923 2021-Jul-10 14:43:01 is2r2.wam COAL COAL EARTHQ PRESS - 1 700000
6187910 2021-Jul-10 14:42:47 3ouay.wam COAL GAS PRESS SEA - 1 1270000
6187827 2021-Jul-10 14:41:31 3c2b4.wam BACTERI GRASS HEAT PRESS - 1 910000
6187815 2021-Jul-10 14:41:20 qgsra.wam CLAY ENERGY GEYSER PRESS - 1 910000
6187794 2021-Jul-10 14:40:59 lsfqw.wam BACTERI BACTERI FIRE PRESS - 1 1210000
6187716 2021-Jul-10 14:39:39 euuec.wam HEAT PLANT SAND WATER - 1 670000
6187635 2021-Jul-10 14:38:38 r2t.e.wam BACTERI CLAY ENERGY OCEAN - 1 1420000
6187524 2021-Jul-10 14:36:50 pufb.wam GEYSER HEAT OCEAN PLANT - 1 550000
6187497 2021-Jul-10 14:36:21 pufb.wam ENERGY GEYSER OCEAN PLANT - 1 550000
6187490 2021-Jul-10 14:36:13 uxtb4.wam HEAT PEAT PLANT PRESS - 1 1510000
6187424 2021-Jul-10 14:34:58 ra4qy.wam BACTERI COAL ENERGY PRESS - 1 940000
6187394 2021-Jul-10 14:34:26 r2t.e.wam CLAY ENERGY OCEAN PLANT - 1 1000000
6187355 2021-Jul-10 14:33:42 blacklist.gm COAL FIRE GEYSER MUD - 1 520000
6187227 2021-Jul-10 14:31:11 qejbm.wam LIFE PRESS PRESS SEAWEED - 1 1750000
6187103 2021-Jul-10 14:29:38 lbaba.wam PEAT PRESS PRESS WATER - 1 1360000
6187039 2021-Jul-10 14:28:33 3ouay.wam COAL EXPLOSN LIFE MNTAIN - 1 1510000
6186890 2021-Jul-10 14:26:26 qgsra.wam ENERGY EXPLOSN GEYSER PRESS - 1 580000
6186866 2021-Jul-10 14:26:06 3diau.wam BACTERI HEAT PLANT SUN - 1 1390000
6186795 2021-Jul-10 14:25:25 j3ur.wam HEAT MUD PRESS VACUUM - 1 1360000
6186601 2021-Jul-10 14:23:22 plbb.wam CLAY MUD PLANT SAND - 1 1300000
6186490 2021-Jul-10 14:21:57 ra4qy.wam BACTERI ENERGY ENERGY PRESS - 1 700000
6186485 2021-Jul-10 14:21:54 g2cbe.wam GAS OCEAN OCEAN PRESS - 1 1270000
6186484 2021-Jul-10 14:21:54 3ouay.wam MNTAIN PLANT PRESS PRESS - 1 880000
6186439 2021-Jul-10 14:21:22 h.mbc.wam BACTERI HEAT PRESS SUN - 1 1270000
6186428 2021-Jul-10 14:21:13 g2cbe.wam GAS OCEAN PRESS PRESS - 1 1150000
6186263 2021-Jul-10 14:19:13 gsoaw.wam HEAT MUD PEAT PRESS - 1 1390000
6186211 2021-Jul-10 14:18:31 5uzr.wam GAS PLANT SAND STEAM - 1 1570000
6186043 2021-Jul-10 14:15:54 r2t.e.wam CLAY COAL HEAT PRESS - 1 1000000
6185955 2021-Jul-10 14:14:35 r2t.e.wam CLAY COAL OCEAN PRESS - 1 1120000
6185953 2021-Jul-10 14:14:33 3diau.wam BACTERI GRPHITE PLANT STEAM - 1 1120000
6185853 2021-Jul-10 14:12:24 3ouay.wam LIFE LIFE SWAMP SWAMP - 1 1060000
6185829 2021-Jul-10 14:11:46 oegr2.wam PLANT SAND SAND SAND - 1 1540000
6185823 2021-Jul-10 14:11:39 cmnre.wam OCEAN PLANT PRESS VACUUM - 1 1600000
6185812 2021-Jul-10 14:11:17 14vb2.wam CLAY HEAT PLANT SEA - 1 880000
6185787 2021-Jul-10 14:10:40 blacklist.gm GEYSER HEAT PRESS SAND - 1 730000
6185776 2021-Jul-10 14:10:20 xputi.wam BACTERI GAS HEAT PRESS - 1 1570000
6185766 2021-Jul-10 14:10:06 nycticebus21 COAL GAS GRPHITE PRESS - 1 1570000
6185746 2021-Jul-10 14:09:42 5j3r4.wam CLAY HEAT OCEAN PLANT - 1 1000000
6185745 2021-Jul-10 14:09:40 3diau.wam BACTERI EARTH GRPHITE PLANT - 1 1090000
6185673 2021-Jul-10 14:08:49 1puqy.wam BACTERI EARTH PLANT SEA - 1 790000
6185414 2021-Jul-10 14:06:54 u55qy.wam HEAT LIFE METAL PRESS - 1 1030000
6185314 2021-Jul-10 14:05:44 3diau.wam GAS GRPHITE GRPHITE STEAM - 1 1630000
6185201 2021-Jul-10 14:04:30 ra4qy.wam HEAT LIFE LIFE SAND - 1 1060000
6185190 2021-Jul-10 14:04:24 cmnre.wam LIFE OCEAN PRESS VACUUM - 1 1720000
6185084 2021-Jul-10 14:02:44 nycticebus21 BACTERI ENERGY OCEAN PLANT - 1 940000
6185045 2021-Jul-10 14:02:09 3ouay.wam ENERGY GAS PLANT PRESS - 1 1150000
6185012 2021-Jul-10 14:01:35 3diau.wam DIAMOND EARTH GRPHITE WATER - 1 760000
6184999 2021-Jul-10 14:01:19 3ouay.wam GAS GRPHITE GRPHITE WATER - 1 1600000
6184821 2021-Jul-10 13:58:52 5j3r4.wam CLAY PLANT PLANT SEA - 1 1000000
6184804 2021-Jul-10 13:58:39 1puqy.wam BACTERI EARTH EARTH PLANT - 1 760000
6184574 2021-Jul-10 13:55:35 nycticebus21 PLANT PRESS SAND SAND - 1 1120000
6184550 2021-Jul-10 13:55:12 o3.qy.wam PLANT PLANT PRESS RIVER - 1 1390000
6184440 2021-Jul-10 13:53:42 3ouay.wam EARTH EXPLOSN PLANT PLANT - 1 640000
6184403 2021-Jul-10 13:53:15 1puqy.wam BACTERI EARTH PLANT SWAMP - 1 1000000
6184291 2021-Jul-10 13:51:57 3ouay.wam HEAT LIFE PLANT SAND - 1 940000
6184192 2021-Jul-10 13:50:12 nycticebus21 LIFE PRESS SAND SAND - 1 1240000
6184188 2021-Jul-10 13:50:09 1uobi.wam DUST LIFE OCEAN SAND - 1 940000
6184168 2021-Jul-10 13:49:33 qejbm.wam LIFE PRESS SEA SEAWEED - 1 1750000
6184028 2021-Jul-10 13:47:10 hh2qw.wam GAS GEYSER PRESS PRESS - 1 1180000
6183993 2021-Jul-10 13:46:10 3ouay.wam HEAT LIFE SAND SAND - 1 1240000
6183857 2021-Jul-10 13:43:08 ha3rc.wam OCEAN PRESS PRESS TREE - 1 1030000
6183836 2021-Jul-10 13:42:43 nycticebus21 GRASS LIFE PLANT PRESS - 1 730000
6183817 2021-Jul-10 13:42:25 toprg.wam EARTH OCEAN PRESS SUN - 1 820000
6183792 2021-Jul-10 13:41:54 3ouay.wam BOILER COAL COAL HEAT - 1 1360000
6183621 2021-Jul-10 13:39:33 uqkaw.wam BACTERI PRESS SWAMP SWAMP - 1 1120000
6183584 2021-Jul-10 13:38:59 u55qy.wam FIRE LIFE PRESS SWAMP - 1 580000
6183575 2021-Jul-10 13:38:55 elldq.wam EARTH ENERGY GEYSER LIFE - 1 520000
6183458 2021-Jul-10 13:37:36 1puqy.wam BACTERI CLAY PRESS SWAMP - 1 1510000
6183348 2021-Jul-10 13:35:53 r2t.e.wam HEAT OCEAN PEAT PRESS - 1 1510000
6183306 2021-Jul-10 13:35:00 22mr2.wam EARTH ENERGY PRESS SAND - 1 550000
6183290 2021-Jul-10 13:34:43 3ouay.wam LIFE PRESS SWAMP SWAMP - 1 820000
6183282 2021-Jul-10 13:34:34 o5gqy.wam GAS HEAT LIFE OCEAN - 1 1390000
6183180 2021-Jul-10 13:33:13 22mr2.wam EARTH ENERGY ENERGY SAND - 1 550000
6183116 2021-Jul-10 13:32:15 uqkaw.wam BACTERI PLANT SWAMP SWAMP - 1 1240000
6183113 2021-Jul-10 13:32:14 2gbaq.wam BLCKMTR DUST GAS SUN - 1 2560000
6183072 2021-Jul-10 13:31:43 1puqy.wam BACTERI CLAY MUD PLANT - 1 1420000
6182890 2021-Jul-10 13:29:14 jsgb2.wam BACTERI EARTH GARBAGE PRESS - 1 670000
6182834 2021-Jul-10 13:28:09 q1qqy.wam GEYSER HEAT LIFE PRESS - 1 550000
6182660 2021-Jul-10 13:25:46 uqkaw.wam BACTERI GARBAGE PRESS SWAMP - 1 910000
6182636 2021-Jul-10 13:25:18 euuec.wam BACTERI BACTERI MUD PRESS - 1 1240000
6182588 2021-Jul-10 13:24:25 4g5qy.wam HEAT HEAT LIFE LIFE - 1 640000
6182570 2021-Jul-10 13:24:06 d5eqy.wam LAVA PRESS SEA SEAWEED - 1 1510000
6182386 2021-Jul-10 13:21:52 5qupe.wam GEYSER OCEAN PRESS SAND - 1 850000
6182382 2021-Jul-10 13:21:50 svtse.wam GAS MUD OCEAN PLANT - 1 1270000
6182309 2021-Jul-10 13:20:47 ehrbq.wam EARTH PRESS PRESS SAND - 1 550000
6182207 2021-Jul-10 13:19:41 bhwqy.wam CLAY PLANT PRESS PRESS - 1 880000
6182186 2021-Jul-10 13:19:31 1puqy.wam BACTERI CLAY PLANT SEA - 1 1420000
6182120 2021-Jul-10 13:18:51 ve.sq.wam CLAY EARTHQ HEAT PRESS - 1 820000
6182056 2021-Jul-10 13:17:52 awjqq.wam ENERGY PRESS SEAWEED SWAMP - 1 1720000
6182039 2021-Jul-10 13:17:36 r2t.e.wam COAL HEAT MUD OCEAN - 1 520000
6181861 2021-Jul-10 13:15:04 5qupe.wam GEYSER PRESS SAND SAND - 1 1150000
6181743 2021-Jul-10 13:13:26 vowre.wam ENERGY PLANT PRESS TREE - 2 1030000
6181691 2021-Jul-10 13:12:46 wbd4s.wam HEAT SWAMP SWAMP SWAMP - 1 790000
6181575 2021-Jul-10 13:10:47 1puqy.wam BACTERI CLAY PLANT PRESS - 1 1420000
6181454 2021-Jul-10 13:09:26 y42ri.wam BACTERI GARBAGE HEAT OCEAN - 1 820000
6181421 2021-Jul-10 13:09:08 l.2bg.wam BACTERI EARTH EARTH EARTH - 1 610000
6181413 2021-Jul-10 13:09:04 ehrbq.wam BACTERI OCEAN PRESS WATER - 1 790000
6181385 2021-Jul-10 13:08:46 .hpcg.wam PLANT SALT SAND STONE - 1 790000
6181351 2021-Jul-10 13:08:23 5qupe.wam GEYSER LIFE PRESS SAND - 1 970000
6181278 2021-Jul-10 13:07:34 gnsba.wam BACTERI EARTHQ PRESS SEA - 1 760000
6181213 2021-Jul-10 13:06:46 xv.bg.wam EARTH ICE OCEAN PRESS - 1 640000
6181162 2021-Jul-10 13:06:11 5qupe.wam GEYSER PRESS PRESS SAND - 1 730000
6181158 2021-Jul-10 13:06:08 5xlb2.wam MOSS MUD OCEAN SUN - 1 1090000
6181091 2021-Jul-10 13:05:26 gcxr2.wam HEAT HEAT LIFE PLANT - 1 520000
6181060 2021-Jul-10 13:05:03 rgrca.wam HEAT METAL PLANT PRESS - 1 910000
6181041 2021-Jul-10 13:04:39 3zjbc.wam MOSS MOSS OCEAN OCEAN - 1 880000
6180999 2021-Jul-10 13:04:09 q1qqy.wam GEYSER GEYSER GEYSER OCEAN - 1 730000
6180967 2021-Jul-10 13:03:47 dfyay.wam PLANT PLANT SAND SEA - 1 820000
6180962 2021-Jul-10 13:03:45 1puqy.wam BACTERI COAL GAS OCEAN - 1 1930000
6180934 2021-Jul-10 13:03:24 1puqy.wam BACTERI COAL GAS HEAT - 1 1810000
6180854 2021-Jul-10 13:02:30 xpobs.wam ENERGY MUD PLANT SAND - 1 700000
6180797 2021-Jul-10 13:01:55 blopsie.za COAL EARTH GAS GEYSER - 1 1390000
6180781 2021-Jul-10 13:01:44 xw1na.wam COAL GAS OCEAN PRESS - 1 1390000
6180658 2021-Jul-10 13:00:22 fantajimflow LIFE MUD PRESS SUN - 1 970000
6180601 2021-Jul-10 12:59:51 3lhbi.wam DUST EARTH EARTH WATER - 2 70000
6180576 2021-Jul-10 12:59:40 dfyay.wam PLANT SAND SAND SEA - 1 1120000
6180489 2021-Jul-10 12:58:59 r2t.e.wam EARTH GAS OCEAN PLANT - 1 1240000
6180457 2021-Jul-10 12:58:43 txyaw.wam CLAY PLANT PLANT PRESS - 1 1000000
6180408 2021-Jul-10 12:58:14 d5eqy.wam GRPHITE GRPHITE PRESS STEAM - 1 760000
6180304 2021-Jul-10 12:57:25 l.2bg.wam BACTERI EARTH PRESS STONE - 1 730000
6180167 2021-Jul-10 12:56:33 4g5qy.wam BACTERI HEAT SWAMP WATER - 1 880000
6179622 2021-Jul-10 12:52:27 se4aw.wam ENERGY PEAT PLANT PRESS - 1 1510000
6179506 2021-Jul-10 12:51:21 xdtbg.wam LIFE MUD OCEAN OCEAN - 1 640000
6179401 2021-Jul-10 12:50:25 r2t.e.wam BACTERI GRPHITE OCEAN PRESS - 1 1120000
6179315 2021-Jul-10 12:49:40 j4n1theking1 LIFE LIFE PRESS SUN - 1 1210000
6179267 2021-Jul-10 12:49:13 v4.bc.wam LIFE MOSS MUD PRESS - 1 640000
6179194 2021-Jul-10 12:48:27 gsoaw.wam HEAT LIFE PRESS RIVER - 1 1390000
6179011 2021-Jul-10 12:46:50 5j3r4.wam CLAY CLAY OCEAN PLANT - 1 1600000
6178950 2021-Jul-10 12:46:19 gnsba.wam COAL GAS MUD WATER - 1 1240000
6178845 2021-Jul-10 12:45:25 aayushhhhhhh CLAY HEAT PRESS SAND - 1 1180000
6178686 2021-Jul-10 12:42:58 perrylllllll MUD OCEAN PRESS SUN - 1 850000
6178676 2021-Jul-10 12:42:47 awjqq.wam BACTERI GAS HEAT OCEAN - 1 1690000
6178485 2021-Jul-10 12:40:26 r2t.e.wam EARTH GRPHITE OCEAN PLANT - 1 670000
6178468 2021-Jul-10 12:40:17 4g5qy.wam LAVA LIFE LIFE PRESS - 1 640000
6178415 2021-Jul-10 12:39:45 iyuca.wam LIFE MUD SAND WATER - 1 790000
6178283 2021-Jul-10 12:38:16 4vibe.wam BACTERI CLAY OCEAN SAND - 1 1840000
6178255 2021-Jul-10 12:38:01 perrylllllll MUD PRESS SAND SUN - 1 1150000
6178247 2021-Jul-10 12:37:57 1puqy.wam BACTERI COAL GAS SEA - 1 1810000
6178239 2021-Jul-10 12:37:55 xqjam.wam CLOTH PRESS SOUND TREE - 1 5950000
6178199 2021-Jul-10 12:37:37 1puqy.wam BACTERI COAL GAS PRESS - 1 1810000
6178134 2021-Jul-10 12:37:02 5akba.wam EXPLOSN EXPLOSN OCEAN OCEAN - 1 940000
6178116 2021-Jul-10 12:36:57 4nkr.wam GAS MUD PRESS WATER - 1 1000000
6178110 2021-Jul-10 12:36:54 fantajimflow BACTERI MUD SAND SAND - 1 1540000
6178067 2021-Jul-10 12:36:37 2zcqy.wam EARTHQ PRESS SWAMP SWAMP - 1 640000
6178025 2021-Jul-10 12:36:12 gk3bk.wam EXPLOSN SAND SAND SAND - 1 1690000
6177956 2021-Jul-10 12:35:37 3knra.wam LIFE LIFE PLANT PRESS - 1 760000
6177947 2021-Jul-10 12:35:34 se4aw.wam COAL OCEAN PRESS SEAWEED - 1 1870000
6177877 2021-Jul-10 12:35:08 so.r2.wam EARTH EARTH PRESS VACUUM - 2 1300000
6177834 2021-Jul-10 12:34:42 5j3r4.wam CLAY OCEAN PLANT PLANT - 1 1120000
6177547 2021-Jul-10 12:32:27 dfbbi.wam BACTERI HEAT OCEAN SAND - 1 1240000
6177263 2021-Jul-10 12:30:05 pdss2.wam LIFE PLANT PRESS TREE - 1 1270000
6177212 2021-Jul-10 12:29:34 gk3bk.wam GEYSER SAND SAND SAND - 1 1570000
6177026 2021-Jul-10 12:27:37 3zjbc.wam MUD SAND WATER WATER - 1 520000
6176940 2021-Jul-10 12:26:34 5j3r4.wam CLAY OCEAN OCEAN PLANT - 1 1120000
6176908 2021-Jul-10 12:26:13 5thba.wam ENERGY LIFE PLANT SEA - 1 520000
6176850 2021-Jul-10 12:25:42 4pbr.wam EARTH GAS PRESS PRESS - 1 1000000
6176822 2021-Jul-10 12:25:19 r2t.e.wam GRPHITE GRPHITE HEAT PRESS - 1 760000
6176818 2021-Jul-10 12:25:18 3zjbc.wam EARTH MUD OCEAN SAND - 1 670000
6176706 2021-Jul-10 12:23:42 3zjbc.wam MUD OCEAN RIVER SAND - 1 1690000
6176695 2021-Jul-10 12:23:31 1puqy.wam BACTERI COAL EARTH GAS - 1 1780000
6176613 2021-Jul-10 12:22:21 1puqy.wam BACTERI COAL GAS MUD - 1 1810000
6176584 2021-Jul-10 12:21:55 khqd2.wam LIFE PLANT PLANT PRESS - 1 640000
6176557 2021-Jul-10 12:21:24 mxpay.wam CLAY MUD SAND SWAMP - 1 1390000
6176437 2021-Jul-10 12:19:28 r2t.e.wam BACTERI GRPHITE HEAT PRESS - 1 1000000
6176364 2021-Jul-10 12:18:26 xpobs.wam LIFE MUD PLANT STONE - 1 580000
6176227 2021-Jul-10 12:16:41 5j3r4.wam CLAY PLANT SEA SEA - 1 880000
6176200 2021-Jul-10 12:16:17 r2t.e.wam EARTHQ GRPHITE HEAT PRESS - 1 520000
6175992 2021-Jul-10 12:12:46 iybcc.wam METAL OCEAN OCEAN PRESS - 1 1030000
6175975 2021-Jul-10 12:11:47 xqjam.wam MUSIC PAPER PAPER TREE - 1 14290000
6175796 2021-Jul-10 11:58:43 cycba.wam HEAT MUD SEA STEAM - 1 160000
6175657 2021-Jul-10 11:46:40 1puqy.wam GAS HAMMER SOUND STEEL - 1 5620000
6175232 2021-Jul-10 11:25:12 budr.wam FIRE STONE STONE WATER - 1 220000
6175103 2021-Jul-10 11:19:36 r15ra.wam PRESS STONE STONE WAVE - 1 640000
6174918 2021-Jul-10 11:07:20 1puqy.wam GAS HAMMER STEEL STEEL - 1 5770000
6174768 2021-Jul-10 10:58:39 aljqy.wam LIFE PRESS SEA STEAM - 1 400000
6174318 2021-Jul-10 10:37:07 r15ra.wam PRESS STONE WAVE WAVE - 1 940000
6174133 2021-Jul-10 10:15:54 u1bro.wam DEW EARTH ENERGY PLANT - 1 850000
6174025 2021-Jul-10 10:05:54 u1bro.wam MUD MUD PLANT WIND - 1 370000
6173977 2021-Jul-10 10:00:56 u1bro.wam ENERGY RAIN SEED WIND - 1 1420000
6173357 2021-Jul-10 08:35:31 w3hrg.wam BACTERI BACTERI VIRUS VIRUS - 1 2620000
6173132 2021-Jul-10 08:22:10 px2ra.wam GRPHITE MUD PLANT PRESS - 1 580000
6172444 2021-Jul-10 07:30:15 1puqy.wam BACTERI CLAY ENERGY PLANT - 1 1420000
6172424 2021-Jul-10 07:29:36 1puqy.wam BACTERI EARTH ENERGY PLANT - 1 790000
6172390 2021-Jul-10 07:28:37 1puqy.wam BACTERI ENERGY HEAT PLANT - 1 820000
6172362 2021-Jul-10 07:27:42 1puqy.wam BACTERI ENERGY LIFE PLANT - 1 1060000
6172342 2021-Jul-10 07:26:56 1puqy.wam BACTERI ENERGY PLANT WATER - 1 790000
6172309 2021-Jul-10 07:25:38 1puqy.wam BACTERI ENERGY PLANT PLANT - 1 940000
6172286 2021-Jul-10 07:24:36 1puqy.wam BACTERI CLAY HEAT PLANT - 1 1420000
6172264 2021-Jul-10 07:23:43 1puqy.wam BACTERI HEAT PLANT PLANT - 1 940000
6171734 2021-Jul-10 06:45:19 k1ob2.wam LAVA MUD MUD PRESS - 1 160000
6171716 2021-Jul-10 06:42:24 k1ob2.wam AIR HEAT MUD MUD - 1 130000
6171704 2021-Jul-10 06:40:40 k1ob2.wam AIR FIRE MUD MUD - 1 100000
6171616 2021-Jul-10 06:22:12 k1ob2.wam EARTH EARTH SEA WATER - 1 70000
6171600 2021-Jul-10 06:18:48 k1ob2.wam EARTH FIRE SEA WATER - 2 70000
6171586 2021-Jul-10 06:16:29 k1ob2.wam AIR AIR EARTH SEA - 2 70000
6171022 2021-Jul-10 05:22:41 jjera.wam BOTTLE FIRE GARBAGE PRESS - 1 640000
6170958 2021-Jul-10 05:15:56 1puqy.wam BACTERI EARTH HEAT HEAT - 1 670000
6170912 2021-Jul-10 05:12:08 noqaw.wam COAL FIRE FIRE PRESS - 1 340000
6170904 2021-Jul-10 05:10:41 noqaw.wam COAL FIRE PLANT PRESS - 1 490000
6170867 2021-Jul-10 05:06:38 noqaw.wam FIRE PLANT PLANT PRESS - 1 370000
6170840 2021-Jul-10 05:03:30 noqaw.wam HEAT HEAT PLANT SUN - 1 850000
6170831 2021-Jul-10 05:03:02 1puqy.wam LIFE MUD PLANT SWAMP - 1 730000
6170827 2021-Jul-10 05:02:41 1puqy.wam MUD PLANT PLANT SWAMP - 1 610000
6170823 2021-Jul-10 05:02:00 noqaw.wam HEAT PLANT PRESS SUN - 1 850000
6170725 2021-Jul-10 04:54:40 noqaw.wam FIRE PLANT PRESS SUN - 1 820000
6170661 2021-Jul-10 04:46:40 hljrq.wam HEAT HEAT HEAT LAVA - 1 160000
6170654 2021-Jul-10 04:43:57 hljrq.wam HEAT HEAT LAVA PRESS - 1 160000
6170614 2021-Jul-10 04:40:02 hljrq.wam HEAT LAVA PRESS PRESS - 1 160000
6170380 2021-Jul-10 04:20:40 22mr2.wam HEAT HEAT LIFE STONE - 1 460000
6170345 2021-Jul-10 04:16:42 22mr2.wam EARTH ENERGY HEAT LIFE - 1 370000
6170083 2021-Jul-10 03:59:55 1puqy.wam CLAY EARTH MUD PRESS - 1 730000
6169804 2021-Jul-10 03:42:39 hljrq.wam AIR LAVA PRESS WATER - 1 100000
6169743 2021-Jul-10 03:37:41 hljrq.wam LAVA LAVA LAVA PRESS - 1 160000
6169133 2021-Jul-10 02:54:42 bzraw.wam BATTERY BATTERY MUSIC TIME - 1 24520000
6168716 2021-Jul-10 02:30:17 1puqy.wam BACTERI BARREL MUD PLANT - 1 3940000
6168508 2021-Jul-10 02:22:23 pvir.wam BACTERI COAL EARTH PRESS - 1 910000
6168450 2021-Jul-10 02:07:00 jahhwehonwax ALCOHOL PRESS SALT SEA - 1 340000
6168434 2021-Jul-10 02:01:15 jahhwehonwax AIR PRESS SALT SEA - 1 160000
6168318 2021-Jul-10 01:47:06 giwb.wam CLAY COAL EARTH PRESS - 1 970000
6168308 2021-Jul-10 01:39:44 xmnrc.wam AIR AIR EARTH LAVA - 1 70000
6168305 2021-Jul-10 01:37:00 xmnrc.wam BRICK EARTH FIRE FIRE - 1 130000
6168271 2021-Jul-10 01:32:34 xmnrc.wam AIR FIRE FIRE LAVA - 2 70000
6168222 2021-Jul-10 01:29:12 xmnrc.wam AIR EARTH EARTH LAVA - 1 70000
6168191 2021-Jul-10 01:27:36 glur4.wam FLOOD PLANT SEED SEED - 1 2740000
6168187 2021-Jul-10 01:27:32 tvsba.wam EARTH FLOOD HEAT PRESS - 1 250000
6168172 2021-Jul-10 01:26:42 xmnrc.wam EARTH EARTH FIRE LAVA - 2 70000
6168105 2021-Jul-10 01:23:23 xmnrc.wam EARTH FIRE FIRE LAVA - 3 70000
6168085 2021-Jul-10 01:21:52 xmnrc.wam FIRE FIRE FIRE LAVA - 1 70000
6168072 2021-Jul-10 01:21:06 tvsba.wam FLOOD HEAT PRESS WATER - 1 250000
6167756 2021-Jul-10 00:57:59 bovbc.wam ELECTRC ELECTRC ELECTRC METAL - 1 4930000
6167542 2021-Jul-10 00:38:30 5qupe.wam ATMSPHE EARTH EARTH STONE - 1 250000
6167310 2021-Jul-10 00:24:50 5qupe.wam ATMSPHE EARTH STONE SUN - 1 850000
6167304 2021-Jul-10 00:23:58 bovbc.wam LAVA LAVA LAVA SAND - 1 580000
6167223 2021-Jul-10 00:18:04 4wqto.wam ENERGY LIFE PRESS SAND - 1 820000
6167212 2021-Jul-10 00:16:51 bovbc.wam ATMSPHE GAS OCEAN STONE - 1 1300000
6167153 2021-Jul-10 00:12:46 bovbc.wam EARTH HEAT PRESS TREE - 1 880000
6166889 2021-Jul-09 23:35:28 pu2aw.wam MUD PLANT SWAMP SWAMP - 1 700000
6166827 2021-Jul-09 23:26:16 3zjbc.wam EARTH HEAT SEA STONE - 1 190000
6166735 2021-Jul-09 23:06:26 l2ueo.wam ATMSPHE ATMSPHE SUN SUN - 1 1480000
6166687 2021-Jul-09 23:02:31 o5gqy.wam EXPLOSN HEAT OCEAN PRESS - 1 550000
6166667 2021-Jul-09 22:59:36 optb4.wam ELECTRC GRPHITE SAND SAND - 1 2680000
6166351 2021-Jul-09 22:48:36 optb4.wam COAL ELECTRC SAND SAND - 1 2620000
6165733 2021-Jul-09 22:17:59 h4lra.wam COAL COAL OCEAN PRESS - 1 760000
6165581 2021-Jul-09 22:08:55 r15ra.wam EARTHQ PRESS SAND SEA - 1 640000
6165442 2021-Jul-09 22:00:13 zknby.wam COAL STONE STONE WATER - 1 490000
6165430 2021-Jul-09 21:59:28 optb4.wam ELECTRC ELECTRC GRPHITE SAND - 1 3640000
6165416 2021-Jul-09 21:58:56 apway.wam COAL ELECTRC ELECTRC SAND - 1 3580000
6165269 2021-Jul-09 21:52:21 v3eaw.wam BOILER COAL PLANT PRESS - 1 1240000
6165142 2021-Jul-09 21:47:33 v3eaw.wam BOILER COAL COAL PRESS - 1 1360000
6165009 2021-Jul-09 21:36:56 r2t.e.wam FLOOD PLANT RAIN RIVER - 1 1390000
6164996 2021-Jul-09 21:35:40 afab.wam CLOUD DUST GAS SUN - 1 1870000
6164850 2021-Jul-09 21:30:16 v3eaw.wam BACTERI COAL GAS PLANT - 1 1930000
6164565 2021-Jul-09 21:13:28 hjkb4.wam CLAY FLOOD MUD SEED - 1 2050000
6164554 2021-Jul-09 21:13:09 xqjam.wam PAPER PAPER SOUND TREE - 1 2350000
6164243 2021-Jul-09 21:02:20 teubg.wam EARTHQ PRESS PRESS SAND - 1 640000
6164234 2021-Jul-09 21:02:03 14vb2.wam COAL MUD PRESS WATER - 1 370000
6164203 2021-Jul-09 21:00:29 xqjam.wam MUSIC PAPER SOUND TREE - 1 14740000
6164034 2021-Jul-09 20:52:04 yccbo.wam COAL LIFE OZONE SALT - 1 3730000
6163957 2021-Jul-09 20:49:20 luckyaddress FIRE MUD PLANT SEA - 1 250000
6163729 2021-Jul-09 20:40:39 euuec.wam AIR HEAT LIFE PRESS - 1 370000
6163726 2021-Jul-09 20:40:31 4y4qy.wam BACTERI BACTERI LIFE LIFE - 1 1720000
6163582 2021-Jul-09 20:36:28 4y4qy.wam MNTAIN OCEAN OZONE SKY - 1 4480000
6163340 2021-Jul-09 20:30:00 r15ra.wam PRESS SAND SEA SUN - 1 1150000
6163229 2021-Jul-09 20:24:57 4y4qy.wam GAS HEAT STONE STONE - 1 1150000
6163163 2021-Jul-09 20:21:49 4y4qy.wam CLAY LIFE OCEAN PLANT - 1 1240000
6162996 2021-Jul-09 20:15:40 4y4qy.wam BACTERI LIFE PLANT SWAMP - 1 1270000
6162883 2021-Jul-09 20:09:16 gcxr2.wam BACTERI BACTERI HEAT PLANT - 1 1360000
6162874 2021-Jul-09 20:08:44 4y4qy.wam BACTERI MUD PLANT SWAMP - 1 1030000
6162869 2021-Jul-09 20:08:34 lpoqy.wam LAVA OCEAN PRESS PRESS - 1 280000
6162802 2021-Jul-09 20:04:59 4y4qy.wam HEAT MUD PRESS RIVER - 1 1150000
6162780 2021-Jul-09 20:02:15 4y4qy.wam BACTERI CLAY OCEAN PLANT - 1 1540000
6162774 2021-Jul-09 20:01:23 gcxr2.wam BACTERI HEAT PLANT WATER - 1 790000
6162708 2021-Jul-09 19:58:01 zebrasv1bogu FIRE HEAT LIFE PRESS - 1 370000
6162687 2021-Jul-09 19:57:29 4y4qy.wam ISLE LIFE SEA WAVE - 1 1390000
6162685 2021-Jul-09 19:57:27 xf3ay.wam LIFE MUD SALT STONE - 1 490000
6162675 2021-Jul-09 19:57:12 zebrasv1bogu COAL FIRE HEAT PRESS - 1 370000
6162640 2021-Jul-09 19:55:51 nanibahaniwx HEAT OCEAN PLANT SEA - 1 400000
6162584 2021-Jul-09 19:54:36 4nkr.wam SWAMP WATER WATER WATER - 1 280000
6162523 2021-Jul-09 19:52:35 4nkr.wam SAND WATER WATER WATER - 1 490000
6162486 2021-Jul-09 19:51:42 o2abo.wam HEAT OCEAN PRESS WATER - 1 250000
6162478 2021-Jul-09 19:51:14 2tsr2.wam MUD PLANT STONE WAVE - 1 700000
6162464 2021-Jul-09 19:50:20 4nkr.wam CLAY SAND WATER WATER - 1 1120000
6162429 2021-Jul-09 19:48:59 4y4qy.wam PRESS SALT STONE WAVE - 1 610000
6162419 2021-Jul-09 19:48:40 pnh5y.wam FLOOD PEAT PLANT SEED - 1 2800000
6162294 2021-Jul-09 19:44:02 ihvb2.wam EARTHQ LIFE PRESS SEA - 1 460000
6162253 2021-Jul-09 19:43:11 4y4qy.wam CLAY LIFE LIFE OCEAN - 1 1360000
6162202 2021-Jul-09 19:42:20 4nkr.wam PRESS STONE WAVE WIND - 1 670000
6162196 2021-Jul-09 19:42:07 xf3ay.wam EARTH EARTH SALT STONE - 1 190000
6162176 2021-Jul-09 19:41:35 tvsba.wam EARTH PRESS PRESS WAVE - 1 490000
6162151 2021-Jul-09 19:40:57 zebrasv1bogu FIRE HEAT PLANT PRESS - 1 250000
6162078 2021-Jul-09 19:38:57 4y4qy.wam OCEAN PRESS PRESS WAVE - 1 640000
6162073 2021-Jul-09 19:38:48 luckyaddress FIRE MUD PLANT WATER - 1 220000
6161928 2021-Jul-09 19:31:31 4y4qy.wam MUD SAND SEA WAVE - 1 940000
6161910 2021-Jul-09 19:30:36 slwqy.wam GAS HEAT SAND SAND - 1 1870000
6161786 2021-Jul-09 19:26:40 4y4qy.wam BACTERI MUD PRESS SAND - 1 1120000
6161671 2021-Jul-09 19:23:51 4y4qy.wam BACTERI CLAY HEAT WATER - 1 1270000
6161578 2021-Jul-09 19:19:55 4y4qy.wam BACTERI GARBAGE LIFE PRESS - 1 940000
6161448 2021-Jul-09 19:17:21 xf3ay.wam OCEAN OCEAN SALT STONE - 1 490000
6161379 2021-Jul-09 19:15:19 4y4qy.wam BACTERI FIRE PLANT PRESS - 1 790000
6161359 2021-Jul-09 19:14:41 odnum.wam BACTERI HEAT HEAT SEA - 1 700000
6161282 2021-Jul-09 19:12:13 4y4qy.wam COAL LIFE MOSS SMOKE - 1 1180000
6161181 2021-Jul-09 19:08:49 k1ob2.wam PLANT PRESS PRESS SALT - 1 310000
6161139 2021-Jul-09 19:07:20 4y4qy.wam MNTAIN STONE STONE STONE - 1 940000
6161036 2021-Jul-09 19:04:38 4y4qy.wam COAL COAL ENERGY SAND - 1 1060000
6161034 2021-Jul-09 19:04:36 xf3ay.wam DUST SALT STONE STONE - 1 310000
6161029 2021-Jul-09 19:04:32 gsoaw.wam CLAY MOSS SEA SUN - 1 1570000
6160860 2021-Jul-09 18:59:40 4y4qy.wam LIFE MNTAIN SAND WAVE - 1 1780000
6160823 2021-Jul-09 18:57:56 xf3ay.wam DUST SALT SALT STONE - 1 280000
6160734 2021-Jul-09 18:54:57 lpoqy.wam LAVA LAVA LAVA OCEAN - 1 280000
6160676 2021-Jul-09 18:53:16 4y4qy.wam HEAT PRESS STONE WAVE - 1 580000
6160602 2021-Jul-09 18:50:29 euuec.wam PRESS STEAM STONE WAVE - 1 580000
6160599 2021-Jul-09 18:50:25 4y4qy.wam BACTERI CLAY LIFE PRESS - 1 1540000
6160565 2021-Jul-09 18:49:21 bhwqy.wam DUST OCEAN PRESS SAND - 1 700000
6160546 2021-Jul-09 18:48:32 xf3ay.wam DUST DUST SALT STONE - 1 250000
6160503 2021-Jul-09 18:46:36 4y4qy.wam FIRE GRASS PRESS TREE - 1 1090000
6160502 2021-Jul-09 18:46:36 euuec.wam PRESS STEAM WATER WATER - 1 100000
6160458 2021-Jul-09 18:44:44 euuec.wam OCEAN PRESS STEAM STONE - 1 340000
6160417 2021-Jul-09 18:44:03 1fuue.wam AIR AIR ENERGY ENERGY - 1 100000
6160349 2021-Jul-09 18:42:18 jppr2.wam CLAY HEAT HEAT OCEAN - 1 880000
6160337 2021-Jul-09 18:42:03 euuec.wam PRESS STEAM STONE WATER - 1 190000
6160297 2021-Jul-09 18:41:07 4y4qy.wam BACTERI EARTH ENERGY SUN - 1 1240000
6160155 2021-Jul-09 18:38:11 4y4qy.wam MUD PLANT SUN SWAMP - 1 1060000
6160107 2021-Jul-09 18:36:11 4y4qy.wam CLAY LIFE PRESS STONE - 1 1060000
6160046 2021-Jul-09 18:35:02 xf3ay.wam DUST EARTH SALT STONE - 1 220000
6160028 2021-Jul-09 18:34:45 lpoqy.wam FLOOD MUD MUD PRESS - 1 280000
6159889 2021-Jul-09 18:31:22 uhmro.wam CLAY HEAT HEAT WATER - 1 730000
6159881 2021-Jul-09 18:31:01 4y4qy.wam CLAY FLOOD FLOOD SEED - 1 2170000
6159855 2021-Jul-09 18:29:47 jppr2.wam MUD OCEAN OCEAN OCEAN - 1 520000
6159787 2021-Jul-09 18:26:53 4y4qy.wam BACTERI BACTERI COAL SUN - 1 2050000
6159717 2021-Jul-09 18:23:27 4y4qy.wam BACTERI CLAY HEAT LIFE - 1 1540000
6159587 2021-Jul-09 18:18:56 lpoqy.wam EARTHQ PRESS PRESS PRESS - 1 220000
6159586 2021-Jul-09 18:18:55 4y4qy.wam AIR DUST RAIN VIRUS - 1 820000
6159563 2021-Jul-09 18:17:43 dtsaw.wam BACTERI CLAY PRESS WATER - 1 1270000
6159549 2021-Jul-09 18:17:02 xf3ay.wam MUD MUD SALT STONE - 1 250000
6159505 2021-Jul-09 18:15:56 4y4qy.wam CLAY CLAY PRESS PRESS - 1 1360000
6159470 2021-Jul-09 18:14:44 jppr2.wam HEAT MUD OCEAN OCEAN - 1 400000
6159395 2021-Jul-09 18:12:47 tsfsc.wam MUD PRESS SWAMP WATER - 1 340000
6159358 2021-Jul-09 18:12:02 4y4qy.wam CLAY LIFE PRESS PRESS - 1 1000000
6159341 2021-Jul-09 18:11:42 xf3ay.wam MUD SALT SALT STONE - 1 280000
6159326 2021-Jul-09 18:11:12 jppr2.wam HEAT MUD MUD OCEAN - 2 280000
6159275 2021-Jul-09 18:08:59 4y4qy.wam CLAY MUD OCEAN PRESS - 1 880000
6159228 2021-Jul-09 18:07:46 euuec.wam ENERGY LIFE MUD WATER - 1 370000
6159192 2021-Jul-09 18:06:54 4y4qy.wam GEYSER MUD PRESS SAND - 1 730000
6159140 2021-Jul-09 18:05:53 hyera.wam MUD PRESS SALT SAND - 1 610000
6159021 2021-Jul-09 18:03:46 4y4qy.wam DUST SALT STONE WATER - 1 220000
6158624 2021-Jul-09 17:55:17 iyuca.wam ENERGY MUD OCEAN SAND - 1 700000
6158405 2021-Jul-09 17:50:01 k1ob2.wam LAVA LAVA PRESS SEA - 1 160000
6158403 2021-Jul-09 17:50:01 4y4qy.wam CLAY LIFE MUD PRESS - 1 1000000
6158353 2021-Jul-09 17:49:08 ohlqy.wam PLANT RAIN RAIN SWAMP - 1 490000
6158302 2021-Jul-09 17:48:05 xf3ay.wam EARTH OCEAN SALT STONE - 1 340000
6158160 2021-Jul-09 17:45:40 4y4qy.wam EARTH ENERGY PLANT SWAMP - 1 460000
6158000 2021-Jul-09 17:42:44 4y4qy.wam CLAY LIFE PRESS WATER - 1 970000
6157752 2021-Jul-09 17:38:04 4y4qy.wam BACTERI CLAY PRESS SEA - 1 1300000
6157591 2021-Jul-09 17:34:13 4y4qy.wam COAL PRESS STONE STONE - 1 520000
6157488 2021-Jul-09 17:31:47 xf3ay.wam OCEAN SALT STONE STONE - 1 430000
6157454 2021-Jul-09 17:30:55 4y4qy.wam CLAY HEAT LIFE OCEAN - 1 1120000
6157328 2021-Jul-09 17:28:32 db1rc.wam COAL MUD MUD SEA - 1 400000
6157323 2021-Jul-09 17:28:26 4y4qy.wam CLAY LIFE OCEAN PRESS - 1 1120000
6157208 2021-Jul-09 17:24:49 4y4qy.wam CLAY LIFE SAND WATER - 1 1390000
6157107 2021-Jul-09 17:22:08 4y4qy.wam BACTERI BACTERI MUD MUD - 1 1240000
6156993 2021-Jul-09 17:18:14 4y4qy.wam BACTERI MUD MUD SAND - 1 1120000
6156976 2021-Jul-09 17:17:48 alinmicuqq11 BACTERI PLANT PLANT PLANT - 1 1060000
6156934 2021-Jul-09 17:16:50 hyera.wam EARTHQ MUD PRESS STONE - 1 280000
6156827 2021-Jul-09 17:13:37 4y4qy.wam COAL METAL OBSIDIN PRESS - 1 1120000
6156713 2021-Jul-09 17:10:15 alinmicuqq11 PLANT PLANT PLANT SAND - 1 940000
6156699 2021-Jul-09 17:09:30 4y4qy.wam CLAY MUD PRESS STONE - 1 820000
6156601 2021-Jul-09 17:04:25 alinmicuqq11 HEAT PLANT PLANT SAND - 1 820000
6156460 2021-Jul-09 16:55:55 alinmicuqq11 HEAT PLANT SAND SAND - 1 1120000
6155723 2021-Jul-09 16:25:00 ehrbq.wam EARTHQ ENERGY OCEAN PRESS - 1 340000
6155154 2021-Jul-09 16:04:49 plbb.wam PLANT PLANT PRESS STEAM - 1 400000
6154788 2021-Jul-09 15:55:15 g.dqy.wam EXPLOSN SEA SEA SEA - 1 430000
6154178 2021-Jul-09 15:44:28 crafterinobu BARREL GLASS GRAPE TIME - 1 11650000
6153699 2021-Jul-09 15:35:30 uoaqy.wam BOOK BULB PAPER PENCIL - 1 15310000
6151722 2021-Jul-09 14:32:35 5qupe.wam BACTERI GEYSER OCEAN PRESS - 1 970000
6151465 2021-Jul-09 14